[[{"header":{"parameterUnit":"m.s-1","parameterCategory":1,"la1":31.0,"la2":29.5877,"lo1":-88.7671,"lo2":-86.6584,"dy":0.0162,"dx":0.0185,"nx":115,"ny":88,"refTime":"2026-05-11T12:00:00:Z","depth":0,"parameterNumber":2,"parameterNumberName":"U-component_of_WINDS"},"data":[0.0,0.0,0.0,0.0,0.0,0.0,0.0,0.0,0.0,0.0,0.0,0.0,0.0,0.0,0.0,0.0,0.0,0.0,0.0,0.0,0.0,0.0,0.0,0.0,0.0,0.0,0.0,0.0,0.0,0.0,0.0,0.0,0.0,0.0,0.0,0.0,0.0,0.0,0.0,0.0,0.0,0.0,0.0,0.0,0.0,0.0,0.0,0.0,0.0,0.0,0.0,0.0,0.0,0.0,0.0,0.0,0.0,0.0,0.0,0.0,0.0,0.0,0.0,0.0,0.0,0.0,0.0,0.0,0.0,0.0,0.0,0.0,0.0,0.0,0.0,0.0,0.0,0.0,0.0,0.0,0.0,0.0,0.0,0.0,0.0,0.0,0.0,0.0,0.0,0.0,0.0,0.0,0.0,0.0,0.0,0.0,0.0,0.0,0.0,0.0,0.0,0.0,0.0,0.0,0.0,0.0,0.0,0.0,0.0,0.0,0.0,0.0,0.0,0.0,0.0,0.0,0.0,0.0,0.0,0.0,0.0,0.0,0.0,0.0,0.0,0.0,0.0,0.0,0.0,0.0,0.0,0.0,0.0,0.0,0.0,0.0,0.0,0.0,0.0,0.0,0.0,0.0,0.0,0.0,0.0,0.0,0.0,0.0,0.0,0.0,0.0,0.0,0.0,0.0,0.0,0.0,0.0,0.0,0.0,0.0,0.0,0.0,0.0,0.0,0.0,0.0,0.0,0.0,0.0,0.0,0.0,0.0,0.0,0.0,0.0,0.0,0.0,0.0,0.0,0.0,0.0,0.0,0.0,0.0,0.0,0.0,0.0,0.0,0.0,0.0,0.0,0.0,0.0,0.0,0.0,0.0,0.0,0.0,0.0,0.0,0.0,0.0,0.0,0.0,0.0,0.0,0.0,0.0,0.0,0.0,0.0,0.0,0.0,0.0,0.0,0.0,0.0,0.0,0.0,0.0,0.0,0.0,0.0,0.0,0.0,0.0,0.0,0.0,0.0,0.0,0.0,0.0,0.0,0.0,0.0,0.0,0.0,0.0,0.0,0.0,0.0,0.0,0.0,0.0,0.0,0.0,0.0,0.0,0.0,0.0,0.0,0.0,0.0,0.0,0.0,0.0,0.0,0.0,0.0,0.0,0.0,0.0,0.0,0.0,0.0,0.0,0.0,0.0,0.0,0.0,0.0,0.0,0.0,0.0,0.0,0.0,0.0,0.0,0.0,0.0,0.0,0.0,0.0,0.0,0.0,0.0,0.0,0.0,0.0,0.0,0.0,0.0,0.0,0.0,0.0,0.0,0.0,0.0,0.0,0.0,0.0,0.0,0.0,0.0,0.0,0.0,0.0,0.0,0.0,0.0,0.0,0.0,0.0,0.0,0.0,0.0,0.0,0.0,0.0,0.0,0.0,0.0,0.0,0.0,0.0,0.0,0.0,0.0,0.0,0.0,0.0,0.0,0.0,0.0,0.0,0.0,0.0,0.0,0.0,0.0,0.0,0.0,0.0,0.0,0.0,0.0,0.0,0.0,0.0,0.0,0.0,0.0,0.0,0.0,0.0,0.0,0.0,0.0,0.0,0.0,0.0,0.0,0.0,0.0,0.0,0.0,0.0,0.0,0.0,0.0,0.0,0.0,0.0,0.0,0.0,0.0,0.0,0.0,0.0,0.0,0.0,0.0,0.0,0.0,0.0,0.0,0.0,0.0,0.0,0.0,0.0,0.0,0.0,0.0,0.0,0.0,0.0,0.0,0.0,0.0,0.0,0.0,0.0,0.0,0.0,0.0,0.0,0.0,0.0,0.0,0.0,0.0,0.0,0.0,0.0,0.0,0.0,0.0,0.0,0.0,0.0,0.0,0.0,0.0,0.0,0.0,0.0,0.0,0.0,0.0,0.0,0.0,0.0,0.0,0.0,0.0,0.0,0.0,0.0,0.0,0.0,0.0,0.0,0.0,0.0,0.0,0.0,0.0,0.0,0.0,0.0,0.0,0.0,0.0,0.0,0.0,0.0,0.0,0.0,0.0,0.0,0.0,0.0,0.0,0.0,0.0,0.0,0.0,0.0,0.0,0.0,0.0,0.0,0.0,0.0,0.0,0.0,0.0,0.0,0.0,0.0,0.0,0.0,0.0,0.0,0.0,0.0,0.0,0.0,0.0,0.0,0.0,0.0,0.0,0.0,0.0,0.0,0.0,0.0,0.0,0.0,0.0,0.0,0.0,0.0,0.0,0.0,0.0,0.0,0.0,0.0,0.0,0.0,0.0,0.0,0.0,0.0,0.0,0.0,0.0,0.0,0.0,0.0,0.0,0.0,0.0,0.0,0.0,0.0,0.0,0.0,0.0,0.0,0.0,0.0,0.0,0.0,0.0,0.0,0.0,0.0,0.0,0.0,0.0,0.0,0.0,0.0,0.0,0.0,0.0,0.0,0.0,0.0,0.0,0.0,0.0,0.0,0.0,0.0,0.0,0.0,0.0,0.0,0.0,0.0,0.0,0.0,0.0,0.0,0.0,0.0,0.0,0.0,0.0,0.0,0.0,0.0,0.0,0.0,0.0,0.0,0.0,0.0,0.0,0.0,0.0,0.0,0.0,0.0,0.0,0.0,0.0,0.0,0.0,0.0,0.0,0.0,0.0,0.0,0.0,0.0,0.0,0.0,0.0,0.0,0.0,0.0,0.0,0.0,0.0,0.0,0.0,0.0,0.0,0.0,0.0,0.0,0.0,0.0,0.0,0.0,0.0,0.0,0.0,0.0,0.0,0.0,0.0,0.0,0.0,0.0,0.0,0.0,0.0,0.0,0.0,0.0,0.0,0.0,0.0,0.0,0.0,0.0,0.0,0.0,0.0,0.0,0.0,0.0,0.0,0.0,0.0,0.0,0.0,0.0,0.0,0.0,0.0,0.0,0.0,0.0,0.0,0.0,0.0,0.0,0.0,0.0,0.0,0.0,0.0,0.0,0.0,0.0,0.0,0.0,0.0,0.0,0.0,0.0,0.0,0.0,0.0,0.0,0.0,0.0,0.0,0.0,0.0,0.0,0.0,0.0,0.0,0.0,0.0,0.0,0.0,0.0,0.0,0.0,0.0,0.0,0.0,0.0,0.0,0.0,0.0,0.0,0.0,0.0,0.0,0.0,0.0,0.0,0.0,0.0,0.0,0.0,0.0,0.0,0.0,0.0,0.0,0.0,0.0,0.0,0.0,0.0,0.0,0.0,0.0,0.0,0.0,0.0,0.0,0.0,0.0,0.0,0.0,0.0,0.0,0.0,0.0,0.0,0.0,0.0,0.0,0.0,0.0,0.0,0.0,0.0,0.0,0.0,0.0,0.0,0.0,0.0,0.0,0.0,0.0,0.0,0.0,0.0,0.0,0.0,0.0,0.0,0.0,0.0,0.0,0.0,0.0,0.0,0.0,0.0,0.0,0.0,0.0,0.0,0.0,0.0,0.0,0.0,0.0,0.0,0.0,0.0,0.0,0.0,0.0,0.0,0.0,0.0,0.0,0.0,0.0,0.0,0.0,0.0,0.0,0.0,0.0,0.0,0.0,0.0,0.0,0.0,0.0,0.0,0.0,0.0,0.0,0.0,0.0,0.0,0.0,0.0,0.0,0.0,0.0,0.0,0.0,0.0,0.0,0.0,0.0,0.0,0.0,0.0,0.0,0.0,0.0,0.0,0.0,0.0,0.0,0.0,0.0,0.0,0.0,0.0,0.0,0.0,0.0,0.0,0.0,0.0,0.0,0.0,0.0,0.0,0.0,0.0,0.0,0.0,0.0,0.0,0.0,0.0,0.0,0.0,0.0,0.0,0.0,0.0,0.0,0.0,0.0,0.0,0.0,0.0,0.0,0.0,0.0,0.0,0.0,0.0,0.0,0.0,0.0,0.0,0.0,0.0,0.0,0.0,0.0,0.0,0.0,0.0,0.0,0.0,0.0,0.0,0.0,0.0,0.0,0.0,0.0,0.0,0.0,0.0,0.0,0.0,0.0,0.0,0.0,0.0,0.0,0.0,0.0,0.0,0.0,0.0,0.0,0.0,0.0,0.0,0.0,0.0,0.0,0.0,0.0,0.0,0.0,0.0,0.0,0.0,0.0,0.0,0.0,0.0,0.0,0.0,0.0,0.0,0.0,0.0,0.0,0.0,0.0,0.0,0.0,0.0,0.0,0.0,0.0,0.0,0.0,0.0,0.0,0.0,0.0,0.0,0.0,0.0,0.0,0.0,0.0,0.0,0.0,0.0,0.0,0.0,0.0,0.0,0.0,1.2904,0.0,0.0,0.0,0.0,0.0,0.0,0.0,0.0,0.0,0.0,0.0,0.0,0.0,0.0,0.0,0.0,0.0,0.0,0.0,0.0,0.0,0.0,0.0,0.0,0.0,0.0,0.0,0.0,0.0,0.0,0.0,0.0,0.0,0.0,0.0,0.0,0.0,0.0,0.0,0.0,0.0,0.0,0.0,0.0,0.0,0.0,0.0,0.0,0.0,0.0,0.0,0.0,0.0,0.0,0.0,0.0,0.0,0.0,0.0,0.0,0.0,0.0,0.0,0.0,0.0,0.0,0.0,0.0,0.0,0.0,0.0,0.0,0.0,0.0,0.0,0.0,0.0,0.0,0.0,0.0,0.0,0.0,0.0,0.0,0.0,0.0,0.0,0.0,0.0,0.0,0.0,0.0,0.0,0.0,0.0,0.0,0.0,0.0,0.0,0.0,0.0,0.0,0.0,0.0,0.0,0.0,0.0,0.0,0.0,0.0,1.3648,1.2558,1.3162,1.3131,1.2383,0.0,0.0,0.0,0.0,0.0,0.0,0.0,0.0,0.0,0.0,0.0,0.0,0.0,0.0,0.0,0.0,0.0,0.0,0.0,0.0,0.0,0.0,0.0,0.0,0.0,0.0,0.0,0.0,0.0,0.0,0.0,0.0,0.0,0.0,0.0,0.0,0.0,0.0,0.0,0.0,0.0,0.0,0.0,0.0,0.0,0.0,0.0,0.0,0.0,0.0,0.0,0.0,0.0,0.0,0.0,0.0,0.0,0.0,0.0,0.0,0.0,0.0,0.0,0.0,0.0,0.0,0.0,0.0,0.0,0.0,0.0,0.0,0.0,0.0,0.0,0.0,0.0,0.0,0.0,0.0,0.0,0.0,0.0,0.0,0.0,0.0,0.0,0.0,0.0,0.0,0.0,0.0,0.0,0.0,0.0,0.0,0.0,0.0,0.0,0.0,0.0,0.0,0.0,0.0,0.0,0.0,0.0,0.0,0.0,0.0,0.0,0.0,1.3107,1.2947,1.1747,0.0,0.0,0.0,0.0,0.0,0.0,0.0,0.0,0.0,0.0,0.0,0.0,0.0,0.0,0.0,0.0,0.0,0.0,0.0,0.0,0.0,0.0,0.0,0.0,0.0,0.0,0.0,0.0,0.0,0.0,0.0,0.0,0.0,0.0,0.0,0.0,0.0,0.0,0.0,0.0,0.0,0.0,0.0,0.0,0.0,0.0,0.0,0.0,0.0,0.0,0.0,0.0,0.0,0.0,0.0,0.0,0.0,0.0,0.0,0.0,0.0,0.0,0.0,0.0,0.0,0.0,0.0,0.0,0.0,0.0,0.0,0.0,0.0,0.0,0.0,0.0,0.0,0.0,0.0,0.0,0.0,0.0,0.0,0.0,0.0,0.0,0.0,0.0,0.0,0.0,0.0,0.0,0.0,0.0,0.0,0.0,0.0,0.0,0.0,0.0,0.0,0.0,0.0,0.0,0.0,0.0,0.0,0.0,0.0,0.0,1.2528,1.2998,1.2081,0.0,1.1278,0.0,0.0,0.0,0.0,0.0,0.0,0.0,0.0,0.0,0.0,0.0,0.0,0.0,0.0,0.0,0.0,0.0,0.0,0.0,0.0,0.0,0.0,0.0,0.0,0.0,0.0,0.0,0.0,0.0,0.0,0.0,0.0,0.0,0.0,0.0,0.0,0.0,0.0,0.0,0.0,0.0,0.0,0.0,0.0,0.0,0.0,0.0,0.0,0.0,0.0,0.0,0.0,0.0,0.0,0.0,0.0,0.0,0.0,0.0,0.0,0.0,0.0,0.0,0.0,0.0,0.0,0.0,0.0,0.0,0.0,0.0,0.0,0.0,0.0,0.0,0.0,0.0,0.0,0.0,0.0,0.0,0.0,0.0,0.0,0.0,0.0,0.0,0.0,0.0,0.0,0.0,0.0,0.0,0.0,0.0,0.0,0.0,0.0,0.0,0.0,0.0,0.0,0.0,0.0,0.0,0.0,0.0,0.0,0.0,0.0,1.2516,1.2391,1.1707,1.1299,0.0,0.0,0.0,0.0,0.0,0.0,0.0,0.0,0.0,0.0,0.0,0.0,0.0,0.0,0.0,0.0,0.0,0.0,0.0,0.0,0.0,0.0,0.0,0.0,0.0,0.0,0.0,0.0,0.0,0.0,0.0,0.0,0.0,0.0,0.0,0.0,0.0,0.0,0.0,0.0,0.0,0.0,0.0,0.0,0.0,0.0,0.0,0.0,0.0,0.0,0.0,0.0,0.0,0.0,0.0,0.0,0.0,0.0,0.0,0.0,0.0,0.0,0.0,0.0,0.0,0.0,0.0,0.0,0.0,0.0,0.0,0.0,0.0,0.0,0.0,0.0,0.0,0.0,0.0,0.0,0.0,0.0,0.0,0.0,0.0,0.0,0.0,0.0,0.0,0.0,0.0,0.0,0.0,0.0,0.0,0.0,0.0,0.0,0.0,0.0,0.0,0.0,0.0,0.0,0.0,0.0,0.0,0.0,0.0,0.0,1.2278,1.2134,1.1582,1.1464,1.1263,1.0991,0.0,0.0,0.0,0.0,0.0,0.0,0.0,0.0,0.0,0.0,0.0,0.0,0.0,0.0,0.0,0.0,0.0,0.0,0.0,0.0,0.0,0.0,0.0,0.0,0.0,0.0,0.0,0.0,0.0,0.0,0.0,0.0,0.0,0.0,0.0,0.0,0.0,0.0,0.0,0.0,0.0,0.0,0.0,0.0,0.0,0.0,0.0,0.0,0.0,0.0,0.0,0.0,0.0,0.0,0.0,0.0,0.0,0.0,0.0,0.0,0.0,0.0,0.0,0.0,0.0,0.0,0.0,0.0,0.0,0.0,0.0,0.0,0.0,0.0,0.0,0.0,0.0,0.0,0.0,0.0,0.0,0.0,0.0,0.0,0.0,0.0,0.0,0.0,0.0,0.0,0.0,0.0,0.0,0.0,0.0,0.0,0.0,0.0,0.0,0.0,0.0,0.0,0.0,0.0,0.0,0.0,0.0,0.0,0.0,1.1132,1.0976,1.0773,1.1159,1.1186,0.0,0.0,0.0,0.0,0.0,0.0,0.0,0.0,0.0,0.0,0.0,0.0,0.0,0.0,0.0,0.0,0.0,0.0,0.0,0.0,0.0,0.0,0.0,0.0,0.0,0.0,0.0,0.0,0.0,0.0,0.0,0.0,0.0,0.0,0.0,0.0,0.0,0.0,0.0,0.0,0.0,0.0,0.0,0.0,0.0,0.0,0.0,0.0,0.0,0.0,0.0,0.0,0.0,0.0,0.0,0.0,0.0,0.0,0.0,0.0,0.0,0.0,0.0,0.0,0.0,0.0,0.0,0.0,0.0,0.0,0.0,0.0,0.0,0.0,0.0,0.0,0.0,0.0,0.0,0.0,0.0,0.0,0.0,0.0,0.0,0.0,0.0,0.0,0.0,0.0,0.0,0.0,0.0,0.0,0.0,0.0,0.0,0.0,0.0,0.0,0.0,0.0,0.0,0.0,0.0,0.0,0.0,0.0,0.0,1.1396,1.0965,1.0521,1.0097,1.0367,1.0456,0.0,0.0,0.0,0.0,0.0,0.0,0.0,0.0,0.0,0.0,0.0,0.0,0.0,0.0,0.0,0.0,0.0,0.0,0.0,0.0,0.0,0.0,0.0,0.0,0.0,0.0,0.0,0.0,0.0,0.0,0.0,0.0,0.0,0.0,0.0,0.0,0.0,0.0,0.0,0.0,0.0,0.0,0.0,0.0,0.0,0.0,0.0,0.0,0.0,0.0,0.0,0.0,0.0,0.0,0.0,0.0,0.0,0.0,0.0,0.0,0.0,0.0,0.0,0.0,0.0,0.0,0.0,0.0,0.0,0.0,0.0,0.0,0.0,0.0,0.0,0.0,0.0,0.0,0.0,0.0,0.0,0.0,0.0,0.0,0.0,0.0,0.0,0.0,0.0,0.0,0.0,0.0,0.0,0.0,0.0,0.0,0.0,0.0,0.0,0.0,0.0,0.0,0.0,0.0,0.0,0.0,0.0,0.0,0.0,1.0926,0.0,0.9915,0.0,0.9659,0.9751,0.0,0.0,0.0,0.0,0.0,0.0,0.0,0.0,0.0,0.0,0.0,0.0,0.0,0.0,0.0,0.0,0.0,0.0,0.0,0.0,0.0,0.0,0.0,0.0,0.0,0.0,0.0,0.0,0.0,0.0,0.0,0.0,0.0,0.0,0.0,0.0,0.0,0.0,0.0,0.0,0.0,0.0,0.0,0.0,0.0,0.0,0.0,0.0,0.0,0.0,0.0,0.0,0.0,0.0,0.0,0.0,0.0,0.0,0.0,0.0,0.0,0.0,0.0,0.0,0.0,0.0,0.0,0.0,0.0,0.0,0.0,0.0,0.0,0.0,0.0,0.0,0.0,0.0,0.0,0.0,0.0,0.0,0.0,0.0,0.0,0.0,0.0,0.0,0.0,0.0,0.0,0.0,0.0,0.0,0.0,0.0,0.0,0.0,0.0,0.0,0.0,0.0,0.0,0.0,0.0,0.0,0.0,0.0,1.0496,0.9555,0.9128,0.9026,0.9287,0.9031,0.9085,0.0,0.0,0.0,0.0,0.0,0.0,0.0,0.0,0.0,0.0,0.0,0.0,0.0,0.0,0.0,0.0,0.0,0.0,0.0,0.0,0.0,0.0,0.0,0.0,0.0,0.0,0.0,0.0,0.0,0.0,0.0,0.0,0.0,0.0,0.0,0.0,0.0,0.0,0.0,0.0,0.0,0.0,0.0,0.0,0.0,0.0,0.0,0.0,0.0,0.0,0.0,0.0,0.0,0.0,0.0,0.0,0.0,0.0,0.0,0.0,0.0,0.0,0.0,0.0,0.0,0.0,0.0,0.0,0.0,0.0,0.0,0.0,0.0,0.0,0.0,0.0,0.0,0.0,0.0,0.0,0.0,0.0,0.0,0.0,0.0,0.0,0.0,0.0,0.0,0.0,0.0,0.0,0.0,0.0,0.0,0.0,0.0,0.0,0.0,0.0,0.0,0.0,0.0,0.0,0.0,0.0,0.0,0.0,0.0,0.9104,0.8462,0.8259,0.852,0.8439,0.8574,0.0,0.0,0.0,0.0,0.0,0.0,0.0,0.0,0.0,0.0,0.0,0.0,0.0,0.0,0.0,0.0,0.0,0.0,0.0,0.0,0.0,0.0,0.0,0.0,0.0,0.0,0.0,0.0,0.0,0.0,0.0,0.0,0.0,0.0,0.0,0.0,0.0,0.0,0.0,0.0,0.0,0.0,0.0,0.0,0.0,0.0,0.0,0.0,0.0,0.0,0.0,0.0,0.0,0.0,0.0,0.0,0.0,0.0,0.0,0.0,0.0,0.0,0.0,0.0,0.0,0.0,0.0,0.0,0.0,0.0,0.0,0.0,0.0,0.0,0.0,0.0,0.0,0.0,0.0,0.0,0.0,0.0,0.0,0.0,0.0,0.0,0.0,0.0,0.0,0.0,0.0,0.0,0.0,0.0,0.0,0.0,0.0,0.0,0.0,0.0,0.0,0.0,0.0,0.0,0.0,0.0,0.0,0.0,0.0,0.8312,0.78,0.7492,0.7432,0.7569,0.7972,0.8551,0.0,0.0,0.0,0.0,0.0,0.0,0.0,0.0,0.0,0.0,0.0,0.0,0.0,0.0,0.0,0.0,0.0,0.0,0.0,0.0,0.0,0.0,0.0,0.0,0.0,0.0,0.0,0.0,0.0,0.0,0.0,0.0,0.0,0.0,0.0,0.0,0.0,0.0,0.0,0.0,0.0,0.0,0.0,0.0,0.0,0.0,0.0,0.0,0.0,0.0,0.0,0.0,0.0,0.0,0.0,0.0,0.0,0.0,0.0,0.0,0.0,0.0,0.0,0.0,0.0,0.0,0.0,0.0,0.0,0.0,0.0,0.0,0.0,0.0,0.0,0.0,0.0,0.0,0.0,0.0,0.0,0.0,0.0,0.0,0.0,0.0,0.0,0.0,0.0,0.0,0.0,0.0,0.0,0.0,0.0,0.0,0.0,0.0,0.0,0.0,0.0,0.0,0.0,0.0,0.0,0.0,0.0,0.0,0.7154,0.7034,0.6665,0.616,0.6644,0.7257,0.0,0.0,0.0,0.0,0.0,0.0,0.0,0.0,0.0,0.0,0.0,0.0,0.0,0.0,0.0,0.0,0.0,0.0,0.0,0.0,0.0,0.0,0.0,0.0,0.0,0.0,0.0,0.0,0.0,0.0,0.0,0.0,0.0,0.0,0.0,0.0,0.0,0.0,0.0,0.0,0.0,0.0,0.0,0.0,0.0,0.0,0.0,0.0,0.0,0.0,0.0,0.0,0.0,0.0,0.0,0.0,0.0,0.0,0.0,0.0,0.0,0.0,0.0,0.0,0.0,0.0,0.0,0.0,0.0,0.0,0.0,0.0,0.0,0.0,0.0,0.0,0.0,0.0,0.0,0.0,0.0,0.0,0.0,0.0,0.0,0.0,0.0,0.0,0.0,0.0,0.0,0.0,0.0,0.0,0.0,0.0,0.0,0.0,0.0,0.0,0.0,0.0,0.0,0.0,0.0,0.0,0.0,0.0,0.0,0.5393,0.5225,0.5443,0.5929,0.6144,0.6554,0.0,0.0,0.0,0.0,0.0,0.0,0.0,0.0,0.0,0.0,0.0,0.0,0.0,0.0,0.0,0.0,0.0,0.0,0.0,0.0,0.0,0.0,0.0,0.0,0.0,0.0,0.0,0.0,0.0,0.0,0.0,0.0,0.0,0.0,0.0,0.0,0.0,0.0,0.0,0.0,0.0,0.0,0.0,0.0,0.0,0.0,0.0,0.0,0.0,0.0,0.0,0.0,0.0,0.0,0.0,0.0,0.0,0.0,0.0,0.0,0.0,0.0,0.0,0.0,0.0,0.0,0.0,0.0,0.0,0.0,0.0,0.0,0.0,0.0,0.0,0.0,0.0,0.0,0.0,0.0,0.0,0.0,0.0,0.0,0.0,0.0,0.0,0.0,0.0,0.0,0.0,0.0,0.0,0.0,0.0,0.0,0.0,0.0,0.0,0.0,0.0,0.0,0.0,0.0,0.0,0.0,0.0,0.0,0.6627,0.438,0.3839,0.3927,0.4679,0.5139,0.5845,0.0,0.0,0.0,0.0,0.0,0.0,0.0,0.0,0.0,0.0,0.0,0.0,0.0,0.0,0.0,0.0,0.0,0.0,0.0,0.0,0.0,0.0,0.0,0.0,0.0,0.0,0.0,0.0,0.0,0.0,0.0,0.0,0.0,0.0,0.0,0.0,0.0,0.0,0.0,0.0,0.0,0.0,0.0,0.0,0.0,0.0,0.0,0.0,0.0,0.0,0.0,0.0,0.0,0.0,0.0,0.0,0.0,0.0,0.0,0.0,0.0,0.0,0.0,0.0,0.0,0.0,0.0,0.0,0.0,0.0,0.0,0.0,0.0,0.0,0.0,0.0,0.0,0.0,0.0,0.0,0.0,0.0,0.0,0.0,0.0,0.0,0.0,0.0,0.0,0.0,0.0,0.0,0.0,0.0,0.0,0.0,0.0,0.0,0.0,0.0,0.0,0.0,0.0,0.0,0.0,0.0,0.0,0.0,0.6081,0.3828,0.2739,0.2402,0.2854,0.392,0.513,0.0,0.0,0.0,0.0,0.0,0.0,0.0,0.0,0.0,0.0,0.0,0.0,0.0,0.0,0.0,0.0,0.0,0.0,0.0,0.0,0.0,0.0,0.0,0.0,0.0,0.0,0.0,0.0,0.0,0.0,0.0,0.0,0.0,0.0,0.0,0.0,0.0,0.0,0.0,0.0,0.0,0.0,0.0,0.0,0.0,0.0,0.0,0.0,0.0,0.0,0.0,0.0,0.0,0.0,0.0,0.0,0.0,0.0,0.0,0.0,0.0,0.0,0.0,0.0,0.0,0.0,0.0,0.0,0.0,0.0,0.0,0.0,0.0,0.0,0.0,0.0,0.0,0.0,0.0,0.0,0.0,0.0,0.0,0.0,0.0,0.0,0.0,0.0,0.0,0.0,0.0,0.0,0.0,0.0,0.0,0.0,0.0,0.0,0.0,0.0,0.0,0.0,0.0,0.0,0.0,0.0,0.0,0.0,0.463,0.234,0.181,0.1675,0.1813,0.3172,0.4349,0.0,0.0,0.0,0.0,0.0,0.0,0.0,0.0,0.0,0.0,0.0,0.0,0.0,0.0,0.0,0.0,0.0,0.0,0.0,0.0,0.0,0.0,0.0,0.0,0.0,0.0,0.0,0.0,0.0,0.0,0.0,0.0,0.0,0.0,0.0,0.0,0.0,0.0,0.0,0.0,0.0,0.0,0.0,0.0,0.0,0.0,0.0,0.0,0.9793,0.0,0.0,0.0,0.0,0.0,0.0,0.0,0.0,0.0,0.0,0.0,0.0,0.0,0.0,0.0,0.0,0.0,0.0,0.0,0.0,0.0,0.0,0.0,0.0,0.0,0.0,0.0,0.0,0.0,0.0,0.0,0.0,0.0,0.0,0.0,0.0,0.0,0.0,0.0,0.0,0.0,0.0,0.0,0.0,0.0,0.0,0.0,0.0,0.0,0.0,0.0,0.0,0.0,0.0,0.0,0.0,0.0,0.0,0.0,0.3339,0.1415,0.0857,0.0762,0.1082,0.2159,0.3334,0.0,0.0,0.0,0.0,0.0,0.0,0.0,0.0,0.0,0.0,0.0,0.0,0.0,0.0,0.0,0.0,0.0,0.0,0.0,0.0,0.0,0.0,0.0,0.0,0.0,0.0,0.0,0.0,0.0,0.0,0.0,0.0,0.0,0.0,0.0,0.0,0.0,0.0,0.0,0.0,0.0,0.0,0.0,0.0,0.0,0.0,0.0,0.0,0.0,0.0,0.0,0.0,0.0,0.0,0.0,0.0,0.0,0.0,0.0,0.0,0.0,0.0,0.0,0.0,0.0,0.0,0.0,0.0,0.0,0.0,0.0,0.0,0.0,0.0,0.0,0.0,0.0,0.0,0.0,0.0,0.0,0.0,0.0,0.0,0.0,0.0,0.0,0.0,0.0,0.0,0.0,0.0,0.0,0.0,0.0,0.0,0.0,0.0,0.0,0.0,0.0,0.0,0.0,0.0,0.0,0.0,0.0,0.2859,0.2078,0.0726,-0.0028,-0.0117,0.0491,0.1265,0.2362,0.3873,0.0,0.0,0.0,0.0,0.0,0.0,0.0,0.0,0.0,0.0,0.0,0.0,0.0,0.0,0.0,0.0,0.0,0.0,0.0,0.0,0.0,0.0,0.0,0.0,0.0,0.0,0.0,0.0,0.0,0.0,0.0,0.0,0.0,0.0,0.0,0.0,0.0,0.0,0.9279,0.9069,0.0,0.0,0.0,0.0,0.0,0.0,0.0,0.0,0.7187,0.0,0.0,0.0,0.0,0.0,0.0,0.0,0.0,0.0,0.0,0.0,0.0,0.0,0.0,0.0,0.0,0.0,0.0,0.0,0.0,0.0,0.0,0.0,0.0,0.0,0.0,0.0,0.0,0.0,0.0,0.0,0.0,0.0,0.0,0.0,0.0,0.0,0.0,0.0,0.0,0.0,0.0,0.0,0.0,0.0,0.0,0.0,0.0,0.0,0.0,0.0,0.0,0.0,0.0,0.0,0.0,0.2825,0.155,0.0615,0.014,-0.0472,-0.0518,0.0092,0.091,0.1907,0.3073,0.0,0.0,0.0,0.0,0.0,0.0,0.0,0.0,0.0,0.0,0.0,0.0,0.0,0.0,0.0,0.0,0.0,0.0,0.0,0.0,0.0,0.0,0.0,0.0,0.0,0.0,0.0,0.0,0.0,0.0,0.0,0.0,0.0,0.0,0.0,0.0,0.0,0.0,0.0,0.7615,0.7244,0.0,0.0,0.0,0.0,0.0,0.0,0.0,0.0,0.6055,0.0,0.0,0.0,0.0,0.0,0.0,0.0,0.0,0.0,0.0,0.0,0.0,0.0,0.0,0.0,0.0,0.0,0.0,0.0,0.0,0.0,0.0,0.0,0.0,0.0,0.0,0.0,0.0,0.0,0.0,0.0,0.0,0.0,0.0,0.0,0.0,0.0,0.0,0.0,0.0,0.0,0.0,0.0,0.0,0.0,0.0,0.0,0.0,0.0,0.0,0.0,0.0,0.0,0.0,0.0,0.1679,0.0388,-0.0452,-0.0675,-0.0938,-0.0875,-0.0452,0.0509,0.148,0.0,0.0,0.0,0.0,0.0,0.0,0.0,0.0,0.0,0.0,0.0,0.0,0.0,0.0,0.0,0.0,0.0,0.0,0.0,0.0,0.0,0.0,0.0,0.0,0.0,0.0,0.0,0.0,0.0,0.0,0.0,0.0,0.0,0.0,0.0,0.0,0.0,0.0,0.0,0.0,0.5658,0.457,0.2512,0.0,0.0,0.0,0.0,0.0,0.0,0.2652,0.2211,0.0,0.0,0.0,0.0,0.0,0.0,0.0,0.0,0.0,0.0,0.0,0.0,0.0,0.0,0.0,0.0,0.0,0.0,0.0,0.0,0.0,0.0,0.0,0.0,0.0,0.0,0.0,0.0,0.0,0.0,0.0,0.0,0.0,0.0,0.0,0.0,0.0,0.0,0.0,0.0,0.0,0.0,0.0,0.0,0.0,0.0,0.0,0.0,0.0,0.0,0.0,0.0,0.0,0.0,0.0,0.0548,-0.0545,-0.1215,-0.1343,-0.138,-0.1219,-0.0874,0.014,0.1186,0.0,0.0,0.0,0.0,0.0,0.0,0.0,0.0,0.0,0.0,0.0,0.0,0.0,0.0,0.0,0.0,0.0,0.0,0.0,0.0,0.0,0.0,0.0,0.0,0.0,0.0,0.0,0.0,0.0,0.0,0.0,0.0,0.0,0.0,0.0,0.0,0.0,0.0,0.0,0.0,0.0,0.0613,-0.2315,-0.2246,0.0,0.0,0.0,0.0,0.0158,-0.1825,0.0,0.0,0.0,0.0,0.0,0.0,0.0,0.0,0.0,0.0,0.0,0.0,0.0,0.0,0.0,0.0,0.0,0.0,0.0,0.0,0.0,0.0,0.0,0.0,0.0,0.0,0.0,0.0,0.0,0.0,0.0,0.0,0.0,0.0,0.0,0.0,0.0,0.0,0.0,0.0,0.0,0.0,0.0,0.0,0.0,0.0,0.0,0.0,0.0,0.0,0.0,0.0,0.0,0.0,0.0,0.0,-0.0033,-0.1018,-0.1518,-0.1592,-0.1861,-0.1636,-0.084,-0.0067,0.102,0.0,0.0,0.0,0.0,0.0,0.0,0.0,0.0,0.0,0.0,0.0,0.0,0.0,0.0,0.0,0.0,0.0,0.0,0.0,0.0,0.0,0.0,0.0,0.0,0.0,0.0,0.0,0.0,0.0,0.0,0.0,0.0,0.0,0.0,0.0,0.0,0.0,0.0,0.0,0.0,0.0,-0.5516,-0.7703,-0.6617,-0.6144,0.0,0.0,-0.7166,-0.7105,-0.7484,0.0,0.0,0.0,0.0,0.0,0.0,0.0,0.0,0.0,0.0,0.0,0.0,0.0,0.0,0.0,0.0,0.0,0.0,0.0,0.0,0.0,0.0,0.0,0.0,0.0,0.0,0.0,0.0,0.0,0.0,0.0,0.0,0.0,0.0,0.0,0.0,0.0,0.0,0.0,0.0,0.0,0.0,0.0,0.0,0.0,0.0,0.0,0.0,0.0,0.0,0.0,0.0,0.0,0.0,0.0,-0.1854,-0.2696,-0.2775,-0.3189,-0.3917,-0.2971,-0.2073,-0.1276,-0.0517,0.0543,0.0,0.0,0.0,0.0,0.0,0.0,0.0,0.0,0.0,0.0,0.0,0.0,0.0,0.0,0.0,0.0,0.0,0.0,0.0,0.0,0.0,0.0,0.0,0.0,0.0,0.0,0.0,0.0,0.0,0.0,0.0,0.0,0.0,0.0,0.0,0.0,0.0,0.0,0.0,0.0,0.0,0.0,-1.1137,-1.0427,0.0,0.0,0.0,-1.1724,-0.9574,0.0,0.0,0.0,0.0,0.0,0.0,0.0,0.0,0.0,0.0,0.0,0.0,0.0,0.0,0.0,0.0,0.0,0.0,0.0,0.0,0.0,0.0,0.0,0.0,0.0,0.0,0.0,0.0,0.0,0.0,0.0,0.0,0.0,0.0,0.0,0.0,0.0,0.0,0.0,0.0,0.0,0.0,0.0,0.0,0.0,0.0,0.0,0.0,0.0,0.0,0.0,0.0,0.0,0.0,0.0,0.0,0.0,-0.5552,-0.52,-0.5247,-0.5736,-0.4298,-0.2893,-0.164,-0.0975,0.0,0.0,0.0,0.0,0.0,0.0,0.0,0.0,0.0,0.0,0.0,0.0,0.0,0.0,0.0,0.0,0.0,0.0,0.0,0.0,0.0,0.0,0.0,0.0,0.0,0.0,0.0,0.093,0.0,0.0,0.0,0.0,0.0,0.0,0.0,0.0,0.0,0.0,0.0,0.0,0.0,0.0,-1.2215,-1.4673,-1.4006,-1.3722,0.0,0.0,-1.5952,-1.2862,-1.4053,-1.4593,0.0,0.0,0.0,0.0,0.0,0.0,0.0,0.0,0.0,0.0,0.0,0.0,0.0,0.0,0.0,0.0,0.0,0.0,0.0,0.0,0.0,0.0,0.0,0.0,0.0,0.0,0.0,0.0,0.0,0.0,0.0,0.0,0.0,0.0,0.0,0.0,0.0,0.0,0.0,0.0,0.0,0.0,0.0,0.0,0.0,0.0,0.0,0.0,0.0,0.0,0.0,0.0,0.0,0.0,0.0,-0.802,-0.8329,-0.7601,-0.5902,-0.5676,-0.4309,-0.1696,-0.131,-0.038,0.0,0.0,0.0,0.0,0.0,0.0,0.0,0.0,0.0,0.0,0.0,0.0,0.0,0.0,0.0,0.0,0.0,0.0,0.0,0.0,0.0,0.0,0.0,0.0,0.0,0.0,0.0,0.0,0.0,0.0,0.0,0.0,0.0,0.0,0.0,0.0,0.0,0.0,0.0,0.0,0.0,-1.6581,-1.9114,-1.7397,-1.6706,0.0,0.0,-1.8658,-1.9287,-1.9519,-1.9639,-1.9532,0.0,0.0,0.0,0.0,0.0,0.0,0.0,0.0,0.0,0.0,0.0,0.0,0.0,0.0,0.0,0.0,0.0,0.0,0.0,0.0,0.0,0.0,0.0,0.0,0.0,0.0,0.0,0.0,0.0,0.0,0.0,0.0,0.0,0.0,0.0,0.0,0.0,0.0,0.0,0.0,0.0,0.0,0.0,0.0,0.0,0.0,0.0,0.0,0.0,0.0,0.0,0.0,0.0,-0.9558,-1.1269,-1.0581,-1.0001,-0.9505,-0.7223,-0.5191,-0.3548,-0.2165,-0.0652,0.0,0.0,0.0,0.0,0.0,0.0,0.0,0.0,0.0,0.0,0.0,0.0,0.0,0.0,0.0,0.0,0.0,0.0,0.0,0.0,0.0,0.0,0.0,0.0,0.0,0.0,0.0,0.0,-0.3395,-0.3511,-0.5061,0.0,0.0,0.0,0.0,0.0,0.0,0.0,0.0,0.0,0.0,-1.7882,-1.9327,-1.7876,0.0,0.0,-1.9044,-1.8881,-1.9836,-2.0012,-2.0086,-2.0148,-2.027,0.0,0.0,0.0,0.0,0.0,0.0,0.0,0.0,0.0,0.0,0.0,0.0,0.0,0.0,0.0,0.0,0.0,0.0,0.0,0.0,0.0,0.0,0.0,0.0,0.0,0.0,0.0,0.0,0.0,0.0,0.0,0.0,0.0,0.0,0.0,0.0,0.0,0.0,0.0,0.0,0.0,0.0,0.0,0.0,0.0,0.0,0.0,0.0,0.0,0.0,0.0,0.0,-1.1874,-1.3706,-1.2965,-1.2359,-1.1886,-0.8612,-0.617,-0.4704,-0.2683,-0.0817,0.0,0.0,0.0,0.0,0.0,0.0,0.0,0.0,0.0,0.0,0.0,0.0,0.0,0.0,0.0,0.0,0.0,0.0,0.0,0.0,0.0,0.0,0.0,0.0,0.0,0.0,0.0,0.0,-0.7214,-0.7919,-0.965,0.0,0.0,0.0,0.0,0.0,0.0,0.0,0.0,0.0,0.0,-1.8335,-1.913,-1.8133,-1.7822,-1.9253,-1.909,-1.902,-1.9698,-2.0107,-2.0287,-2.0108,0.0,0.0,0.0,0.0,0.0,0.0,0.0,0.0,0.0,0.0,0.0,0.0,0.0,0.0,0.0,0.0,0.0,0.0,0.0,0.0,0.0,0.0,0.0,0.0,0.0,0.0,0.0,0.0,0.0,0.0,-0.5572,0.0,0.0,0.0,0.0,0.0,0.0,0.0,0.0,0.0,0.0,0.0,0.0,0.0,0.0,0.0,0.0,0.0,0.0,0.0,0.0,0.0,0.0,-1.4175,-1.4958,-1.5567,-1.461,-1.1927,-0.9762,-0.7368,-0.4795,-0.2683,-0.0836,0.077,0.0,0.0,0.0,0.0,0.0,0.0,0.0,0.0,0.0,0.0,0.0,0.0,0.0,0.0,0.0,0.0,0.0,0.0,0.0,0.0,0.0,0.0,0.0,0.0,0.0,0.0,-0.6617,-1.0357,-1.3178,0.0,0.0,0.0,0.0,0.0,0.0,0.0,0.0,0.0,0.0,-1.8427,-1.8209,-1.9057,-1.8492,-1.8237,-1.9073,-1.9329,-1.9431,-1.9587,-2.0427,-2.0831,0.0,0.0,0.0,0.0,0.0,0.0,0.0,0.0,0.0,0.0,0.0,0.0,0.0,0.0,0.0,0.0,0.0,0.0,0.0,0.0,0.0,0.0,0.0,0.0,0.0,0.0,0.0,-0.9038,-0.8262,0.0,0.0,0.0,0.0,0.0,0.0,0.0,0.0,0.0,0.0,0.0,-1.2611,-1.2376,0.0,0.0,0.0,0.0,0.0,0.0,0.0,0.0,0.0,0.0,0.0,0.0,-1.539,-1.5951,-1.6064,-1.4477,-1.1194,-0.9484,-0.7631,-0.5515,-0.2747,-0.04,0.1405,0.0,0.0,0.0,0.0,0.0,0.0,0.0,0.0,0.0,0.0,0.0,0.0,0.0,0.0,0.0,0.0,0.0,0.0,0.0,0.0,0.0,0.0,0.0,0.0,0.0,-0.6434,0.0,0.0,0.0,0.0,0.0,0.0,0.0,0.0,0.0,0.0,0.0,-1.8912,-1.9134,-1.8312,-1.8031,-1.8943,-1.8381,-1.8145,0.0,0.0,0.0,0.0,0.0,0.0,0.0,0.0,0.0,0.0,0.0,0.0,0.0,0.0,-2.285,-2.2823,-2.2588,-2.2358,-2.2301,0.0,0.0,0.0,0.0,0.0,0.0,0.0,0.0,0.0,0.0,0.0,0.0,0.0,0.0,-1.0478,0.0,-0.9925,0.0,0.0,0.0,0.0,0.0,0.0,0.0,0.0,-1.3863,-1.418,-1.3937,-1.4143,-1.3872,0.0,-1.3423,-1.3141,0.0,0.0,0.0,0.0,0.0,0.0,0.0,0.0,-1.5486,-1.5913,-1.6016,-1.4433,-1.1229,-0.9943,-0.8233,-0.593,-0.2475,0.0067,0.1573,0.2073,0.2397,0.0,0.0,0.0,0.0,0.0,0.0,0.0,0.0,0.0,0.0,0.0,0.0,0.0,0.0,0.0,0.0,0.0,0.0,0.0,0.0,0.0,0.0,0.0,-0.8529,0.0,0.0,0.0,0.0,0.0,0.0,0.0,0.0,0.0,-1.8895,-1.8699,-1.8643,-1.8948,-1.8395,-1.8199,-1.8877,0.0,0.0,0.0,0.0,0.0,0.0,0.0,-2.0622,-2.0364,-2.0333,-2.0291,-2.0127,-2.0785,-2.134,-2.1388,0.0,0.0,-2.2738,-2.2479,-2.2326,-2.2524,-2.2362,-2.242,-2.3214,-2.2924,-2.2848,0.0,0.0,0.0,0.0,0.0,0.0,0.0,0.0,-0.9708,-1.0082,0.0,-1.0874,0.0,0.0,0.0,0.0,0.0,-1.2523,0.0,0.0,-1.3672,-1.3587,-1.2908,-1.3587,-1.3636,-1.3118,-1.375,-1.4107,-1.4161,-1.2738,0.0,0.0,0.0,0.0,0.0,0.0,-1.4632,-1.4923,-1.5545,-1.4481,-1.1654,-1.0976,-0.9093,-0.5732,-0.187,0.0535,0.1271,0.194,0.2242,0.2114,0.297,0.0,0.0,0.0,0.0,0.0,0.0,0.0,0.0,0.0,0.0,0.0,0.0,0.0,0.0,0.0,0.0,0.0,0.0,0.0,0.0,-1.0498,0.0,0.0,0.0,0.0,0.0,0.0,0.0,0.0,0.0,0.0,-1.8544,-1.8368,-1.829,-1.8584,0.0,0.0,0.0,0.0,-1.8806,-1.8806,-1.8914,-1.9037,-1.9142,-1.9941,-2.0283,-1.9523,0.0,0.0,-2.0172,-2.0663,-2.1153,-2.1309,-2.1844,-2.2417,-2.2443,-2.1962,-2.1752,-2.2186,-2.1782,-2.1505,-2.2045,-2.2276,-2.2257,-1.5171,0.0,0.0,0.0,0.0,-1.2921,-1.2938,-1.2839,-1.3154,-1.2957,-1.242,-1.2687,0.0,0.0,0.0,0.0,0.0,0.0,-1.379,-1.3796,-1.3935,-1.36,-1.288,-1.3089,-1.2841,-1.2196,-1.2405,-1.2525,-1.2541,-1.2126,-1.2277,-1.2901,0.0,0.0,0.0,0.0,-1.4737,-1.4766,-1.5038,-1.2855,-0.8094,-0.9779,-0.8026,-0.2491,-0.055,0.0611,0.1,0.1709,0.2145,0.2242,0.2573,0.0,0.0,0.0,0.0,0.0,0.0,0.0,0.0,0.0,0.0,0.0,0.0,0.0,0.0,0.0,0.0,0.0,0.0,0.0,-1.269,-1.364,-1.3958,0.0,0.0,0.0,0.0,0.0,0.0,0.0,0.0,0.0,-1.8078,-1.8035,-1.8121,0.0,0.0,-1.86,-1.8788,-1.8806,-1.8806,-1.8806,-1.8878,0.0,0.0,-1.9611,-1.9449,-1.9277,-1.917,-1.9182,-1.962,-1.9851,-1.9987,-2.0039,-2.0251,-2.0457,-2.0496,-2.135,-2.1966,-2.2116,-2.1971,-2.1891,-2.2089,-2.2178,-2.2159,-1.6657,-1.5919,-1.5382,-1.5116,-1.5024,-1.4927,-1.4502,-1.3895,-1.4379,-1.3885,-1.2802,-1.3485,-1.3428,-1.279,-1.285,0.0,0.0,0.0,-1.4159,-1.4163,-1.3644,-1.3045,-1.234,-1.2295,-1.1937,-1.1316,-1.1609,-1.1815,-1.1873,-1.189,-1.2352,-1.3238,0.0,0.0,-1.3794,-1.4435,-1.4756,-1.4747,-1.4875,-1.2441,-0.7403,-0.702,-0.4891,-0.0819,0.0059,0.0573,0.0906,0.1599,0.2012,0.2044,0.2383,0.251,0.0,0.0,0.0,0.0,0.0,0.0,0.0,0.0,0.0,0.0,0.0,-0.5324,-0.6822,0.0,0.0,0.0,-1.3661,-1.4404,-1.4541,-1.5218,0.0,0.0,0.0,0.0,0.0,0.0,0.0,-1.7967,-1.7562,-1.7378,-1.7676,-1.7221,-1.722,-1.8194,-1.8044,-1.7999,-1.8491,0.0,-1.8234,-1.8215,-1.8324,-1.8484,-1.8627,-1.8351,-1.8138,-1.8276,-1.7987,-1.8059,-1.8854,-1.9035,-1.9146,-1.9425,-1.9532,-1.9536,-1.9481,-2.0354,-2.1045,-2.1034,-2.102,-2.1001,-2.0971,-2.099,-2.1005,-1.7136,-1.7034,-1.6484,-1.6237,-1.6146,-1.5541,-1.4472,-1.317,-1.4023,-1.3479,-1.2154,-1.3563,-1.4132,-1.4026,-1.415,0.0,-1.4201,-1.4123,-1.4087,-1.4046,-1.3061,-1.2168,-1.1438,-1.1343,-1.0977,-1.0412,-1.1157,-1.1595,-1.1739,-1.1721,-1.217,-1.3057,-1.3159,-1.3647,-1.4485,-1.4651,-1.4746,-1.4803,-1.487,-1.2777,-0.8422,-0.3666,-0.0823,-0.0138,0.0194,0.0557,0.0931,0.1609,0.1851,0.1649,0.2285,0.2513,0.232,0.0,0.0,0.0,0.0,0.0,0.0,0.0,0.0,0.0,0.0,0.0,0.0,0.0,0.0,0.0,-1.5624,0.0,-1.5859,-1.5757,0.0,0.0,0.0,-1.6308,-1.6168,-1.7072,-1.771,-1.762,0.0,0.0,-1.724,-1.6243,-1.6084,-1.7645,-1.7262,-1.7103,-1.7994,-1.7741,-1.7415,-1.7464,-1.756,-1.7465,-1.7175,-1.6915,-1.6827,-1.6986,-1.6872,-1.7256,-1.8101,-1.8406,-1.8697,-1.9314,-1.9476,-1.9434,-1.9305,-1.9363,-1.9323,-1.9457,-1.9435,-1.9408,-1.9358,-1.9344,-1.9378,-1.7593,-1.7023,-1.6872,-1.6605,-1.6198,-1.5469,-1.5009,-1.4765,-1.4412,-1.4108,-1.3888,-1.4211,-1.4301,-1.4229,-1.4168,-1.4177,-1.4263,-1.4091,-1.4054,-1.4046,-1.3133,-1.2262,-1.1544,-1.0919,-1.023,-0.9562,-0.9693,-0.9809,-0.9875,-1.0004,-1.0466,-1.1252,-1.201,-1.3156,-1.4614,-1.4727,-1.4813,-1.4871,-1.4397,-1.2233,-0.8303,-0.393,-0.0956,0.0462,0.0929,0.1142,0.114,0.1527,0.179,0.184,0.2065,0.2147,0.2078,0.2197,0.0,0.0,0.0,0.0,0.0,0.0,0.0,0.0,0.0,-0.9241,-1.0138,0.0,-1.1549,0.0,-1.6506,-1.6719,-1.6506,-1.695,0.0,0.0,-1.7559,-1.758,-1.6675,-1.6791,-1.6703,-1.5979,-1.6198,-1.6238,-1.5878,-1.6503,-1.6924,-1.6814,-1.6771,-1.687,-1.7245,-1.7685,-1.7934,-1.7864,-1.7565,-1.7522,-1.7861,-1.7281,-1.6682,-1.6737,-1.6751,-1.7038,-1.7851,-1.8507,-1.8982,-1.9164,-1.92,-1.9184,-1.9152,-1.9153,-1.9152,-1.9168,-1.9186,-1.917,-1.912,-1.9135,-1.9134,-1.7397,-1.6984,-1.6657,-1.6182,-1.5607,-1.528,-1.5041,-1.4824,-1.4494,-1.4132,-1.3865,-1.408,-1.4172,-1.4159,-1.4123,-1.4136,-1.419,-1.4082,-1.4072,-1.4028,-1.2794,-1.1985,-1.1558,-1.046,-0.9675,-0.9189,-0.9181,-0.9216,-0.9298,-0.9394,-0.987,-1.0702,-1.1634,-1.2778,-1.408,-1.457,-1.4634,-1.4262,-1.1995,-0.9761,-0.7495,-0.3466,-0.0758,0.0404,0.1164,0.1518,0.1442,0.1671,0.1809,0.1903,0.1986,0.1978,0.1876,0.1717,0.1656,0.0,0.0,0.0,0.0,0.0,0.0,0.0,0.0,0.0,0.0,0.0,-1.3817,-1.6429,-1.7132,-1.7343,-1.7204,-1.775,-1.8039,-1.7912,-1.8066,-1.7906,-1.7279,-1.6812,-1.6373,-1.5861,-1.5591,-1.5541,-1.5778,-1.5939,-1.6171,-1.6376,-1.6519,-1.6728,-1.7122,-1.7399,-1.7462,-1.7428,-1.7262,-1.7122,-1.7374,-1.6817,-1.6415,-1.6478,-1.6543,-1.6859,-1.7747,-1.8254,-1.867,-1.9013,-1.9104,-1.907,-1.8984,-1.8967,-1.8949,-1.8843,-1.8825,-1.8878,-1.8949,-1.8966,-1.8948,-1.6812,-1.6674,-1.6036,-1.5349,-1.4708,-1.4914,-1.4688,-1.418,-1.4441,-1.4017,-1.3183,-1.3718,-1.3955,-1.4005,-1.4072,-1.4086,-1.41,-1.41,-1.41,-1.3979,-1.2378,-1.1605,-1.1523,-1.0026,-0.9284,-0.9236,-0.9236,-0.9301,-0.9394,-0.9421,-0.9888,-1.0785,-1.1672,-1.2483,-1.3254,-1.427,-1.4343,-1.3363,-0.9321,-0.7021,-0.6536,-0.3094,-0.0828,0.0089,0.121,0.1777,0.1747,0.1851,0.1915,0.1931,0.1996,0.1921,0.1661,0.1188,0.1015,0.0,-0.2355,0.0,0.0,0.0,0.0,0.0,0.0,0.0,0.0,-1.5961,-1.6742,-1.7182,-1.7632,-1.7904,-1.7891,-1.8214,-1.8445,-1.8406,-1.8035,-1.7755,-1.7614,-1.6837,-1.6221,-1.6138,-1.5056,-1.4861,-1.5882,-1.5213,-1.5193,-1.6265,-1.6559,-1.6841,-1.7323,-1.7149,-1.6889,-1.6728,-1.6942,-1.6949,-1.6209,-1.6094,-1.622,-1.6237,-1.6427,-1.6808,-1.7635,-1.7938,-1.8225,-1.8821,-1.9002,-1.8949,-1.8788,-1.8787,-1.8714,-1.8544,-1.8524,-1.86,-1.8714,-1.8769,-1.8677,-1.5779,-1.5193,-1.5072,-1.4604,-1.4001,-1.4029,-1.3985,-1.3927,-1.4624,-1.4524,-1.3899,-1.402,-1.406,-1.4068,-1.3991,-1.4005,-1.41,-1.404,-1.4012,-1.3959,-1.2403,-1.1653,-1.1506,-1.0009,-0.9312,-0.9358,-0.9403,-0.9421,-0.9394,-0.9491,-0.9968,-1.0731,-1.1635,-1.2216,-1.2493,0.0,0.0,0.0,-0.9958,-0.7645,-0.6002,-0.4828,-0.285,-0.0088,0.116,0.0,0.1862,0.1921,0.2011,0.2044,0.184,0.0,0.0,0.0,0.0,0.0,0.0,0.0,0.0,0.0,0.0,0.0,-1.5466,-1.5637,-1.5196,-1.6819,-1.7895,-1.787,-1.8246,-1.8484,-1.8389,-1.8226,-1.8125,-1.7949,-1.7856,-1.7524,-1.6759,-1.5977,-1.5292,-1.4675,-1.4874,-1.4944,-1.4804,-1.5889,-1.6679,-1.6481,-1.6918,-1.7316,-1.7441,-1.7372,-1.7329,-1.7336,-1.7496,-1.7198,-1.5923,-1.6436,-1.6741,-1.6396,-1.6729,-1.717,-1.7453,-1.8002,-1.8373,-1.862,-1.8601,-1.862,-1.8563,-1.8561,-1.8524,-1.8487,-1.8485,-1.8505,-1.8561,-1.8544,-1.8544,-1.5176,0.0,-1.4381,-1.4015,0.0,-1.4131,-1.4061,-1.3748,-1.4687,-1.4962,-1.4701,-1.4298,-1.4119,-1.4145,-1.4058,-1.403,-1.41,-1.4044,-1.4012,-1.3952,-1.2373,-1.1836,-1.2136,-1.0592,-1.0107,-1.0479,-1.0529,-1.056,-1.0583,-1.0625,-1.0882,-1.1349,-1.2271,-1.2771,-1.2826,-1.3804,-1.3774,-1.2713,-0.9031,-0.6549,-0.5406,-0.3639,-0.1767,0.0266,0.0,0.0,0.0,0.0,0.0,0.0,0.0,0.0,0.0,0.0,0.0,-0.1385,-0.4359,-0.7275,-0.9918,-1.2113,-1.3867,-1.5095,-1.5754,-1.6281,-1.6621,-1.7975,-1.8728,-1.8554,-1.8628,-1.8604,-1.8508,-1.817,-1.7927,-1.7811,-1.7715,-1.7432,-1.6918,-1.5885,-1.514,-1.4994,-1.4616,-1.4422,-1.4837,-1.5708,-1.65,-1.6532,-1.6807,-1.7075,-1.71,-1.733,-1.7498,-1.7498,-1.7599,-1.7446,-1.6833,-1.6995,-1.735,-1.7144,-1.7416,-1.772,-1.785,-1.8222,-1.8485,-1.8485,-1.8485,-1.8465,-1.8348,-1.831,-1.8211,-1.804,-1.7954,-1.7893,-1.7827,-1.8044,-1.827,-1.4605,-1.452,-1.3832,-1.3605,-1.3705,-1.4329,-1.4328,-1.3877,0.0,0.0,0.0,-1.4395,-1.4123,-1.418,-1.4091,-1.41,-1.41,-1.3998,-1.4016,-1.4015,-1.2494,-1.2121,-1.2701,-1.1341,-1.0983,-1.1563,-1.1593,-1.1665,-1.1763,-1.1745,-1.1888,-1.2243,-1.301,-1.3449,-1.3644,-1.3624,-1.3385,-1.2719,-0.8058,-0.5244,-0.4611,-0.1775,0.0069,0.0753,0.1121,0.14,0.1565,0.1876,0.184,0.1422,0.109,0.09,0.0818,0.0241,-0.1117,-0.3392,-0.6391,-0.8665,-1.0066,-1.3344,-1.5293,-1.5287,-1.5687,-1.6608,-1.8192,-1.8728,-1.9002,-1.9018,-1.8679,-1.8432,-1.8375,-1.7997,-1.7721,-1.7658,-1.7396,-1.7228,-1.7042,-1.5723,-1.4923,-1.5365,-1.4454,-1.4059,-1.5278,-1.5666,-1.5893,-1.6439,-1.6617,-1.6502,-1.6533,-1.6928,-1.7306,-1.7289,-1.7289,-1.7305,-1.7337,-1.7358,-1.7555,-1.7708,-1.7851,-1.8082,-1.8287,-1.8263,-1.8246,-1.8328,-1.8278,-1.8031,-1.7971,-1.7919,-1.7788,-1.7392,-1.7337,-1.7264,-1.7117,-1.7492,-1.7832,-1.3599,-1.3679,-1.3495,-1.3591,-1.3859,-1.3852,-1.42,-1.4751,-1.4289,-1.4132,-1.4168,-1.4066,-1.404,-1.4109,-1.404,-1.404,-1.4082,-1.3909,-1.3894,0.0,-1.2941,-1.255,-1.267,-1.1839,-1.1475,-1.1509,-1.157,-1.1612,-1.1647,-1.1797,-1.2227,-1.2898,-1.3201,-1.3763,-1.4438,-1.3442,-1.317,-1.3685,-0.8662,-0.5144,-0.3386,-0.0978,0.0522,0.0991,0.1051,0.1311,0.1836,0.1587,0.1523,0.1685,0.1217,0.0816,0.057,-0.1542,-0.3023,-0.3601,-0.8016,-1.0576,-1.0232,-1.3299,-1.5454,-1.5959,-1.6007,-1.6637,-1.813,-1.7972,-1.8021,-1.8627,-1.8217,-1.7905,-1.7883,-1.7658,-1.7401,-1.7069,-1.6588,-1.6135,-1.5895,-1.4626,-1.404,-1.4663,-1.4521,-1.4554,-1.5336,-1.5957,-1.6302,-1.6538,-1.6343,-1.6334,-1.5902,-1.6305,-1.668,-1.6727,-1.6727,-1.6763,-1.6756,-1.6885,-1.6987,-1.7432,-1.7426,-1.7434,-1.7674,-1.7314,-1.7177,-1.7752,-1.7163,-1.6914,-1.7276,-1.7313,-1.7117,-1.6954,-1.697,-1.6978,-1.6862,-1.702,-1.7199,-1.3429,-1.3445,-1.3396,-1.3479,-1.3625,-1.356,-1.3812,-1.4265,-1.3951,-1.4084,-1.4476,-1.4207,-1.403,-1.3987,-1.3984,-1.4012,-1.4058,-1.3938,-1.397,-1.3973,-1.3112,-1.2961,-1.3306,-1.2578,-1.2411,-1.2766,-1.2739,-1.2834,-1.3007,-1.3075,-1.3371,-1.3851,-1.4029,-1.4401,-1.4882,-1.4349,-1.3568,-1.2471,-0.8321,-0.5701,-0.4751,-0.1188,0.0893,0.1186,0.1307,0.141,0.1572,0.1538,0.1367,0.1056,0.1,0.0181,-0.1552,-0.279,-0.4733,-0.7554,-1.0005,-1.2091,-1.3743,-1.5124,-1.5771,-1.546,-1.5239,-1.561,-1.6761,-1.7056,-1.7275,-1.7486,-1.7402,-1.7189,-1.6829,-1.7059,-1.6889,-1.5996,-1.5814,-1.5583,-1.5058,-1.4081,-1.3681,-1.4397,-1.4146,-1.4191,-1.503,-1.5416,-1.5623,-1.5608,-1.5384,-1.4944,-1.447,-1.4539,-1.4882,-1.538,-1.5494,-1.5542,-1.5647,-1.5639,-1.5782,-1.603,-1.6036,-1.6104,-1.6254,-1.5944,-1.5961,-1.6177,-1.5852,-1.5775,-1.6098,-1.6007,-1.6014,-1.6232,-1.6255,-1.6205,-1.6079,-1.6013,-1.6335,-1.2839,-1.2839,-1.2873,-1.2973,-1.3192,-1.3361,-1.3527,-1.3667,-1.3682,-1.4045,-1.4562,-1.4235,-1.4016,-1.3915,-1.3959,-1.3973,-1.3927,-1.3897,-1.3912,-1.387,-1.3229,-1.3268,-1.3725,-1.2987,-1.2938,-1.3459,-1.3281,-1.3365,-1.3748,-1.3801,-1.4028,-1.4398,-1.4492,-1.4583,-1.4718,-1.4458,-1.3222,-1.0939,-0.7447,-0.5565,-0.5395,-0.1269,0.1072,0.1375,0.1444,0.1496,0.144,0.1426,0.1136,0.0574,0.0195,-0.1078,-0.3376,-0.4859,-0.733,-1.0966,-1.2162,-1.3806,-1.6448,-1.6385,-1.5826,-1.5123,-1.4655,-1.4654,-1.5215,-1.5846,-1.6287,-1.6367,-1.6495,-1.6336,-1.5911,-1.6099,-1.6024,-1.4979,-1.5003,-1.4874,-1.4342,-1.3582,-1.344,-1.4222,-1.3832,-1.3799,-1.4532,-1.4668,-1.4546,-1.4306,-1.388,-1.3431,-1.3043,-1.2779,-1.302,-1.3476,-1.3961,-1.4279,-1.4343,-1.4366,-1.4476,-1.4604,-1.4713,-1.486,-1.4895,-1.4816,-1.4745,-1.4881,-1.4702,-1.4652,-1.4738,-1.4751,-1.4852,-1.5077,-1.5137,-1.5112,-1.4909,-1.4878,-1.5343,-1.0989,-1.1124,-1.1239,-1.1709,-1.2521,-1.3217,-1.3539,-1.3536,-1.3588,-1.3592,-1.361,-1.3903,-1.3966,-1.3987,-1.3897,-1.3809,-1.3717,-1.3592,-1.3527,-1.3476,-1.331,-1.3326,-1.3354,-1.2689,-1.2407,-1.247,-1.1843,-1.2009,-1.2739,-1.2832,-1.3351,-1.415,-1.3789,-1.3568,-1.3508,-1.2394,-1.1176,-1.0062,-0.5911,-0.366,-0.3336,-0.0664,0.107,0.1655,0.117,0.1234,0.1852,0.1038,0.0684,0.0779,-0.1585,-0.3179,-0.4068,-0.8721,-1.1682,-1.1607,-1.4331,-1.6276,-1.6309,-1.5521,-1.5309,-1.5679,-1.4925,-1.4368,-1.423,-1.426,-1.4783,-1.5523,-1.5544,-1.53,-1.5119,-1.4986,-1.4774,-1.4288,-1.4114,-1.3755,-1.3469,-1.3084,-1.3094,-1.3784,-1.3697,-1.3978,-1.439,-1.4109,-1.3582,-1.2883,-1.2562,-1.2167,-1.1683,-1.1494,-1.1281,-1.1267,-1.2029,-1.302,-1.3208,-1.3324,-1.3365,-1.3743,-1.3931,-1.3944,-1.396,-1.3769,-1.3624,-1.3742,-1.3627,-1.3344,-1.3743,-1.4014,-1.3755,-1.3815,-1.388,-1.3885,-1.3834,-1.3753,-1.4268,-1.0591,-1.0669,-1.0685,-1.0926,-1.1365,-1.2058,-1.2223,-1.2024,-1.2353,-1.2334,-1.2163,-1.2213,-1.2739,-1.3603,-1.3173,-1.3162,-1.3493,-1.3429,-1.3395,-1.3394,-1.3361,-1.3156,-1.2791,-1.2474,-1.2114,-1.1692,-1.1304,-1.1605,-1.233,-1.2599,-1.2995,-1.3454,-1.2953,-1.2667,-1.2749,-1.2318,-1.0664,-0.7744,-0.5824,-0.3535,-0.0874,0.047,0.125,0.155,0.1602,0.1753,0.1945,0.1319,0.0253,-0.1216,-0.2741,-0.4945,-0.8038,-1.0573,-1.2481,-1.3638,-1.5407,-1.6168,-1.5456,-1.5507,-1.5451,-1.5125,-1.4574,-1.4139,-1.3853,-1.3678,-1.3683,-1.3766,-1.4222,-1.4315,-1.3792,-1.4217,-1.4292,-1.3534,-1.3554,-1.3527,-1.2844,-1.265,-1.2701,-1.2944,-1.2975,-1.293,-1.2839,-1.2323,-1.1708,-1.1172,-1.089,-1.0537,-1.015,-0.9973,-0.9753,-0.9605,-1.01,-1.0768,-1.1397,-1.1548,-1.1688,-1.1834,-1.1917,-1.2048,-1.2191,-1.21,-1.1968,-1.2332,-1.1992,-1.1826,-1.2004,-1.2144,-1.2056,-1.2324,-1.2553,-1.2567,-1.2479,-1.2255,-1.2536,-0.9875,-0.9813,-0.9955,-1.0081,-1.0192,-1.0841,-1.1009,-1.084,-1.1205,-1.1204,-1.092,-1.0644,-1.1361,-1.2573,-1.2353,-1.2537,-1.3075,-1.2924,-1.2824,-1.2807,-1.2657,-1.2288,-1.1835,-1.1536,-1.1229,-1.0778,-1.0444,-1.0818,-1.1647,-1.1863,-1.2154,-1.2441,-1.2,-1.177,-1.1794,-1.1312,-0.9151,-0.5905,-0.4673,-0.2314,0.0655,0.1325,0.1492,0.1648,0.2003,0.2139,0.1978,0.1453,-0.0025,-0.2538,-0.3893,-0.6547,-1.0707,-1.2142,-1.3676,-1.5329,-1.5862,-1.5788,-1.5132,-1.5498,-1.5434,-1.4745,-1.4283,-1.3832,-1.347,-1.3177,-1.2718,-1.2184,-1.2895,-1.3126,-1.2738,-1.3421,-1.3522,-1.2621,-1.2969,-1.2957,-1.2334,-1.2225,-1.2121,-1.1952,-1.1879,-1.1636,-1.0955,-1.0258,-0.9627,-0.9233,-0.8872,-0.8592,-0.8406,-0.8182,-0.8042,-0.807,-0.807,-0.8634,-0.9652,-1.0021,-1.002,-1.012,-1.0285,-1.0436,-1.0379,-1.0476,-1.0586,-1.1118,-1.0691,-1.0578,-1.0827,-1.0724,-1.051,-1.0932,-1.1081,-1.0977,-1.0834,-1.0584,-1.0687,-0.8325,-0.8094,-0.8697,-0.9095,-0.922,-0.9997,-1.0347,-1.0399,-1.0543,-1.043,-1.0112,-0.9608,-1.0048,-1.1166,-1.1529,-1.2086,-1.2418,-1.1927,-1.1583,-1.1374,-1.0891,-1.0524,-1.0337,-0.9687,-0.9482,-0.9603,-0.9023,-0.916,-1.0015,-1.0084,-1.0488,-1.1296,-1.0947,-1.0793,-1.049,-0.8178,-0.5892,-0.4493,-0.1677,0.0538,0.1132,0.1619,0.1932,0.2047,0.2128,0.2071,0.1738,0.1168,-0.0068,-0.1937,-0.5252,-0.8137,-1.0337,-1.3965,-1.6026,-1.6133,-1.5547,-1.535,-1.5579,-1.5163,-1.4851,-1.493,-1.4173,-1.3421,-1.2795,-1.2444,-1.1933,-1.1201,-1.1579,-1.1816,-1.1785,-1.2306,-1.2465,-1.2113,-1.1945,-1.1883,-1.1798,-1.1547,-1.135,-1.0783,-1.0473,-0.9959,-0.8942,-0.8296,-0.7713,-0.7193,-0.6653,-0.6337,-0.6389,-0.6313,-0.6283,-0.6283,-0.6402,-0.6845,-0.8376,-0.8677,-0.8824,-0.9035,-0.9145,-0.9444,-0.9664,-0.9818,-0.9894,-0.9932,-0.9779,-0.9728,-0.9818,-0.9715,-0.9496,-0.9487,-0.9289,-0.9155,-0.9197,-0.9081,-0.9158,-0.852,-0.8291,-0.8665,-0.8874,-0.9001,-0.9783,-0.9798,-0.9263,-0.955,-0.9223,-0.8557,-0.8228,-0.8517,-0.9253,-0.9451,-1.0266,-1.1423,-1.099,-1.0521,-1.0139,-1.0206,-0.9914,-0.9288,-0.9204,-0.8908,-0.8496,-0.8181,-0.8371,-0.9001,-0.9228,-0.9527,-0.9845,-0.9732,-0.9655,-0.9332,-0.7705,-0.5719,-0.3628,-0.128,0.0693,0.2433,0.3093,0.3281,0.3023,0.2561,0.2222,0.2004,0.1611,-0.0348,-0.4153,-0.5712,-0.8062,-1.142,-1.3226,-1.426,-1.4471,-1.4248,-1.4269,-1.4634,-1.4496,-1.4229,-1.4001,-1.3494,-1.28,-1.214,-1.1531,-1.0925,-1.0371,-1.0232,-1.0298,-1.0402,-1.1247,-1.1871,-1.1516,-1.1211,-1.081,-1.0469,-1.0026,-0.9472,-0.8803,-0.8178,-0.7373,-0.6804,-0.6103,-0.5578,-0.5363,-0.5157,-0.5002,-0.5009,-0.5009,-0.494,-0.5009,-0.504,-0.5219,-0.5725,-0.666,-0.7175,-0.7588,-0.7855,-0.794,-0.8098,-0.8282,-0.8382,-0.8388,-0.8437,-0.8382,-0.8278,-0.814,-0.7983,-0.7888,-0.7663,-0.7415,-0.7625,-0.7301,-0.7463,-0.7881,-0.7788,-0.7973,-0.8131,-0.8297,-0.8917,-0.8824,-0.8239,-0.8409,-0.8031,-0.7347,-0.7118,-0.7324,-0.7694,-0.765,-0.8191,-0.9398,-0.9478,-0.9284,-0.8883,-0.9025,-0.8674,-0.8068,-0.8172,-0.7968,-0.7472,-0.7399,-0.7509,-0.7715,-0.804,-0.8046,-0.7797,-0.7768,-0.7378,-0.6606,-0.5272,-0.3409,-0.1288,0.0501,0.2349,0.3991,0.4603,0.4742,0.4352,0.3625,0.2886,0.228,0.1385,-0.0946,-0.4764,-0.625,-0.8594,-1.2181,-1.2655,-1.2878,-1.3332,-1.3429,-1.35,-1.3689,-1.3701,-1.3411,-1.2855,-1.2354,-1.179,-1.1153,-1.0328,-0.9578,-0.9081,-0.8721,-0.8499,-0.8323,-0.906,-0.9917,-1.004,-0.9676,-0.9133,-0.862,-0.8009,-0.73,-0.652,-0.5551,-0.4859,-0.451,-0.3849,-0.3469,-0.3392,-0.3223,-0.3123,-0.3199,-0.3231,-0.3304,-0.3373,-0.3341,-0.3401,-0.367,-0.415,-0.5178,-0.571,-0.6296,-0.6381,-0.6495,-0.6686,-0.6795,-0.6825,-0.6795,-0.6737,-0.6657,-0.6478,-0.6351,-0.6245,-0.5853,-0.5485,-0.5506,-0.5392,-0.5429,-0.62,-0.635,-0.645,-0.6835,-0.717,-0.7472,-0.7485,-0.7499,-0.7226,-0.6876,-0.6448,-0.6331,-0.6385,-0.6679,-0.6379,-0.6297,-0.6539,-0.7338,-0.7656,-0.7469,-0.7084,-0.6693,-0.6318,-0.6369,-0.6344,-0.6158,-0.6319,-0.6142,-0.5738,-0.6108,-0.5933,-0.5144,-0.5195,-0.4366,-0.1851,-0.0846,0.1004,0.2509,0.4038,0.53,0.5801,0.5997,0.607,0.5986,0.532,0.4242,0.261,0.0754,-0.1251,-0.4102,-0.6809,-0.9843,-1.1848,-1.2257,-1.255,-1.2891,-1.307,-1.3002,-1.2906,-1.2721,-1.2263,-1.1525,-1.0927,-1.0255,-0.9554,-0.862,-0.7814,-0.7348,-0.6846,-0.6353,-0.5645,-0.5669,-0.6428,-0.776,-0.7289,-0.6563,-0.6157,-0.5782,-0.5132,-0.4038,-0.2989,-0.2452,-0.2243,-0.1744,-0.1311,-0.1213,-0.0918,-0.0689,-0.0953,-0.1019,-0.1028,-0.1232,-0.1493,-0.1685,-0.1656,-0.1725,-0.2816,-0.3765,-0.4437,-0.4815,-0.4921,-0.5093,-0.5134,-0.5127,-0.4955,-0.487,-0.4624,-0.445,-0.4289,-0.4133,-0.3768,-0.3542,-0.3474,-0.3371,-0.3114,-0.6303,-0.6134,-0.6436,-0.6733,-0.7017,-0.7269,-0.7108,-0.6655,-0.6489,-0.5958,-0.5244,-0.5087,-0.502,-0.4883,-0.4762,-0.4606,-0.446,-0.4823,-0.5,-0.5078,-0.5297,-0.5174,-0.4823,-0.4942,-0.4812,-0.4359,-0.3935,-0.3609,-0.3483,-0.3842,-0.3705,-0.3185,-0.3133,-0.2714,-0.1452,0.0168,0.1887,0.3333,0.4853,0.6092,0.7053,0.7232,0.7268,0.7241,0.7024,0.6415,0.5451,0.3848,0.1865,-0.0502,-0.2693,-0.5892,-0.9365,-1.0003,-1.0176,-1.0912,-1.0625,-1.067,-1.1132,-1.107,-1.0591,-0.9752,-0.8909,-0.8082,-0.7191,-0.6104,-0.5318,-0.4909,-0.4223,-0.3621,-0.3513,-0.2767,-0.3336,-0.5438,-0.4967,-0.4182,-0.3555,-0.2688,-0.1671,-0.0941,-0.0464,-0.0131,0.0229,0.0624,0.0623,0.0656,0.0887,0.0953,0.0855,0.0626,0.0495,0.0364,0.0166,-0.0067,-0.01,-0.0133,-0.0691,-0.1631,-0.2366,-0.3039,-0.3238,-0.3338,-0.3388,-0.3344,-0.315,-0.2924,-0.268,-0.246,-0.2296,-0.2138,-0.1913,-0.1754,-0.1594,-0.1329,-0.1033,-0.5157,-0.5037,-0.5351,-0.5565,-0.5734,-0.5959,-0.5736,-0.5168,-0.5005,-0.4509,-0.3928,-0.3638,-0.342,-0.3239,-0.3125,-0.282,-0.2455,-0.245,-0.2337,-0.2452,-0.3625,-0.3761,-0.3246,-0.3273,-0.2936,-0.2358,-0.2045,-0.1681,-0.1273,-0.1685,-0.1551,-0.0859,-0.0789,0.0029,0.1152,0.2478,0.3906,0.5455,0.6608,0.7518,0.8222,0.8402,0.8432,0.8437,0.8475,0.814,0.7413,0.6298,0.4358,0.1516,-0.1049,-0.4127,-0.7123,-0.706,-0.7225,-0.7841,-0.7762,-0.7661,-0.8189,-0.8025,-0.7748,-0.6881,-0.6163,-0.5476,-0.4661,-0.3654,-0.2979,-0.2607,-0.1802,-0.1149,-0.087,-0.0199,-0.0335,-0.1392,-0.1832,-0.1605,-0.0918,-0.0033,0.0626,0.1022,0.1286,0.1617,0.1882,0.224,0.2273,0.224,0.2401,0.2371,0.2273,0.2014,0.1882,0.1718,0.1526,0.1396,0.1329,0.1331,0.1298,0.0563,-0.0231,-0.0919,-0.1378,-0.1509,-0.157,-0.1434,-0.1237,-0.0975,-0.0718,-0.0523,-0.036,-0.0197,0.0033,0.0359,0.0683,0.091,0.1198,-0.3021,-0.3181,-0.3403,-0.3482,-0.3459,-0.3649,-0.3578,-0.3262,-0.2885,-0.2679,-0.2471,-0.2009,-0.1755,-0.1696,-0.1411,-0.0971,-0.0426,-0.0339,-0.0021,-0.0062,-0.1188,-0.1876,-0.1502,-0.117,-0.064,-0.0136,-0.0346,-0.0096,0.0668,0.0352,0.0684,0.1754,0.1944,0.3272,0.5147,0.6078,0.6673,0.8172,0.8817,0.8987,0.9244,0.9368,0.9393,0.9376,0.9434,0.9135,0.8379,0.7579,0.5459,0.1571,-0.1158,-0.2833,-0.3886,-0.3917,-0.419,-0.4789,-0.4545,-0.4536,-0.4497,-0.4549,-0.4099,-0.358,-0.3026,-0.2459,-0.2215,-0.1393,-0.0738,-0.0416,0.0357,0.1211,0.1863,0.232,0.2596,0.3082,0.1648,0.1122,0.1611,0.1971,0.23,0.2433,0.2613,0.2889,0.3045,0.3468,0.3566,0.3542,0.3797,0.376,0.3533,0.3334,0.3147,0.2984,0.2845,0.2652,0.258,0.2518,0.2488,0.1994,0.1357,0.0859,0.0364,0.0231,0.0298,0.0429,0.0626,0.0892,0.1189,0.135,0.1642,0.193,0.2258,0.2664,0.2852,0.293,0.3123,-0.171,-0.1546,-0.173,-0.1845,-0.1882,-0.1932,-0.1824,-0.1598,-0.1293,-0.0956,-0.0605,-0.0282,-0.0064,0.0108,0.0446,0.0724,0.0942,0.1293,0.1671,0.2018,0.1797,0.1111,0.0955,0.142,0.182,0.2062,0.2137,0.2669,0.3023,0.273,0.3122,0.3921,0.4107,0.4911,0.62,0.6311,0.7095,0.8375,0.8205,0.8545,0.9282,0.9413,0.942,0.9438,0.945,0.9343,0.898,0.7982,0.5889,0.279,0.2129,0.0534,-0.1507,-0.1626,-0.1664,-0.1985,-0.192,-0.1927,-0.2107,-0.1978,-0.1646,-0.1088,-0.0437,0.0095,0.0797,0.1453,0.1953,0.2308,0.2777,0.3139,0.3433,0.379,0.4258,0.4638,0.3812,0.3167,0.3341,0.3639,0.4002,0.4316,0.4587,0.4694,0.4859,0.5042,0.5136,0.4928,0.4966,0.5061,0.4764,0.4573,0.4402,0.4343,0.421,0.3958,0.3769,0.3742,0.3584,0.3225,0.2787,0.2416,0.2016,0.1817,0.2016,0.2246,0.2368,0.2603,0.2968,0.3228,0.3626,0.3676,0.3837,0.3928,0.4394,0.4628,0.4772,-0.0396,-0.0219,-0.0217,-0.02,-0.0162,-0.0186,0.0,0.0255,0.0416,0.0702,0.1069,0.1381,0.1573,0.173,0.2118,0.237,0.2489,0.2884,0.3218,0.3522,0.384,0.3431,0.29,0.3208,0.3532,0.3665,0.3686,0.3816,0.4029,0.4012,0.4257,0.4684,0.5125,0.5731,0.6624,0.6696,0.7133,0.806,0.811,0.8489,0.9058,0.9179,0.9233,0.9233,0.9206,0.9081,0.8502,0.7797,0.6318,0.4493,0.3949,0.3125,0.1463,0.1251,0.125,0.1021,0.1361,0.1454,0.1332,0.1409,0.174,0.2139,0.2537,0.2814,0.3261,0.3743,0.4072,0.4029,0.4506,0.479,0.5023,0.5366,0.5776,0.606,0.5754,0.5363,0.5097,0.5204,0.5473,0.5752,0.5891,0.596,0.6121,0.6267,0.6175,0.6021,0.5967,0.5967,0.5867,0.5743,0.5557,0.5394,0.53,0.501,0.4795,0.4706,0.4732,0.4381,0.421,0.3842,0.3366,0.3167,0.3302,0.3529,0.3931,0.4226,0.4387,0.4477,0.4535,0.465,0.4872,0.5217,0.5683,0.596,0.6151,0.1039,0.1015,0.125,0.1441,0.1582,0.1586,0.1695,0.2017,0.2125,0.225,0.2455,0.2851,0.295,0.3066,0.3427,0.3816,0.4034,0.4215,0.4566,0.4886,0.5203,0.4982,0.4276,0.4212,0.4536,0.4744,0.4175,0.4218,0.4457,0.4239,0.4365,0.4896,0.5112,0.5835,0.6617,0.6885,0.7255,0.7911,0.8129,0.8404,0.8734,0.8897,0.8979,0.899,0.8979,0.8532,0.7957,0.7581,0.7021,0.5745,0.5149,0.4691,0.4333,0.4373,0.4277,0.4147,0.4208,0.4392,0.4796,0.48,0.5256,0.5178,0.5199,0.5455,0.5246,0.5418,0.551,0.5514,0.5891,0.6257,0.6523,0.6999,0.7227,0.7345,0.755,0.7462,0.7032,0.6743,0.6661,0.6764,0.6652,0.6661,0.6721,0.6841,0.688,0.6548,0.6617,0.6579,0.6518,0.6419,0.6297,0.6175,0.6083,0.5991,0.5813,0.5665,0.5681,0.5605,0.556,0.5235,0.4492,0.4268,0.4375,0.4605,0.4947,0.5143,0.5174,0.5307,0.5408,0.5842,0.6238,0.6546,0.6833,0.6973,0.7159,0.319,0.3053,0.2832,0.2881,0.3019,0.2935,0.2858,0.2832,0.3329,0.3454,0.3508,0.3825,0.3976,0.4017,0.4412,0.4639,0.4768,0.5155,0.5609,0.5939,0.604,0.6165,0.5771,0.5426,0.5425,0.5579,0.4982,0.4899,0.5175,0.5023,0.5006,0.5122,0.5282,0.586,0.6635,0.6131,0.6516,0.7899,0.7588,0.7712,0.8502,0.8658,0.8715,0.8748,0.8764,0.855,0.8186,0.8028,0.7709,0.7097,0.6486,0.6045,0.5971,0.5774,0.5628,0.5549,0.5344,0.5368,0.5698,0.6224,0.656,0.6321,0.6362,0.6416,0.6789,0.6819,0.7055,0.7308,0.7579,0.7608,0.7685,0.8029,0.8181,0.8277,0.8484,0.8651,0.8501,0.7925,0.7472,0.7393,0.7413,0.7413,0.7373,0.7472,0.7413,0.7157,0.7098,0.7098,0.7098,0.7098,0.6969,0.682,0.679,0.6661,0.6488,0.6374,0.6427,0.6529,0.6607,0.6419,0.5667,0.555,0.5673,0.5826,0.5975,0.6075,0.6073,0.6215,0.6362,0.6976,0.7509,0.769,0.7832,0.7988,0.8357,0.4095,0.4238,0.4163,0.4162,0.4196,0.4119,0.3972,0.3848,0.4114,0.4268,0.4317,0.4637,0.4824,0.4854,0.5223,0.5403,0.5497,0.5804,0.6195,0.6493,0.6591,0.6672,0.6678,0.6199,0.5969,0.6076,0.5825,0.57,0.5542,0.527,0.5079,0.5302,0.5213,0.5522,0.6284,0.5773,0.6111,0.6813,0.6833,0.703,0.7873,0.8075,0.8294,0.8465,0.8504,0.8399,0.8185,0.8022,0.7811,0.7516,0.7157,0.6914,0.6881,0.6596,0.6423,0.6396,0.6332,0.6202,0.6543,0.7086,0.7494,0.7335,0.7501,0.7713,0.7934,0.8019,0.8029,0.8171,0.8294,0.8518,0.8529,0.864,0.8789,0.8844,0.9085,0.9247,0.9124,0.8662,0.8344,0.8326,0.8344,0.8344,0.8315,0.8231,0.8117,0.7945,0.7888,0.7888,0.7734,0.7705,0.754,0.7452,0.7423,0.7305,0.7127,0.7038,0.7068,0.7227,0.7415,0.7154,0.6643,0.6791,0.7061,0.6995,0.6821,0.6939,0.6998,0.7144,0.7274,0.7465,0.7861,0.8407,0.8778,0.8797,0.9364,0.4697,0.5268,0.5385,0.5324,0.5183,0.5239,0.5002,0.463,0.4896,0.4997,0.4952,0.5309,0.5442,0.5537,0.5778,0.5979,0.6081,0.6224,0.6517,0.674,0.6811,0.6891,0.6887,0.6642,0.632,0.6071,0.6038,0.595,0.563,0.515,0.5121,0.5263,0.5016,0.5174,0.5645,0.5899,0.6068,0.6289,0.6676,0.7096,0.7615,0.7753,0.7988,0.8233,0.8371,0.8322,0.8176,0.7996,0.7796,0.7665,0.741,0.7318,0.7225,0.6996,0.6885,0.7026,0.7094,0.7231,0.7467,0.7969,0.8417,0.8415,0.8703,0.8876,0.8844,0.886,0.8805,0.8767,0.8887,0.9128,0.9139,0.9209,0.9182,0.9209,0.9487,0.9552,0.942,0.9274,0.9262,0.9097,0.8949,0.8855,0.8921,0.8894,0.8839,0.8767,0.8712,0.86,0.8414,0.8244,0.8052,0.7927,0.7869,0.7792,0.7608,0.752,0.7588,0.7742,0.8016,0.7816,0.757,0.7925,0.8073,0.7711,0.7608,0.7786,0.8038,0.8251,0.8262,0.8109,0.8468,0.9256,0.9525,0.9563,1.0205,0.6565,0.6786,0.6538,0.622,0.5957,0.6374,0.5913,0.5093,0.6031,0.6035,0.5447,0.5715,0.5933,0.5948,0.5943,0.6099,0.6308,0.6528,0.6662,0.6817,0.6906,0.704,0.7018,0.7085,0.6883,0.6366,0.614,0.6043,0.6082,0.5778,0.5389,0.494,0.48,0.4996,0.5179,0.5361,0.599,0.6592,0.7017,0.7499,0.8022,0.822,0.8172,0.8306,0.8358,0.8361,0.8227,0.8121,0.8039,0.7998,0.7695,0.765,0.7635,0.7393,0.739,0.7619,0.7716,0.7894,0.8351,0.8955,0.9205,0.9191,0.92,0.9328,0.9381,0.9422,0.9437,0.9542,0.9595,0.975,0.9738,0.979,0.9802,0.9816,0.9893,1.0046,1.0059,1.0034,0.9867,0.9593,0.9408,0.9328,0.9408,0.9408,0.9274,0.9139,0.9003,0.8921,0.8767,0.8628,0.8477,0.8365,0.8262,0.8176,0.8062,0.8043,0.8035,0.8099,0.8269,0.8317,0.8335,0.8906,0.9003,0.8608,0.8616,0.8868,0.9101,0.9301,0.9552,0.9593,0.9899,1.0162,1.0309,1.0433,1.0379,0.7042,0.7462,0.7451,0.7253,0.7097,0.7474,0.7166,0.649,0.7008,0.706,0.6703,0.6594,0.6571,0.6538,0.6361,0.6511,0.6822,0.6939,0.7116,0.7309,0.742,0.7378,0.7288,0.7437,0.7312,0.7056,0.6757,0.6499,0.6582,0.6486,0.5952,0.5415,0.5083,0.4981,0.5133,0.5263,0.5896,0.6756,0.7079,0.7439,0.8132,0.8318,0.8393,0.828,0.8293,0.8296,0.8135,0.8121,0.8039,0.7984,0.7841,0.787,0.787,0.7827,0.7785,0.8142,0.8176,0.8314,0.8848,0.9309,0.9506,0.9367,0.9603,0.9841,0.9905,0.9944,1.0008,1.0021,1.0148,1.0186,1.0173,1.0298,1.0373,1.0361,1.0398,1.0496,1.0594,1.0632,1.0422,1.011,1.016,1.011,0.9944,0.9867,0.9698,0.9514,0.9354,0.922,0.9112,0.8949,0.8811,0.8673,0.8572,0.846,0.8407,0.8442,0.8506,0.8597,0.8808,0.8859,0.8992,0.9559,0.9657,0.9456,0.9612,0.9918,1.0068,1.0239,1.0654,1.0975,1.0734,1.0691,1.1074,1.1231,1.11,0.7335,0.7888,0.8153,0.8177,0.8079,0.8452,0.8215,0.7817,0.7908,0.7872,0.772,0.747,0.7376,0.734,0.7149,0.7145,0.7516,0.7433,0.7439,0.7624,0.773,0.7743,0.7767,0.7647,0.7633,0.7793,0.7533,0.7417,0.7108,0.7068,0.6752,0.6209,0.5581,0.5368,0.5492,0.5811,0.6165,0.6505,0.6921,0.7284,0.777,0.8232,0.8409,0.8189,0.8282,0.8229,0.8026,0.8068,0.8026,0.7971,0.7914,0.7927,0.8012,0.7941,0.8139,0.8541,0.8442,0.8609,0.9077,0.9359,0.9718,0.9862,1.0224,1.032,1.0398,1.0422,1.0485,1.0348,1.0436,1.0534,1.0534,1.0681,1.0753,1.0753,1.0777,1.0873,1.0944,1.1015,1.1118,1.1001,1.1038,1.0835,1.057,1.0422,1.0248,1.0097,0.9906,0.9699,0.9569,0.9262,0.9101,0.8949,0.8839,0.8739,0.8722,0.8836,0.8956,0.9123,0.9519,0.982,0.9926,1.0118,1.0178,1.0308,1.0617,1.0889,1.1012,1.1123,1.1503,1.1557,1.1186,1.1166,1.1491,1.1576,1.1419,0.814,0.8516,0.8773,0.8692,0.8477,0.9072,0.874,0.7944,0.8605,0.8541,0.8101,0.8141,0.8279,0.8292,0.8056,0.7978,0.7861,0.7601,0.7454,0.7629,0.7623,0.789,0.8101,0.776,0.8098,0.8304,0.8032,0.7753,0.7606,0.7606,0.7309,0.6798,0.6697,0.6561,0.6275,0.6879,0.7279,0.7502,0.8027,0.8349,0.8371,0.8522,0.846,0.8374,0.8358,0.8348,0.8139,0.8152,0.8066,0.7941,0.7914,0.7914,0.7928,0.7914,0.8274,0.8584,0.8728,0.8887,0.9668,0.9925,1.014,1.0486,1.0699,1.0715,1.0787,1.0801,1.0801,1.0825,1.0849,1.0863,1.0849,1.0944,1.0944,1.0968,1.1038,1.1132,1.1224,1.1233,1.137,1.1549,1.1482,1.1279,1.1048,1.093,1.0801,1.0643,1.0472,1.0235,1.0008,0.9699,0.9396,0.9262,0.9101,0.9003,0.9073,0.9164,0.9421,0.9631,1.0109,1.0631,1.0741,1.0818,1.1069,1.1251,1.1536,1.1663,1.1607,1.1815,1.2247,1.2211,1.1915,1.184,1.1868,1.1829,1.1761,0.886,0.8828,0.9166,0.9198,0.9072,0.951,0.9427,0.9108,0.9355,0.9367,0.9081,0.8965,0.8961,0.8894,0.8666,0.8597,0.851,0.8227,0.8196,0.8117,0.8083,0.8313,0.8734,0.8501,0.852,0.8857,0.8614,0.8323,0.8193,0.796,0.7646,0.7555,0.7561,0.7516,0.7357,0.8195,0.8294,0.8294,0.8383,0.851,0.845,0.8454,0.8415,0.829,0.8441,0.8377,0.8305,0.8311,0.8269,0.8149,0.8096,0.8121,0.8135,0.8114,0.8243,0.8973,0.8484,0.8889,1.0056,1.044,1.0756,1.0982,1.1048,1.1127,1.1187,1.1108,1.1029,1.1005,1.1132,1.1187,1.1224,1.1324,1.1324,1.1347,1.1316,1.1392,1.1482,1.1482,1.1557,1.1768,1.1876,1.1659,1.1437,1.1256,1.1071,1.0897,1.0715,1.0521,1.036,1.0185,0.988,0.9607,0.9449,0.9289,0.9384,0.9503,0.9896,1.0175,1.0626,1.107,1.1329,1.1501,1.1699,1.1908,1.2072,1.2142,1.2118,1.2247,1.2472,1.2614,1.2697,1.2515,1.2307,1.2205,1.2225,0.9396,0.9262,0.9502,0.9595,0.9607,0.9828,0.9867,0.9893,0.9945,0.9957,0.9907,0.9806,0.968,0.9522,0.9466,0.9395,0.9321,0.9163,0.9166,0.9062,0.8964,0.9099,0.9383,0.9249,0.9191,0.9817,0.9162,0.8903,0.8796,0.8597,0.8393,0.8229,0.8455,0.8545,0.8817,0.9152,0.93,0.8802,0.9011,0.8998,0.8778,0.869,0.8666,0.8589,0.853,0.8441,0.8377,0.8447,0.8438,0.8309,0.8229,0.8269,0.8306,0.8439,0.8647,0.9234,0.9081,0.9657,1.0401,1.0766,1.106,1.1246,1.137,1.1468,1.1468,1.1324,1.127,1.1316,1.1392,1.1482,1.1541,1.1615,1.1615,1.1615,1.1637,1.1703,1.179,1.185,1.1921,1.203,1.2107,1.1997,1.1768,1.1527,1.1324,1.1132,1.0968,1.0801,1.0643,1.0521,1.0324,1.0008,0.9892,0.9735,0.9761,0.9941,1.0321,1.0783,1.1244,1.1594,1.1931,1.2083,1.2213,1.2425,1.252,1.2484,1.2365,1.2531,1.2661,1.2494,1.2468,1.2719,1.2702,1.261,1.2703,0.9633,0.9854,0.9841,0.9854,0.9854,0.988,0.988,0.9944,1.016,1.0135,1.0046,1.0343,1.0647,1.0717,1.0449,1.0318,1.0296,0.9802,0.9653,0.9581,0.958,0.9802,1.0015,0.9986,0.9812,1.0262,0.9812,0.9544,0.9537,0.9504,0.911,0.88,0.9334,0.969,0.9811,0.9869,0.9891,0.9605,0.9841,0.9883,0.9606,0.9458,0.9398,0.9221,0.8831,0.845,0.8338,0.864,0.8776,0.8645,0.8427,0.8616,0.8797,0.8986,0.932,0.9748,1.0239,1.0737,1.1218,1.0851,1.0643,1.1311,1.1747,1.1725,1.1703,1.1747,1.1725,1.1659,1.1681,1.1703,1.174,1.1768,1.1768,1.1747,1.1747,1.179,1.1979,1.2322,1.2375,1.2379,1.2374,1.2365,1.2123,1.1918,1.1593,1.137,1.1224,1.1062,1.0849,1.0705,1.0612,1.0427,1.0352,1.0212,1.0131,1.0495,1.1161,1.1587,1.1971,1.2321,1.2659,1.272,1.2544,1.2591,1.2627,1.2614,1.2613,1.2707,1.2634,1.2263,1.2319,1.2842,1.3151,1.3133,1.3329,0.9828,0.988,0.988,0.988,0.988,0.988,1.0008,1.0135,1.026,1.0373,1.0398,1.0777,1.0991,1.1047,1.1152,1.0871,1.0517,1.0285,1.0175,0.9986,0.9928,1.0253,1.0494,1.0625,1.0479,1.0828,1.0479,1.024,1.0323,1.0284,1.0234,1.0169,1.0277,1.0322,1.0402,1.0376,1.0306,1.0487,1.0444,1.0288,1.0161,0.9985,0.9622,0.8734,0.9846,0.9628,0.959,0.9842,0.9908,0.9719,0.9091,0.9286,0.9725,0.9927,1.0252,1.0688,1.1217,1.1518,1.2069,1.1614,1.1631,1.1646,1.1876,1.1841,1.1901,1.1805,1.1805,1.1805,1.1826,1.1826,1.1805,1.1805,1.1805,1.1805,1.1833,1.1897,1.2188,1.2583,1.2785,1.2776,1.2871,1.2936,1.2618,1.2271,1.1961,1.1637,1.1497,1.1388,1.1409,1.134,1.1383,1.1236,1.1121,1.1137,1.1067,1.1554,1.2084,1.2334,1.2606,1.2778,1.2943,1.2838,1.2697,1.2709,1.2661,1.2577,1.2622,1.274,1.2677,1.247,1.2759,1.3259,1.3459,1.356,1.386,0.988,0.988,0.988,0.9944,1.0021,1.0021,1.016,1.0422,1.0508,1.0691,1.0944,1.1062,1.1169,1.1247,1.137,1.1278,1.0944,1.0813,1.0799,1.0668,1.0587,1.0747,1.1053,1.1169,1.1017,1.1329,1.1154,1.0877,1.0961,1.0982,1.0937,1.0917,1.0982,1.0967,1.0986,1.0879,1.0961,1.1275,1.1215,1.1029,1.1064,1.1117,1.0857,0.9889,1.0559,1.0865,1.0946,1.1222,1.1433,1.1234,1.0902,1.0737,1.1101,1.1466,1.1662,1.1971,1.2261,1.235,1.2787,1.2779,1.2624,1.247,1.2259,1.2193,1.2081,1.1925,1.1805,1.1826,1.1826,1.1826,1.1826,1.1854,1.1918,1.194,1.2102,1.22,1.2598,1.2971,1.3111,1.3187,1.3439,1.3855,1.3775,1.3498,1.3249,1.3023,1.3047,1.2991,1.2981,1.2838,1.2644,1.2397,1.2075,1.2115,1.2175,1.2402,1.2589,1.2552,1.2784,1.2861,1.2943,1.2885,1.278,1.2709,1.2637,1.2527,1.2702,1.2985,1.2933,1.2784,1.3158,1.356,1.3674,1.3801,1.4193,0.9905,0.988,0.9893,1.0072,1.0285,1.031,1.0409,1.0667,1.0944,1.1169,1.133,1.1224,1.1224,1.1399,1.1444,1.1416,1.1387,1.1373,1.1373,1.1271,1.1184,1.1387,1.1431,1.1416,1.1344,1.146,1.1373,1.1322,1.1432,1.1388,1.1424,1.1505,1.152,1.1615,1.1753,1.1961,1.2128,1.2262,1.2246,1.2356,1.2646,1.2759,1.2405,1.2127,1.1965,1.2217,1.2316,1.2665,1.2891,1.2885,1.2703,1.2654,1.2918,1.3381,1.3658,1.3892,1.4539,1.4644,1.4386,1.3577,1.3208,1.3016,1.2746,1.2546,1.2531,1.2238,1.1833,1.1876,1.1826,1.1826,1.1854,1.1961,1.2024,1.2164,1.2307,1.2706,1.3102,1.4163,1.4469,1.4659,1.4783,1.4956,1.4975,1.4876,1.463,1.4538,1.4617,1.4591,1.4502,1.4216,1.3916,1.3585,1.3248,1.3286,1.3315,1.3063,1.3056,1.3013,1.3128,1.3416,1.3263,1.3109,1.2992,1.2792,1.2743,1.2763,1.302,1.3348,1.3327,1.3377,1.3444,1.3715,1.3841,1.412,1.4587,0.9995,1.016,1.016,1.0434,1.075,1.0421,1.0434,1.0753,1.1146,1.133,1.127,1.1307,1.1285,1.1293,1.1421,1.1504,1.1504,1.1504,1.1504,1.1504,1.1504,1.1504,1.1518,1.1547,1.1533,1.1504,1.1504,1.16,1.1637,1.163,1.1615,1.1696,1.2052,1.2357,1.2302,1.2454,1.2712,1.3152,1.3199,1.3308,1.394,1.3937,1.3807,1.3599,1.3665,1.3726,1.3739,1.4108,1.4406,1.4476,1.4294,1.4178,1.4344,1.4725,1.4559,1.4828,1.5276,1.4957,1.4533,1.4004,1.3913,1.3563,1.3057,1.2722,1.2546,1.2255,1.2039,1.2043,1.2085,1.2076,1.1988,1.2045,1.2164,1.2368,1.2645,1.3272,1.3994,1.5582,1.6489,1.6577,1.6677,1.6764,1.6791,1.6912,1.6717,1.6609,1.6718,1.6022,1.5738,1.5379,1.5064,1.4761,1.4509,1.4544,1.4498,1.4187,1.4397,1.4668,1.454,1.4443,1.415,1.3632,1.3283,1.3198,1.3094,1.306,1.3449,1.3814,1.3952,1.4047,1.4173,1.4299,1.4486,1.4823,1.523,1.0431,1.0586,1.0739,1.0843,1.091,1.0691,1.0739,1.1029,1.133,1.1399,1.1293,1.1421,1.1436,1.133,1.1399,1.1504,1.1504,1.1504,1.1504,1.1504,1.1504,1.1504,1.1547,1.1707,1.1707,1.1663,1.1722,1.1826,1.1623,1.1659,1.1725,1.1931,1.244,1.2743,1.2938,1.3388,1.3883,1.4225,1.4201,1.3984,1.4476,1.4679,1.455,1.4529,1.4709,1.5058,1.5272,1.5594,1.5918,1.5813,1.5707,1.5487,1.5707,1.5702,1.5553,1.5923,1.5636,1.5305,1.4842,1.397,1.3852,1.3958,1.3219,1.2867,1.2799,1.2749,1.2692,1.2644,1.262,1.2787,1.2888,1.2863,1.2868,1.3103,1.3622,1.4277,1.4989,1.6584,1.7599,1.7774,1.8243,1.8368,1.865,1.891,1.8958,1.8925,1.888,1.7966,1.713,1.6892,1.6488,1.6051,1.5657,1.5533,1.546,1.5245,1.5605,1.6263,1.5956,1.5488,1.4902,1.4353,1.3955,1.3586,1.351,1.3587,1.399,1.4322,1.4559,1.4809,1.5026,1.5121,1.5216,1.5517,1.5909,1.1161,1.1215,1.1574,1.1403,1.0927,1.121,1.1381,1.151,1.1518,1.1533,1.1562,1.1583,1.1603,1.1583,1.1605,1.1722,1.178,1.1751,1.178,1.1751,1.1911,1.1794,1.1949,1.2202,1.2197,1.2062,1.2076,1.226,1.1724,1.1991,1.2097,1.2296,1.2749,1.3375,1.4054,1.4578,1.501,1.5066,1.4966,1.4712,1.4897,1.4846,1.4772,1.4775,1.4957,1.5576,1.6017,1.6571,1.6919,1.7056,1.7193,1.7266,1.7349,1.7392,1.7399,1.706,1.6254,1.5577,1.4932,1.3896,1.3619,1.3795,1.3686,1.3458,1.3431,1.35,1.3574,1.3679,1.3772,1.4155,1.4406,1.4245,1.4131,1.4532,1.4981,1.5534,1.6033,1.7044,1.8021,1.8675,1.9353,1.9744,2.0174,2.0515,2.0343,2.0467,2.0286,1.9984,1.9245,1.8874,1.8359,1.743,1.7013,1.6498,1.6362,1.6417,1.671,1.7355,1.683,1.6318,1.5716,1.5134,1.4829,1.4466,1.4059,1.4177,1.4756,1.5095,1.5289,1.5558,1.5868,1.5861,1.5923,1.6241,1.6576,1.2307,1.2457,1.2578,1.2639,1.2653,1.2675,1.252,1.212,1.1699,1.1707,1.2149,1.2149,1.2105,1.2178,1.2613,1.2769,1.2812,1.2856,1.2885,1.2812,1.2638,1.277,1.2897,1.2965,1.2965,1.2943,1.2954,1.2987,1.2881,1.2883,1.3386,1.4061,1.3755,1.4488,1.5051,1.5542,1.5519,1.5527,1.535,1.5185,1.4648,1.4271,1.4435,1.4775,1.4993,1.5654,1.6246,1.6509,1.6799,1.7269,1.6934,1.6752,1.6719,1.6271,1.5906,1.5851,1.5291,1.4767,1.4417,1.3635,1.3222,1.3576,1.3756,1.4005,1.4072,1.4281,1.4514,1.4669,1.4802,1.5076,1.5192,1.5092,1.531,1.5846,1.6293,1.6739,1.7342,1.8385,1.9329,2.0009,2.0671,2.0737,2.1251,2.1301,2.1176,2.154,2.1582,2.1252,2.0892,2.0384,1.9634,1.8642,1.817,1.7602,1.7726,1.7831,1.8083,1.8289,1.7755,1.7178,1.6481,1.6,1.5689,1.5421,1.5135,1.5275,1.5658,1.5915,1.6023,1.6487,1.6789,1.6687,1.6681,1.7048,1.7402,1.3065,1.3305,1.3458,1.3595,1.3702,1.3496,1.3237,1.3005,1.2236,1.2192,1.2729,1.2487,1.2555,1.2831,1.3161,1.3321,1.3307,1.3263,1.3278,1.3263,1.3467,1.3308,1.3403,1.3633,1.3534,1.3581,1.3579,1.3598,1.354,1.3528,1.3897,1.4308,1.4597,1.5077,1.5271,1.5019,1.4852,1.5064,1.5198,1.5135,1.4484,1.3678,1.4054,1.4648,1.4927,1.5359,1.5906,1.6022,1.6304,1.6603,1.6072,1.5989,1.5956,1.5541,1.5077,1.5023,1.4701,1.4199,1.3793,1.3439,1.316,1.3361,1.4029,1.4523,1.4883,1.5166,1.5386,1.5594,1.5739,1.5857,1.5827,1.5879,1.6512,1.7127,1.7541,1.7955,1.8932,2.0009,2.0771,2.145,2.1681,2.1648,2.1748,2.1781,2.1781,2.1768,2.1708,2.1507,2.1195,2.0815,2.0048,1.9146,1.8936,1.8664,1.8854,1.8856,1.8876,1.8905,1.8812,1.818,1.7383,1.6957,1.6725,1.648,1.6236,1.6387,1.6473,1.6607,1.6807,1.7174,1.7483,1.7497,1.7624,1.8036,1.8425,1.3643,1.3952,1.4227,1.4356,1.4311,1.3859,1.3918,1.4224,1.3121,1.2903,1.3292,1.286,1.299,1.3452,1.3729,1.3801,1.3859,1.3874,1.3889,1.3569,1.3816,1.3853,1.3967,1.4074,1.4183,1.3983,1.3982,1.4239,1.3799,1.3894,1.4116,1.4031,1.4303,1.4821,1.5211,1.468,1.4599,1.4905,1.4896,1.4738,1.4252,1.3708,1.3549,1.4242,1.4526,1.4758,1.5292,1.5442,1.5429,1.5475,1.5359,1.5429,1.5027,1.4944,1.4559,1.4344,1.4076,1.3778,1.3415,1.3147,1.3248,1.3665,1.4463,1.5077,1.5503,1.6028,1.6336,1.6452,1.6558,1.6689,1.6687,1.6891,1.7384,1.8104,1.8684,1.923,2.0058,2.0837,2.1284,2.1781,2.1781,2.1781,2.1781,2.1781,2.1781,2.1781,2.1768,2.1648,2.1433,2.1103,2.0511,1.9747,1.9663,1.9546,1.9397,1.9368,1.9351,1.9375,1.9367,1.8796,1.7754,1.7646,1.7811,1.7484,1.712,1.7116,1.718,1.7263,1.7322,1.7529,1.7803,1.8115,1.8473,1.8907,1.9169,1.4857,1.4947,1.5007,1.5066,1.5052,1.4906,1.4906,1.4993,1.4211,1.3919,1.4036,1.3934,1.3905,1.4094,1.4515,1.4674,1.4718,1.4573,1.4805,1.4732,1.4689,1.4558,1.4746,1.4805,1.4892,1.4964,1.4964,1.4906,1.4732,1.4804,1.4949,1.5147,1.5167,1.5362,1.5446,1.49,1.4993,1.5059,1.496,1.4693,1.4251,1.4338,1.4449,1.4828,1.506,1.5309,1.574,1.6039,1.6437,1.6768,1.5757,1.4861,1.3731,1.3714,1.3599,1.3433,1.3532,1.34,1.3251,1.32,1.3416,1.3996,1.4778,1.5475,1.6138,1.6835,1.7193,1.7243,1.7309,1.7432,1.7607,1.7855,1.8269,1.9031,1.976,2.0406,2.1052,2.1416,2.1764,2.1781,2.1781,2.1781,2.1781,2.1781,2.1781,2.1781,2.1781,2.1708,2.1573,2.1309,2.1055,2.0462,2.0492,2.036,2.01,1.9885,1.9806,1.9622,1.9564,1.8903,1.8112,1.7911,1.7826,1.8063,1.7984,1.7871,1.7751,1.7742,1.7838,1.799,1.818,1.8541,1.9141,1.9617,1.9778,1.5162,1.5283,1.5298,1.5298,1.5298,1.5298,1.5298,1.524,1.4921,1.4761,1.4674,1.4485,1.4456,1.4674,1.5168,1.5298,1.5298,1.5284,1.5182,1.5255,1.5298,1.524,1.5298,1.5298,1.521,1.5298,1.5313,1.5314,1.5403,1.5418,1.5463,1.5639,1.5752,1.5851,1.5749,1.5688,1.5615,1.5428,1.5354,1.5086,1.4686,1.4941,1.4981,1.5263,1.5408,1.5674,1.5674,1.5923,1.6122,1.6304,1.5591,1.5193,1.4463,1.4363,1.4013,1.3781,1.3648,1.3466,1.3367,1.3483,1.3814,1.4427,1.5288,1.6072,1.6304,1.6918,1.7349,1.7415,1.7415,1.7498,1.7955,1.8269,1.8998,1.9793,2.0224,2.0737,2.1234,2.1632,2.1781,2.1781,2.1781,2.1781,2.1781,2.1781,2.1781,2.1781,2.1781,2.1738,2.1603,2.1497,2.123,2.1006,2.0909,2.0827,2.0536,2.0353,2.0265,2.0085,1.9782,1.9415,1.8865,1.8147,1.7826,1.8266,1.8498,1.8451,1.8349,1.824,1.8307,1.8416,1.8684,1.8954,1.9609,2.0135,2.022,1.507,1.5268,1.5298,1.5298,1.5298,1.5298,1.5298,1.5298,1.5284,1.5284,1.5197,1.4703,1.4863,1.5139,1.5298,1.5298,1.5298,1.5298,1.5298,1.5298,1.5298,1.5298,1.5298,1.5298,1.5298,1.5298,1.5313,1.5388,1.5463,1.5492,1.5551,1.5653,1.5854,1.6077,1.5948,1.5842,1.5805,1.5934,1.5945,1.586,1.5758,1.5748,1.5669,1.5591,1.5657,1.5657,1.5657,1.5723,1.574,1.5806,1.5956,1.5491,1.5292,1.511,1.5027,1.4758,1.4659,1.436,1.4046,1.4195,1.4427,1.4874,1.5889,1.647,1.6702,1.7093,1.75,1.7657,1.7673,1.7839,1.8319,1.8982,1.976,2.034,2.0688,2.1019,2.1433,2.1781,2.1781,2.1781,2.1781,2.1781,2.1781,2.1781,2.1781,2.1781,2.1768,2.1708,2.1634,2.1511,2.1356,2.1167,2.099,2.0893,2.0778,2.0679,2.0561,2.0308,2.0065,1.9889,1.9546,1.8652,1.8323,1.8701,1.8864,1.8607,1.8631,1.8553,1.8683,1.886,1.9072,1.9369,1.9839,2.0308,2.0478,1.5238,1.5298,1.5298,1.5298,1.5298,1.5298,1.5298,1.5298,1.5298,1.5298,1.5269,1.524,1.524,1.5298,1.5298,1.5298,1.5298,1.5298,1.5298,1.5298,1.5298,1.5298,1.5298,1.5298,1.5298,1.5298,1.5328,1.5328,1.561,1.5566,1.5477,1.5551,1.5697,1.6024,1.6416,1.6412,1.6658,1.6832,1.706,1.7115,1.6941,1.6839,1.6696,1.6984,1.7607,1.7425,1.7375,1.764,1.7822,1.7756,1.7325,1.6603,1.6271,1.6204,1.6204,1.6083,1.5967,1.5669,1.547,1.5408,1.557,1.5835,1.6685,1.705,1.7384,1.7848,1.8169,1.8344,1.8377,1.8443,1.8923,1.976,2.0522,2.0787,2.1118,2.1383,2.1715,2.1781,2.1781,2.1781,2.1781,2.1781,2.1781,2.1781,2.1781,2.1781,2.1781,2.1738,2.1738,2.1603,2.1466,2.1294,2.1087,2.0958,2.0827,2.0794,2.0646,2.0478,2.0273,2.0065,1.9637,1.8991,1.8823,1.9163,1.884,1.8424,1.8507,1.9011,1.9109,1.9295,1.9457,1.9747,2.0185,2.046,2.0595]},{"header":{"parameterUnit":"m.s-1","parameterCategory":1,"la1":31.0,"la2":29.5877,"lo1":-88.7671,"lo2":-86.6584,"dy":0.0162,"dx":0.0185,"nx":115,"ny":88,"refTime":"2026-05-11T12:00:00:Z","depth":0,"parameterNumber":3,"parameterNumberName":"V-component_of_WINDS"},"data":[0.0,0.0,0.0,0.0,0.0,0.0,0.0,0.0,0.0,0.0,0.0,0.0,0.0,0.0,0.0,0.0,0.0,0.0,0.0,0.0,0.0,0.0,0.0,0.0,0.0,0.0,0.0,0.0,0.0,0.0,0.0,0.0,0.0,0.0,0.0,0.0,0.0,0.0,0.0,0.0,0.0,0.0,0.0,0.0,0.0,0.0,0.0,0.0,0.0,0.0,0.0,0.0,0.0,0.0,0.0,0.0,0.0,0.0,0.0,0.0,0.0,0.0,0.0,0.0,0.0,0.0,0.0,0.0,0.0,0.0,0.0,0.0,0.0,0.0,0.0,0.0,0.0,0.0,0.0,0.0,0.0,0.0,0.0,0.0,0.0,0.0,0.0,0.0,0.0,0.0,0.0,0.0,0.0,0.0,0.0,0.0,0.0,0.0,0.0,0.0,0.0,0.0,0.0,0.0,0.0,0.0,0.0,0.0,0.0,0.0,0.0,0.0,0.0,0.0,0.0,0.0,0.0,0.0,0.0,0.0,0.0,0.0,0.0,0.0,0.0,0.0,0.0,0.0,0.0,0.0,0.0,0.0,0.0,0.0,0.0,0.0,0.0,0.0,0.0,0.0,0.0,0.0,0.0,0.0,0.0,0.0,0.0,0.0,0.0,0.0,0.0,0.0,0.0,0.0,0.0,0.0,0.0,0.0,0.0,0.0,0.0,0.0,0.0,0.0,0.0,0.0,0.0,0.0,0.0,0.0,0.0,0.0,0.0,0.0,0.0,0.0,0.0,0.0,0.0,0.0,0.0,0.0,0.0,0.0,0.0,0.0,0.0,0.0,0.0,0.0,0.0,0.0,0.0,0.0,0.0,0.0,0.0,0.0,0.0,0.0,0.0,0.0,0.0,0.0,0.0,0.0,0.0,0.0,0.0,0.0,0.0,0.0,0.0,0.0,0.0,0.0,0.0,0.0,0.0,0.0,0.0,0.0,0.0,0.0,0.0,0.0,0.0,0.0,0.0,0.0,0.0,0.0,0.0,0.0,0.0,0.0,0.0,0.0,0.0,0.0,0.0,0.0,0.0,0.0,0.0,0.0,0.0,0.0,0.0,0.0,0.0,0.0,0.0,0.0,0.0,0.0,0.0,0.0,0.0,0.0,0.0,0.0,0.0,0.0,0.0,0.0,0.0,0.0,0.0,0.0,0.0,0.0,0.0,0.0,0.0,0.0,0.0,0.0,0.0,0.0,0.0,0.0,0.0,0.0,0.0,0.0,0.0,0.0,0.0,0.0,0.0,0.0,0.0,0.0,0.0,0.0,0.0,0.0,0.0,0.0,0.0,0.0,0.0,0.0,0.0,0.0,0.0,0.0,0.0,0.0,0.0,0.0,0.0,0.0,0.0,0.0,0.0,0.0,0.0,0.0,0.0,0.0,0.0,0.0,0.0,0.0,0.0,0.0,0.0,0.0,0.0,0.0,0.0,0.0,0.0,0.0,0.0,0.0,0.0,0.0,0.0,0.0,0.0,0.0,0.0,0.0,0.0,0.0,0.0,0.0,0.0,0.0,0.0,0.0,0.0,0.0,0.0,0.0,0.0,0.0,0.0,0.0,0.0,0.0,0.0,0.0,0.0,0.0,0.0,0.0,0.0,0.0,0.0,0.0,0.0,0.0,0.0,0.0,0.0,0.0,0.0,0.0,0.0,0.0,0.0,0.0,0.0,0.0,0.0,0.0,0.0,0.0,0.0,0.0,0.0,0.0,0.0,0.0,0.0,0.0,0.0,0.0,0.0,0.0,0.0,0.0,0.0,0.0,0.0,0.0,0.0,0.0,0.0,0.0,0.0,0.0,0.0,0.0,0.0,0.0,0.0,0.0,0.0,0.0,0.0,0.0,0.0,0.0,0.0,0.0,0.0,0.0,0.0,0.0,0.0,0.0,0.0,0.0,0.0,0.0,0.0,0.0,0.0,0.0,0.0,0.0,0.0,0.0,0.0,0.0,0.0,0.0,0.0,0.0,0.0,0.0,0.0,0.0,0.0,0.0,0.0,0.0,0.0,0.0,0.0,0.0,0.0,0.0,0.0,0.0,0.0,0.0,0.0,0.0,0.0,0.0,0.0,0.0,0.0,0.0,0.0,0.0,0.0,0.0,0.0,0.0,0.0,0.0,0.0,0.0,0.0,0.0,0.0,0.0,0.0,0.0,0.0,0.0,0.0,0.0,0.0,0.0,0.0,0.0,0.0,0.0,0.0,0.0,0.0,0.0,0.0,0.0,0.0,0.0,0.0,0.0,0.0,0.0,0.0,0.0,0.0,0.0,0.0,0.0,0.0,0.0,0.0,0.0,0.0,0.0,0.0,0.0,0.0,0.0,0.0,0.0,0.0,0.0,0.0,0.0,0.0,0.0,0.0,0.0,0.0,0.0,0.0,0.0,0.0,0.0,0.0,0.0,0.0,0.0,0.0,0.0,0.0,0.0,0.0,0.0,0.0,0.0,0.0,0.0,0.0,0.0,0.0,0.0,0.0,0.0,0.0,0.0,0.0,0.0,0.0,0.0,0.0,0.0,0.0,0.0,0.0,0.0,0.0,0.0,0.0,0.0,0.0,0.0,0.0,0.0,0.0,0.0,0.0,0.0,0.0,0.0,0.0,0.0,0.0,0.0,0.0,0.0,0.0,0.0,0.0,0.0,0.0,0.0,0.0,0.0,0.0,0.0,0.0,0.0,0.0,0.0,0.0,0.0,0.0,0.0,0.0,0.0,0.0,0.0,0.0,0.0,0.0,0.0,0.0,0.0,0.0,0.0,0.0,0.0,0.0,0.0,0.0,0.0,0.0,0.0,0.0,0.0,0.0,0.0,0.0,0.0,0.0,0.0,0.0,0.0,0.0,0.0,0.0,0.0,0.0,0.0,0.0,0.0,0.0,0.0,0.0,0.0,0.0,0.0,0.0,0.0,0.0,0.0,0.0,0.0,0.0,0.0,0.0,0.0,0.0,0.0,0.0,0.0,0.0,0.0,0.0,0.0,0.0,0.0,0.0,0.0,0.0,0.0,0.0,0.0,0.0,0.0,0.0,0.0,0.0,0.0,0.0,0.0,0.0,0.0,0.0,0.0,0.0,0.0,0.0,0.0,0.0,0.0,0.0,0.0,0.0,0.0,0.0,0.0,0.0,0.0,0.0,0.0,0.0,0.0,0.0,0.0,0.0,0.0,0.0,0.0,0.0,0.0,0.0,0.0,0.0,0.0,0.0,0.0,0.0,0.0,0.0,0.0,0.0,0.0,0.0,0.0,0.0,0.0,0.0,0.0,0.0,0.0,0.0,0.0,0.0,0.0,0.0,0.0,0.0,0.0,0.0,0.0,0.0,0.0,0.0,0.0,0.0,0.0,0.0,0.0,0.0,0.0,0.0,0.0,0.0,0.0,0.0,0.0,0.0,0.0,0.0,0.0,0.0,0.0,0.0,0.0,0.0,0.0,0.0,0.0,0.0,0.0,0.0,0.0,0.0,0.0,0.0,0.0,0.0,0.0,0.0,0.0,0.0,0.0,0.0,0.0,0.0,0.0,0.0,0.0,0.0,0.0,0.0,0.0,0.0,0.0,0.0,0.0,0.0,0.0,0.0,0.0,0.0,0.0,0.0,0.0,0.0,0.0,0.0,0.0,0.0,0.0,0.0,0.0,0.0,0.0,0.0,0.0,0.0,0.0,0.0,0.0,0.0,0.0,0.0,0.0,0.0,0.0,0.0,0.0,0.0,0.0,0.0,0.0,0.0,0.0,0.0,0.0,0.0,0.0,0.0,0.0,0.0,0.0,0.0,0.0,0.0,0.0,0.0,0.0,0.0,0.0,0.0,0.0,0.0,0.0,0.0,0.0,0.0,0.0,0.0,0.0,0.0,0.0,0.0,0.0,0.0,0.0,0.0,0.0,0.0,0.0,0.0,0.0,0.0,0.0,0.0,0.0,0.0,0.0,0.0,0.0,0.0,0.0,0.0,0.0,0.0,0.0,0.0,0.0,0.0,0.0,0.0,0.0,0.0,0.0,0.0,0.0,0.0,0.0,0.0,0.0,0.0,0.0,0.0,0.0,0.0,0.0,0.0,0.0,0.0,0.0,0.0,0.0,0.0,0.0,0.0,0.0,0.0,0.0,0.0,0.0,0.0,0.0,0.0,0.0,0.0,0.0,0.0,0.0,0.0,0.0,0.0,0.0,0.0,0.0,0.0,0.0,0.0,0.0,0.0,0.0,0.0,0.0,0.0,0.0,0.0,0.0,0.0,0.0,-0.846,0.0,0.0,0.0,0.0,0.0,0.0,0.0,0.0,0.0,0.0,0.0,0.0,0.0,0.0,0.0,0.0,0.0,0.0,0.0,0.0,0.0,0.0,0.0,0.0,0.0,0.0,0.0,0.0,0.0,0.0,0.0,0.0,0.0,0.0,0.0,0.0,0.0,0.0,0.0,0.0,0.0,0.0,0.0,0.0,0.0,0.0,0.0,0.0,0.0,0.0,0.0,0.0,0.0,0.0,0.0,0.0,0.0,0.0,0.0,0.0,0.0,0.0,0.0,0.0,0.0,0.0,0.0,0.0,0.0,0.0,0.0,0.0,0.0,0.0,0.0,0.0,0.0,0.0,0.0,0.0,0.0,0.0,0.0,0.0,0.0,0.0,0.0,0.0,0.0,0.0,0.0,0.0,0.0,0.0,0.0,0.0,0.0,0.0,0.0,0.0,0.0,0.0,0.0,0.0,0.0,0.0,0.0,0.0,0.0,0.0,-0.969,-0.8999,-0.9563,-0.9672,-0.9205,0.0,0.0,0.0,0.0,0.0,0.0,0.0,0.0,0.0,0.0,0.0,0.0,0.0,0.0,0.0,0.0,0.0,0.0,0.0,0.0,0.0,0.0,0.0,0.0,0.0,0.0,0.0,0.0,0.0,0.0,0.0,0.0,0.0,0.0,0.0,0.0,0.0,0.0,0.0,0.0,0.0,0.0,0.0,0.0,0.0,0.0,0.0,0.0,0.0,0.0,0.0,0.0,0.0,0.0,0.0,0.0,0.0,0.0,0.0,0.0,0.0,0.0,0.0,0.0,0.0,0.0,0.0,0.0,0.0,0.0,0.0,0.0,0.0,0.0,0.0,0.0,0.0,0.0,0.0,0.0,0.0,0.0,0.0,0.0,0.0,0.0,0.0,0.0,0.0,0.0,0.0,0.0,0.0,0.0,0.0,0.0,0.0,0.0,0.0,0.0,0.0,0.0,0.0,0.0,0.0,0.0,0.0,0.0,0.0,0.0,0.0,0.0,-1.0379,-1.0485,-0.9944,0.0,0.0,0.0,0.0,0.0,0.0,0.0,0.0,0.0,0.0,0.0,0.0,0.0,0.0,0.0,0.0,0.0,0.0,0.0,0.0,0.0,0.0,0.0,0.0,0.0,0.0,0.0,0.0,0.0,0.0,0.0,0.0,0.0,0.0,0.0,0.0,0.0,0.0,0.0,0.0,0.0,0.0,0.0,0.0,0.0,0.0,0.0,0.0,0.0,0.0,0.0,0.0,0.0,0.0,0.0,0.0,0.0,0.0,0.0,0.0,0.0,0.0,0.0,0.0,0.0,0.0,0.0,0.0,0.0,0.0,0.0,0.0,0.0,0.0,0.0,0.0,0.0,0.0,0.0,0.0,0.0,0.0,0.0,0.0,0.0,0.0,0.0,0.0,0.0,0.0,0.0,0.0,0.0,0.0,0.0,0.0,0.0,0.0,0.0,0.0,0.0,0.0,0.0,0.0,0.0,0.0,0.0,0.0,0.0,0.0,-0.9788,-1.0201,-1.0093,0.0,-0.9978,0.0,0.0,0.0,0.0,0.0,0.0,0.0,0.0,0.0,0.0,0.0,0.0,0.0,0.0,0.0,0.0,0.0,0.0,0.0,0.0,0.0,0.0,0.0,0.0,0.0,0.0,0.0,0.0,0.0,0.0,0.0,0.0,0.0,0.0,0.0,0.0,0.0,0.0,0.0,0.0,0.0,0.0,0.0,0.0,0.0,0.0,0.0,0.0,0.0,0.0,0.0,0.0,0.0,0.0,0.0,0.0,0.0,0.0,0.0,0.0,0.0,0.0,0.0,0.0,0.0,0.0,0.0,0.0,0.0,0.0,0.0,0.0,0.0,0.0,0.0,0.0,0.0,0.0,0.0,0.0,0.0,0.0,0.0,0.0,0.0,0.0,0.0,0.0,0.0,0.0,0.0,0.0,0.0,0.0,0.0,0.0,0.0,0.0,0.0,0.0,0.0,0.0,0.0,0.0,0.0,0.0,0.0,0.0,0.0,0.0,-1.0456,-1.1108,-1.0495,-1.0218,0.0,0.0,0.0,0.0,0.0,0.0,0.0,0.0,0.0,0.0,0.0,0.0,0.0,0.0,0.0,0.0,0.0,0.0,0.0,0.0,0.0,0.0,0.0,0.0,0.0,0.0,0.0,0.0,0.0,0.0,0.0,0.0,0.0,0.0,0.0,0.0,0.0,0.0,0.0,0.0,0.0,0.0,0.0,0.0,0.0,0.0,0.0,0.0,0.0,0.0,0.0,0.0,0.0,0.0,0.0,0.0,0.0,0.0,0.0,0.0,0.0,0.0,0.0,0.0,0.0,0.0,0.0,0.0,0.0,0.0,0.0,0.0,0.0,0.0,0.0,0.0,0.0,0.0,0.0,0.0,0.0,0.0,0.0,0.0,0.0,0.0,0.0,0.0,0.0,0.0,0.0,0.0,0.0,0.0,0.0,0.0,0.0,0.0,0.0,0.0,0.0,0.0,0.0,0.0,0.0,0.0,0.0,0.0,0.0,0.0,-1.0911,-1.0926,-1.1481,-1.1071,-1.0829,-1.0801,0.0,0.0,0.0,0.0,0.0,0.0,0.0,0.0,0.0,0.0,0.0,0.0,0.0,0.0,0.0,0.0,0.0,0.0,0.0,0.0,0.0,0.0,0.0,0.0,0.0,0.0,0.0,0.0,0.0,0.0,0.0,0.0,0.0,0.0,0.0,0.0,0.0,0.0,0.0,0.0,0.0,0.0,0.0,0.0,0.0,0.0,0.0,0.0,0.0,0.0,0.0,0.0,0.0,0.0,0.0,0.0,0.0,0.0,0.0,0.0,0.0,0.0,0.0,0.0,0.0,0.0,0.0,0.0,0.0,0.0,0.0,0.0,0.0,0.0,0.0,0.0,0.0,0.0,0.0,0.0,0.0,0.0,0.0,0.0,0.0,0.0,0.0,0.0,0.0,0.0,0.0,0.0,0.0,0.0,0.0,0.0,0.0,0.0,0.0,0.0,0.0,0.0,0.0,0.0,0.0,0.0,0.0,0.0,0.0,-1.0797,-1.0928,-1.1155,-1.1759,-1.1787,0.0,0.0,0.0,0.0,0.0,0.0,0.0,0.0,0.0,0.0,0.0,0.0,0.0,0.0,0.0,0.0,0.0,0.0,0.0,0.0,0.0,0.0,0.0,0.0,0.0,0.0,0.0,0.0,0.0,0.0,0.0,0.0,0.0,0.0,0.0,0.0,0.0,0.0,0.0,0.0,0.0,0.0,0.0,0.0,0.0,0.0,0.0,0.0,0.0,0.0,0.0,0.0,0.0,0.0,0.0,0.0,0.0,0.0,0.0,0.0,0.0,0.0,0.0,0.0,0.0,0.0,0.0,0.0,0.0,0.0,0.0,0.0,0.0,0.0,0.0,0.0,0.0,0.0,0.0,0.0,0.0,0.0,0.0,0.0,0.0,0.0,0.0,0.0,0.0,0.0,0.0,0.0,0.0,0.0,0.0,0.0,0.0,0.0,0.0,0.0,0.0,0.0,0.0,0.0,0.0,0.0,0.0,0.0,0.0,-1.1446,-1.1914,-1.1997,-1.1719,-1.1769,-1.1715,0.0,0.0,0.0,0.0,0.0,0.0,0.0,0.0,0.0,0.0,0.0,0.0,0.0,0.0,0.0,0.0,0.0,0.0,0.0,0.0,0.0,0.0,0.0,0.0,0.0,0.0,0.0,0.0,0.0,0.0,0.0,0.0,0.0,0.0,0.0,0.0,0.0,0.0,0.0,0.0,0.0,0.0,0.0,0.0,0.0,0.0,0.0,0.0,0.0,0.0,0.0,0.0,0.0,0.0,0.0,0.0,0.0,0.0,0.0,0.0,0.0,0.0,0.0,0.0,0.0,0.0,0.0,0.0,0.0,0.0,0.0,0.0,0.0,0.0,0.0,0.0,0.0,0.0,0.0,0.0,0.0,0.0,0.0,0.0,0.0,0.0,0.0,0.0,0.0,0.0,0.0,0.0,0.0,0.0,0.0,0.0,0.0,0.0,0.0,0.0,0.0,0.0,0.0,0.0,0.0,0.0,0.0,0.0,0.0,-1.1923,0.0,-1.2577,0.0,-1.1982,-1.1882,0.0,0.0,0.0,0.0,0.0,0.0,0.0,0.0,0.0,0.0,0.0,0.0,0.0,0.0,0.0,0.0,0.0,0.0,0.0,0.0,0.0,0.0,0.0,0.0,0.0,0.0,0.0,0.0,0.0,0.0,0.0,0.0,0.0,0.0,0.0,0.0,0.0,0.0,0.0,0.0,0.0,0.0,0.0,0.0,0.0,0.0,0.0,0.0,0.0,0.0,0.0,0.0,0.0,0.0,0.0,0.0,0.0,0.0,0.0,0.0,0.0,0.0,0.0,0.0,0.0,0.0,0.0,0.0,0.0,0.0,0.0,0.0,0.0,0.0,0.0,0.0,0.0,0.0,0.0,0.0,0.0,0.0,0.0,0.0,0.0,0.0,0.0,0.0,0.0,0.0,0.0,0.0,0.0,0.0,0.0,0.0,0.0,0.0,0.0,0.0,0.0,0.0,0.0,0.0,0.0,0.0,0.0,0.0,-1.1256,-1.2066,-1.2392,-1.2538,-1.2493,-1.2487,-1.2447,0.0,0.0,0.0,0.0,0.0,0.0,0.0,0.0,0.0,0.0,0.0,0.0,0.0,0.0,0.0,0.0,0.0,0.0,0.0,0.0,0.0,0.0,0.0,0.0,0.0,0.0,0.0,0.0,0.0,0.0,0.0,0.0,0.0,0.0,0.0,0.0,0.0,0.0,0.0,0.0,0.0,0.0,0.0,0.0,0.0,0.0,0.0,0.0,0.0,0.0,0.0,0.0,0.0,0.0,0.0,0.0,0.0,0.0,0.0,0.0,0.0,0.0,0.0,0.0,0.0,0.0,0.0,0.0,0.0,0.0,0.0,0.0,0.0,0.0,0.0,0.0,0.0,0.0,0.0,0.0,0.0,0.0,0.0,0.0,0.0,0.0,0.0,0.0,0.0,0.0,0.0,0.0,0.0,0.0,0.0,0.0,0.0,0.0,0.0,0.0,0.0,0.0,0.0,0.0,0.0,0.0,0.0,0.0,0.0,-1.236,-1.2785,-1.2964,-1.2934,-1.2871,-1.2711,0.0,0.0,0.0,0.0,0.0,0.0,0.0,0.0,0.0,0.0,0.0,0.0,0.0,0.0,0.0,0.0,0.0,0.0,0.0,0.0,0.0,0.0,0.0,0.0,0.0,0.0,0.0,0.0,0.0,0.0,0.0,0.0,0.0,0.0,0.0,0.0,0.0,0.0,0.0,0.0,0.0,0.0,0.0,0.0,0.0,0.0,0.0,0.0,0.0,0.0,0.0,0.0,0.0,0.0,0.0,0.0,0.0,0.0,0.0,0.0,0.0,0.0,0.0,0.0,0.0,0.0,0.0,0.0,0.0,0.0,0.0,0.0,0.0,0.0,0.0,0.0,0.0,0.0,0.0,0.0,0.0,0.0,0.0,0.0,0.0,0.0,0.0,0.0,0.0,0.0,0.0,0.0,0.0,0.0,0.0,0.0,0.0,0.0,0.0,0.0,0.0,0.0,0.0,0.0,0.0,0.0,0.0,0.0,0.0,-1.286,-1.3177,-1.3377,-1.3477,-1.3311,-1.3073,-1.2797,0.0,0.0,0.0,0.0,0.0,0.0,0.0,0.0,0.0,0.0,0.0,0.0,0.0,0.0,0.0,0.0,0.0,0.0,0.0,0.0,0.0,0.0,0.0,0.0,0.0,0.0,0.0,0.0,0.0,0.0,0.0,0.0,0.0,0.0,0.0,0.0,0.0,0.0,0.0,0.0,0.0,0.0,0.0,0.0,0.0,0.0,0.0,0.0,0.0,0.0,0.0,0.0,0.0,0.0,0.0,0.0,0.0,0.0,0.0,0.0,0.0,0.0,0.0,0.0,0.0,0.0,0.0,0.0,0.0,0.0,0.0,0.0,0.0,0.0,0.0,0.0,0.0,0.0,0.0,0.0,0.0,0.0,0.0,0.0,0.0,0.0,0.0,0.0,0.0,0.0,0.0,0.0,0.0,0.0,0.0,0.0,0.0,0.0,0.0,0.0,0.0,0.0,0.0,0.0,0.0,0.0,0.0,0.0,-1.3384,-1.3513,-1.3742,-1.4083,-1.3774,-1.3506,0.0,0.0,0.0,0.0,0.0,0.0,0.0,0.0,0.0,0.0,0.0,0.0,0.0,0.0,0.0,0.0,0.0,0.0,0.0,0.0,0.0,0.0,0.0,0.0,0.0,0.0,0.0,0.0,0.0,0.0,0.0,0.0,0.0,0.0,0.0,0.0,0.0,0.0,0.0,0.0,0.0,0.0,0.0,0.0,0.0,0.0,0.0,0.0,0.0,0.0,0.0,0.0,0.0,0.0,0.0,0.0,0.0,0.0,0.0,0.0,0.0,0.0,0.0,0.0,0.0,0.0,0.0,0.0,0.0,0.0,0.0,0.0,0.0,0.0,0.0,0.0,0.0,0.0,0.0,0.0,0.0,0.0,0.0,0.0,0.0,0.0,0.0,0.0,0.0,0.0,0.0,0.0,0.0,0.0,0.0,0.0,0.0,0.0,0.0,0.0,0.0,0.0,0.0,0.0,0.0,0.0,0.0,0.0,0.0,-1.2329,-1.3014,-1.3642,-1.4139,-1.4047,-1.3818,0.0,0.0,0.0,0.0,0.0,0.0,0.0,0.0,0.0,0.0,0.0,0.0,0.0,0.0,0.0,0.0,0.0,0.0,0.0,0.0,0.0,0.0,0.0,0.0,0.0,0.0,0.0,0.0,0.0,0.0,0.0,0.0,0.0,0.0,0.0,0.0,0.0,0.0,0.0,0.0,0.0,0.0,0.0,0.0,0.0,0.0,0.0,0.0,0.0,0.0,0.0,0.0,0.0,0.0,0.0,0.0,0.0,0.0,0.0,0.0,0.0,0.0,0.0,0.0,0.0,0.0,0.0,0.0,0.0,0.0,0.0,0.0,0.0,0.0,0.0,0.0,0.0,0.0,0.0,0.0,0.0,0.0,0.0,0.0,0.0,0.0,0.0,0.0,0.0,0.0,0.0,0.0,0.0,0.0,0.0,0.0,0.0,0.0,0.0,0.0,0.0,0.0,0.0,0.0,0.0,0.0,0.0,0.0,-1.1712,-1.2455,-1.2755,-1.3259,-1.3984,-1.4217,-1.4111,0.0,0.0,0.0,0.0,0.0,0.0,0.0,0.0,0.0,0.0,0.0,0.0,0.0,0.0,0.0,0.0,0.0,0.0,0.0,0.0,0.0,0.0,0.0,0.0,0.0,0.0,0.0,0.0,0.0,0.0,0.0,0.0,0.0,0.0,0.0,0.0,0.0,0.0,0.0,0.0,0.0,0.0,0.0,0.0,0.0,0.0,0.0,0.0,0.0,0.0,0.0,0.0,0.0,0.0,0.0,0.0,0.0,0.0,0.0,0.0,0.0,0.0,0.0,0.0,0.0,0.0,0.0,0.0,0.0,0.0,0.0,0.0,0.0,0.0,0.0,0.0,0.0,0.0,0.0,0.0,0.0,0.0,0.0,0.0,0.0,0.0,0.0,0.0,0.0,0.0,0.0,0.0,0.0,0.0,0.0,0.0,0.0,0.0,0.0,0.0,0.0,0.0,0.0,0.0,0.0,0.0,0.0,0.0,-1.1807,-1.2922,-1.2616,-1.2804,-1.357,-1.4256,-1.4386,0.0,0.0,0.0,0.0,0.0,0.0,0.0,0.0,0.0,0.0,0.0,0.0,0.0,0.0,0.0,0.0,0.0,0.0,0.0,0.0,0.0,0.0,0.0,0.0,0.0,0.0,0.0,0.0,0.0,0.0,0.0,0.0,0.0,0.0,0.0,0.0,0.0,0.0,0.0,0.0,0.0,0.0,0.0,0.0,0.0,0.0,0.0,0.0,0.0,0.0,0.0,0.0,0.0,0.0,0.0,0.0,0.0,0.0,0.0,0.0,0.0,0.0,0.0,0.0,0.0,0.0,0.0,0.0,0.0,0.0,0.0,0.0,0.0,0.0,0.0,0.0,0.0,0.0,0.0,0.0,0.0,0.0,0.0,0.0,0.0,0.0,0.0,0.0,0.0,0.0,0.0,0.0,0.0,0.0,0.0,0.0,0.0,0.0,0.0,0.0,0.0,0.0,0.0,0.0,0.0,0.0,0.0,0.0,-1.1316,-1.0664,-1.1934,-1.2722,-1.2901,-1.4161,-1.4682,0.0,0.0,0.0,0.0,0.0,0.0,0.0,0.0,0.0,0.0,0.0,0.0,0.0,0.0,0.0,0.0,0.0,0.0,0.0,0.0,0.0,0.0,0.0,0.0,0.0,0.0,0.0,0.0,0.0,0.0,0.0,0.0,0.0,0.0,0.0,0.0,0.0,0.0,0.0,0.0,0.0,0.0,0.0,0.0,0.0,0.0,0.0,0.0,-1.3114,0.0,0.0,0.0,0.0,0.0,0.0,0.0,0.0,0.0,0.0,0.0,0.0,0.0,0.0,0.0,0.0,0.0,0.0,0.0,0.0,0.0,0.0,0.0,0.0,0.0,0.0,0.0,0.0,0.0,0.0,0.0,0.0,0.0,0.0,0.0,0.0,0.0,0.0,0.0,0.0,0.0,0.0,0.0,0.0,0.0,0.0,0.0,0.0,0.0,0.0,0.0,0.0,0.0,0.0,0.0,0.0,0.0,0.0,0.0,-1.1741,-1.1318,-1.2255,-1.2927,-1.3374,-1.4449,-1.4885,0.0,0.0,0.0,0.0,0.0,0.0,0.0,0.0,0.0,0.0,0.0,0.0,0.0,0.0,0.0,0.0,0.0,0.0,0.0,0.0,0.0,0.0,0.0,0.0,0.0,0.0,0.0,0.0,0.0,0.0,0.0,0.0,0.0,0.0,0.0,0.0,0.0,0.0,0.0,0.0,0.0,0.0,0.0,0.0,0.0,0.0,0.0,0.0,0.0,0.0,0.0,0.0,0.0,0.0,0.0,0.0,0.0,0.0,0.0,0.0,0.0,0.0,0.0,0.0,0.0,0.0,0.0,0.0,0.0,0.0,0.0,0.0,0.0,0.0,0.0,0.0,0.0,0.0,0.0,0.0,0.0,0.0,0.0,0.0,0.0,0.0,0.0,0.0,0.0,0.0,0.0,0.0,0.0,0.0,0.0,0.0,0.0,0.0,0.0,0.0,0.0,0.0,0.0,0.0,0.0,0.0,0.0,-1.2509,-1.2584,-1.2792,-1.293,-1.3359,-1.4073,-1.4829,-1.5129,-1.4976,0.0,0.0,0.0,0.0,0.0,0.0,0.0,0.0,0.0,0.0,0.0,0.0,0.0,0.0,0.0,0.0,0.0,0.0,0.0,0.0,0.0,0.0,0.0,0.0,0.0,0.0,0.0,0.0,0.0,0.0,0.0,0.0,0.0,0.0,0.0,0.0,0.0,0.0,-1.0488,-1.1504,0.0,0.0,0.0,0.0,0.0,0.0,0.0,0.0,-1.49,0.0,0.0,0.0,0.0,0.0,0.0,0.0,0.0,0.0,0.0,0.0,0.0,0.0,0.0,0.0,0.0,0.0,0.0,0.0,0.0,0.0,0.0,0.0,0.0,0.0,0.0,0.0,0.0,0.0,0.0,0.0,0.0,0.0,0.0,0.0,0.0,0.0,0.0,0.0,0.0,0.0,0.0,0.0,0.0,0.0,0.0,0.0,0.0,0.0,0.0,0.0,0.0,0.0,0.0,0.0,0.0,-1.3437,-1.3603,-1.3404,-1.2812,-1.3507,-1.3955,-1.4121,-1.4875,-1.5528,-1.5996,0.0,0.0,0.0,0.0,0.0,0.0,0.0,0.0,0.0,0.0,0.0,0.0,0.0,0.0,0.0,0.0,0.0,0.0,0.0,0.0,0.0,0.0,0.0,0.0,0.0,0.0,0.0,0.0,0.0,0.0,0.0,0.0,0.0,0.0,0.0,0.0,0.0,0.0,0.0,-1.2673,-1.3001,0.0,0.0,0.0,0.0,0.0,0.0,0.0,0.0,-1.6523,0.0,0.0,0.0,0.0,0.0,0.0,0.0,0.0,0.0,0.0,0.0,0.0,0.0,0.0,0.0,0.0,0.0,0.0,0.0,0.0,0.0,0.0,0.0,0.0,0.0,0.0,0.0,0.0,0.0,0.0,0.0,0.0,0.0,0.0,0.0,0.0,0.0,0.0,0.0,0.0,0.0,0.0,0.0,0.0,0.0,0.0,0.0,0.0,0.0,0.0,0.0,0.0,0.0,0.0,0.0,-1.3194,-1.3686,-1.3821,-1.344,-1.3855,-1.4309,-1.4778,-1.5558,-1.6104,0.0,0.0,0.0,0.0,0.0,0.0,0.0,0.0,0.0,0.0,0.0,0.0,0.0,0.0,0.0,0.0,0.0,0.0,0.0,0.0,0.0,0.0,0.0,0.0,0.0,0.0,0.0,0.0,0.0,0.0,0.0,0.0,0.0,0.0,0.0,0.0,0.0,0.0,0.0,0.0,-1.366,-1.3464,-1.2484,0.0,0.0,0.0,0.0,0.0,0.0,-1.5636,-1.5487,0.0,0.0,0.0,0.0,0.0,0.0,0.0,0.0,0.0,0.0,0.0,0.0,0.0,0.0,0.0,0.0,0.0,0.0,0.0,0.0,0.0,0.0,0.0,0.0,0.0,0.0,0.0,0.0,0.0,0.0,0.0,0.0,0.0,0.0,0.0,0.0,0.0,0.0,0.0,0.0,0.0,0.0,0.0,0.0,0.0,0.0,0.0,0.0,0.0,0.0,0.0,0.0,0.0,0.0,0.0,-1.3211,-1.3876,-1.4245,-1.4273,-1.4328,-1.4676,-1.5385,-1.5995,-1.6442,0.0,0.0,0.0,0.0,0.0,0.0,0.0,0.0,0.0,0.0,0.0,0.0,0.0,0.0,0.0,0.0,0.0,0.0,0.0,0.0,0.0,0.0,0.0,0.0,0.0,0.0,0.0,0.0,0.0,0.0,0.0,0.0,0.0,0.0,0.0,0.0,0.0,0.0,0.0,0.0,0.0,-1.2211,-1.023,-0.9825,0.0,0.0,0.0,0.0,-1.4491,-1.3195,0.0,0.0,0.0,0.0,0.0,0.0,0.0,0.0,0.0,0.0,0.0,0.0,0.0,0.0,0.0,0.0,0.0,0.0,0.0,0.0,0.0,0.0,0.0,0.0,0.0,0.0,0.0,0.0,0.0,0.0,0.0,0.0,0.0,0.0,0.0,0.0,0.0,0.0,0.0,0.0,0.0,0.0,0.0,0.0,0.0,0.0,0.0,0.0,0.0,0.0,0.0,0.0,0.0,0.0,0.0,0.0,-1.498,-1.5024,-1.508,-1.5151,-1.516,-1.5244,-1.5387,-1.543,-1.61,0.0,0.0,0.0,0.0,0.0,0.0,0.0,0.0,0.0,0.0,0.0,0.0,0.0,0.0,0.0,0.0,0.0,0.0,0.0,0.0,0.0,0.0,0.0,0.0,0.0,0.0,0.0,0.0,0.0,0.0,0.0,0.0,0.0,0.0,0.0,0.0,0.0,0.0,0.0,0.0,0.0,-0.7092,-0.6407,-0.6446,-0.6475,0.0,0.0,-0.7197,-0.8031,-0.8762,0.0,0.0,0.0,0.0,0.0,0.0,0.0,0.0,0.0,0.0,0.0,0.0,0.0,0.0,0.0,0.0,0.0,0.0,0.0,0.0,0.0,0.0,0.0,0.0,0.0,0.0,0.0,0.0,0.0,0.0,0.0,0.0,0.0,0.0,0.0,0.0,0.0,0.0,0.0,0.0,0.0,0.0,0.0,0.0,0.0,0.0,0.0,0.0,0.0,0.0,0.0,0.0,0.0,0.0,0.0,-1.457,-1.3403,-1.4443,-1.4237,-1.2711,-1.4284,-1.5231,-1.5357,-1.5792,-1.6573,0.0,0.0,0.0,0.0,0.0,0.0,0.0,0.0,0.0,0.0,0.0,0.0,0.0,0.0,0.0,0.0,0.0,0.0,0.0,0.0,0.0,0.0,0.0,0.0,0.0,0.0,0.0,0.0,0.0,0.0,0.0,0.0,0.0,0.0,0.0,0.0,0.0,0.0,0.0,0.0,0.0,0.0,-0.2958,-0.2892,0.0,0.0,0.0,-0.2869,-0.6518,0.0,0.0,0.0,0.0,0.0,0.0,0.0,0.0,0.0,0.0,0.0,0.0,0.0,0.0,0.0,0.0,0.0,0.0,0.0,0.0,0.0,0.0,0.0,0.0,0.0,0.0,0.0,0.0,0.0,0.0,0.0,0.0,0.0,0.0,0.0,0.0,0.0,0.0,0.0,0.0,0.0,0.0,0.0,0.0,0.0,0.0,0.0,0.0,0.0,0.0,0.0,0.0,0.0,0.0,0.0,0.0,0.0,-1.0387,-1.1817,-1.1924,-1.062,-1.2752,-1.438,-1.5283,-1.5947,0.0,0.0,0.0,0.0,0.0,0.0,0.0,0.0,0.0,0.0,0.0,0.0,0.0,0.0,0.0,0.0,0.0,0.0,0.0,0.0,0.0,0.0,0.0,0.0,0.0,0.0,0.0,-0.9446,0.0,0.0,0.0,0.0,0.0,0.0,0.0,0.0,0.0,0.0,0.0,0.0,0.0,0.0,-0.1907,0.0641,0.0703,0.0479,0.0,0.0,0.1431,-0.3537,-0.2732,-0.2377,0.0,0.0,0.0,0.0,0.0,0.0,0.0,0.0,0.0,0.0,0.0,0.0,0.0,0.0,0.0,0.0,0.0,0.0,0.0,0.0,0.0,0.0,0.0,0.0,0.0,0.0,0.0,0.0,0.0,0.0,0.0,0.0,0.0,0.0,0.0,0.0,0.0,0.0,0.0,0.0,0.0,0.0,0.0,0.0,0.0,0.0,0.0,0.0,0.0,0.0,0.0,0.0,0.0,0.0,0.0,-0.6294,-0.6277,-0.7701,-1.0327,-1.0675,-1.2253,-1.5179,-1.5354,-1.5816,0.0,0.0,0.0,0.0,0.0,0.0,0.0,0.0,0.0,0.0,0.0,0.0,0.0,0.0,0.0,0.0,0.0,0.0,0.0,0.0,0.0,0.0,0.0,0.0,0.0,0.0,0.0,0.0,0.0,0.0,0.0,0.0,0.0,0.0,0.0,0.0,0.0,0.0,0.0,0.0,0.0,0.3714,0.4633,0.4338,0.4204,0.0,0.0,0.4609,0.3749,0.3354,0.2979,0.2312,0.0,0.0,0.0,0.0,0.0,0.0,0.0,0.0,0.0,0.0,0.0,0.0,0.0,0.0,0.0,0.0,0.0,0.0,0.0,0.0,0.0,0.0,0.0,0.0,0.0,0.0,0.0,0.0,0.0,0.0,0.0,0.0,0.0,0.0,0.0,0.0,0.0,0.0,0.0,0.0,0.0,0.0,0.0,0.0,0.0,0.0,0.0,0.0,0.0,0.0,0.0,0.0,0.0,-0.6881,-0.3553,-0.4711,-0.5151,-0.4791,-0.842,-1.107,-1.2372,-1.427,-1.5709,0.0,0.0,0.0,0.0,0.0,0.0,0.0,0.0,0.0,0.0,0.0,0.0,0.0,0.0,0.0,0.0,0.0,0.0,0.0,0.0,0.0,0.0,0.0,0.0,0.0,0.0,0.0,0.0,-0.8843,-0.7886,-0.59,0.0,0.0,0.0,0.0,0.0,0.0,0.0,0.0,0.0,0.0,0.5638,0.6187,0.5722,0.0,0.0,0.5506,0.5148,0.4808,0.4391,0.4041,0.3825,0.2984,0.0,0.0,0.0,0.0,0.0,0.0,0.0,0.0,0.0,0.0,0.0,0.0,0.0,0.0,0.0,0.0,0.0,0.0,0.0,0.0,0.0,0.0,0.0,0.0,0.0,0.0,0.0,0.0,0.0,0.0,0.0,0.0,0.0,0.0,0.0,0.0,0.0,0.0,0.0,0.0,0.0,0.0,0.0,0.0,0.0,0.0,0.0,0.0,0.0,0.0,0.0,0.0,-0.3715,-0.0359,-0.1621,-0.1875,-0.1066,-0.6257,-0.9547,-1.0627,-1.3645,-1.5584,0.0,0.0,0.0,0.0,0.0,0.0,0.0,0.0,0.0,0.0,0.0,0.0,0.0,0.0,0.0,0.0,0.0,0.0,0.0,0.0,0.0,0.0,0.0,0.0,0.0,0.0,0.0,0.0,-0.6611,-0.4758,-0.2973,0.0,0.0,0.0,0.0,0.0,0.0,0.0,0.0,0.0,0.0,0.6673,0.7058,0.66,0.6311,0.6536,0.6157,0.5725,0.5417,0.5013,0.4684,0.4412,0.0,0.0,0.0,0.0,0.0,0.0,0.0,0.0,0.0,0.0,0.0,0.0,0.0,0.0,0.0,0.0,0.0,0.0,0.0,0.0,0.0,0.0,0.0,0.0,0.0,0.0,0.0,0.0,0.0,0.0,-0.9412,0.0,0.0,0.0,0.0,0.0,0.0,0.0,0.0,0.0,0.0,0.0,0.0,0.0,0.0,0.0,0.0,0.0,0.0,0.0,0.0,0.0,0.0,0.1709,0.3453,0.3845,0.251,-0.1043,-0.4244,-0.7465,-1.0521,-1.3645,-1.5309,-1.5332,0.0,0.0,0.0,0.0,0.0,0.0,0.0,0.0,0.0,0.0,0.0,0.0,0.0,0.0,0.0,0.0,0.0,0.0,0.0,0.0,0.0,0.0,0.0,0.0,0.0,0.0,-0.7446,-0.2775,0.0374,0.0,0.0,0.0,0.0,0.0,0.0,0.0,0.0,0.0,0.0,0.7258,0.7173,0.7363,0.7145,0.7046,0.7321,0.7083,0.6738,0.627,0.5857,0.5339,0.0,0.0,0.0,0.0,0.0,0.0,0.0,0.0,0.0,0.0,0.0,0.0,0.0,0.0,0.0,0.0,0.0,0.0,0.0,0.0,0.0,0.0,0.0,0.0,0.0,0.0,0.0,-0.5244,-0.4347,0.0,0.0,0.0,0.0,0.0,0.0,0.0,0.0,0.0,0.0,0.0,0.2854,0.2914,0.0,0.0,0.0,0.0,0.0,0.0,0.0,0.0,0.0,0.0,0.0,0.0,0.2334,0.4237,0.4417,0.2358,-0.1974,-0.4524,-0.7337,-1.0539,-1.3652,-1.5288,-1.5287,0.0,0.0,0.0,0.0,0.0,0.0,0.0,0.0,0.0,0.0,0.0,0.0,0.0,0.0,0.0,0.0,0.0,0.0,0.0,0.0,0.0,0.0,0.0,0.0,0.0,-0.6186,0.0,0.0,0.0,0.0,0.0,0.0,0.0,0.0,0.0,0.0,0.0,0.7931,0.7489,0.7492,0.7607,0.7702,0.7426,0.7331,0.0,0.0,0.0,0.0,0.0,0.0,0.0,0.0,0.0,0.0,0.0,0.0,0.0,0.0,0.3008,0.3207,0.3326,0.3541,0.3882,0.0,0.0,0.0,0.0,0.0,0.0,0.0,0.0,0.0,0.0,0.0,0.0,0.0,0.0,-0.254,0.0,-0.175,0.0,0.0,0.0,0.0,0.0,0.0,0.0,0.0,0.4672,0.5514,0.5385,0.5714,0.5604,0.0,0.5253,0.4429,0.0,0.0,0.0,0.0,0.0,0.0,0.0,0.0,0.3327,0.4376,0.4517,0.2383,-0.2005,-0.4557,-0.7348,-1.0535,-1.3684,-1.5312,-1.529,-1.5231,-1.4926,0.0,0.0,0.0,0.0,0.0,0.0,0.0,0.0,0.0,0.0,0.0,0.0,0.0,0.0,0.0,0.0,0.0,0.0,0.0,0.0,0.0,0.0,0.0,-0.3232,0.0,0.0,0.0,0.0,0.0,0.0,0.0,0.0,0.0,0.8021,0.8374,0.8496,0.7946,0.8046,0.8103,0.8013,0.0,0.0,0.0,0.0,0.0,0.0,0.0,0.675,0.647,0.5687,0.4918,0.4416,0.4513,0.4536,0.4303,0.0,0.0,0.4214,0.4217,0.439,0.4788,0.4702,0.4714,0.52,0.524,0.5222,0.0,0.0,0.0,0.0,0.0,0.0,0.0,0.0,-0.2398,-0.1642,0.0,-0.0332,0.0,0.0,0.0,0.0,0.0,0.2519,0.0,0.0,0.5524,0.6264,0.5916,0.6264,0.6107,0.5434,0.5695,0.57,0.5401,0.4858,0.0,0.0,0.0,0.0,0.0,0.0,0.4896,0.3999,0.4531,0.2782,-0.156,-0.4324,-0.733,-1.0667,-1.374,-1.5323,-1.5299,-1.5248,-1.5226,-1.5284,-1.5101,0.0,0.0,0.0,0.0,0.0,0.0,0.0,0.0,0.0,0.0,0.0,0.0,0.0,0.0,0.0,0.0,0.0,0.0,0.0,0.0,-0.2279,0.0,0.0,0.0,0.0,0.0,0.0,0.0,0.0,0.0,0.0,0.8895,0.9208,0.9319,0.8765,0.0,0.0,0.0,0.0,0.8373,0.8373,0.8126,0.7885,0.7783,0.7456,0.7083,0.677,0.0,0.0,0.4657,0.4961,0.5176,0.4675,0.5144,0.5434,0.4976,0.4418,0.4376,0.5635,0.5481,0.5462,0.6165,0.6282,0.6277,0.5372,0.0,0.0,0.0,0.0,0.2307,0.2427,0.2905,0.2646,0.2636,0.281,0.2871,0.0,0.0,0.0,0.0,0.0,0.0,0.5224,0.5261,0.6059,0.6234,0.5836,0.5896,0.5684,0.5208,0.5266,0.5284,0.5195,0.4868,0.4529,0.4285,0.0,0.0,0.0,0.0,0.4505,0.4409,0.4312,0.0646,-0.6732,-0.5561,-0.7517,-1.2966,-1.3993,-1.4733,-1.526,-1.5295,-1.526,-1.5226,-1.5174,0.0,0.0,0.0,0.0,0.0,0.0,0.0,0.0,0.0,0.0,0.0,0.0,0.0,0.0,0.0,0.0,0.0,0.0,0.0,0.036,0.2497,0.397,0.0,0.0,0.0,0.0,0.0,0.0,0.0,0.0,0.0,0.9765,0.9843,0.9686,0.0,0.0,0.8822,0.8414,0.8373,0.8373,0.8373,0.8258,0.0,0.0,0.7874,0.732,0.7112,0.6414,0.5865,0.5765,0.588,0.5968,0.5793,0.5903,0.5963,0.5829,0.5671,0.5783,0.6342,0.6352,0.6277,0.6438,0.6412,0.6406,0.835,0.7593,0.6649,0.6377,0.6494,0.5805,0.5494,0.5439,0.5092,0.4849,0.4628,0.4808,0.4493,0.3789,0.3654,0.0,0.0,0.0,0.6083,0.6122,0.6326,0.6222,0.5886,0.5799,0.5503,0.4979,0.5138,0.5107,0.4918,0.4774,0.4773,0.4916,0.0,0.0,0.4987,0.4621,0.4441,0.4403,0.3951,0.0081,-0.718,-0.7661,-0.9652,-1.3393,-1.3594,-1.3816,-1.4307,-1.46,-1.4786,-1.4781,-1.5047,-1.5204,0.0,0.0,0.0,0.0,0.0,0.0,0.0,0.0,0.0,0.0,0.0,-1.0505,-0.85,0.0,0.0,0.0,-0.1165,0.1769,0.3761,0.5055,0.0,0.0,0.0,0.0,0.0,0.0,0.0,0.9806,1.0089,1.0288,1.036,1.0093,0.9743,0.9421,0.9243,0.9072,0.8869,0.0,0.8358,0.8446,0.8206,0.7989,0.8003,0.7601,0.7191,0.6833,0.637,0.6042,0.6126,0.6139,0.6175,0.6265,0.6252,0.6301,0.6471,0.6564,0.6585,0.6683,0.6728,0.6722,0.6814,0.682,0.6774,0.8873,0.8773,0.8084,0.7788,0.7615,0.6919,0.6293,0.5761,0.5595,0.5377,0.5159,0.5687,0.6145,0.6429,0.6153,0.0,0.5882,0.6068,0.6199,0.6291,0.637,0.6233,0.5986,0.5873,0.5473,0.48,0.5143,0.5072,0.4624,0.4617,0.4702,0.4785,0.479,0.4934,0.5201,0.4902,0.4543,0.414,0.357,0.0642,-0.4668,-0.9806,-1.2551,-1.2695,-1.2694,-1.2761,-1.2916,-1.3596,-1.4058,-1.4201,-1.4845,-1.5224,-1.5294,0.0,0.0,0.0,0.0,0.0,0.0,0.0,0.0,0.0,0.0,0.0,0.0,0.0,0.0,0.0,0.272,0.0,0.523,0.593,0.0,0.0,0.0,0.7954,0.8105,0.9366,1.0225,1.0224,0.0,0.0,1.0668,1.0051,0.9712,0.9983,0.9667,0.9432,0.9467,0.8846,0.8447,0.8613,0.8142,0.7639,0.7423,0.7137,0.6841,0.6435,0.6182,0.6153,0.6101,0.6114,0.6165,0.6416,0.6422,0.655,0.6979,0.7047,0.6985,0.6842,0.6787,0.6921,0.7286,0.7377,0.7342,0.9305,0.9004,0.883,0.8324,0.7596,0.7172,0.6722,0.6305,0.5933,0.5593,0.5296,0.5491,0.5742,0.5967,0.616,0.6091,0.5835,0.6237,0.6368,0.6291,0.6264,0.6047,0.5693,0.5414,0.5045,0.4587,0.4675,0.4705,0.4657,0.4324,0.4335,0.4632,0.452,0.4626,0.489,0.4538,0.4178,0.3811,0.3192,0.0561,-0.4095,-0.784,-1.0405,-1.1768,-1.1799,-1.2428,-1.3722,-1.394,-1.4322,-1.4985,-1.5173,-1.5279,-1.5269,-1.4068,0.0,0.0,0.0,0.0,0.0,0.0,0.0,0.0,0.0,-0.6381,-0.3245,0.0,-0.129,0.0,0.4115,0.5675,0.6213,0.6848,0.0,0.0,0.8281,0.8861,0.9196,0.9548,0.9741,0.9697,0.9975,1.0097,0.9825,1.0262,1.0473,1.0203,0.978,0.9448,0.9169,0.9256,0.9286,0.925,0.8805,0.8405,0.8234,0.7425,0.6782,0.6593,0.6556,0.6626,0.6852,0.7104,0.7286,0.7356,0.737,0.7412,0.7496,0.7545,0.7496,0.7454,0.7461,0.7503,0.7628,0.7538,0.7489,0.9299,0.9078,0.8903,0.8379,0.7654,0.7207,0.6697,0.6216,0.5783,0.5531,0.5462,0.5868,0.6052,0.6083,0.6214,0.6183,0.606,0.6307,0.6376,0.6283,0.6068,0.5813,0.5575,0.5017,0.4667,0.4507,0.4478,0.4495,0.446,0.4207,0.419,0.4378,0.4408,0.4462,0.4575,0.4316,0.4093,0.3822,0.1155,-0.1546,-0.4284,-0.765,-0.9912,-1.0891,-1.1307,-1.1935,-1.2908,-1.3609,-1.4221,-1.4702,-1.5085,-1.5283,-1.5276,-1.4783,-1.4535,0.0,0.0,0.0,0.0,0.0,0.0,0.0,0.0,0.0,0.0,0.0,0.1574,0.402,0.5484,0.6484,0.6951,0.7718,0.8268,0.8495,0.9156,0.9672,0.9876,0.9903,0.9838,0.9815,0.9695,0.9664,0.9764,0.9912,1.0056,1.0134,0.9975,0.9853,0.9836,0.9744,0.963,0.9611,0.9179,0.8771,0.8662,0.7931,0.7309,0.7165,0.7065,0.707,0.717,0.7375,0.7543,0.7634,0.767,0.7753,0.7961,0.8002,0.8044,0.8242,0.8283,0.8209,0.8044,0.7953,0.7946,0.8986,0.8912,0.8572,0.8118,0.7616,0.7114,0.6578,0.5983,0.5652,0.5557,0.5732,0.6397,0.6582,0.6382,0.6376,0.6345,0.6315,0.6315,0.6315,0.6297,0.5805,0.5566,0.5558,0.4702,0.4354,0.4455,0.4455,0.4362,0.4207,0.4145,0.4147,0.4113,0.4306,0.4359,0.4274,0.4227,0.4045,0.3706,-0.1,-0.3852,-0.4727,-0.8059,-0.9966,-1.0214,-1.1047,-1.1544,-1.1687,-1.3171,-1.4069,-1.4186,-1.4906,-1.5369,-1.5478,-1.5991,-1.6023,0.0,-1.3705,0.0,0.0,0.0,0.0,0.0,0.0,0.0,0.0,0.2066,0.4058,0.5583,0.6768,0.7508,0.7687,0.8542,0.9096,0.9177,0.9843,1.0302,1.0272,1.0166,1.0087,1.0035,0.9408,0.9241,0.978,0.9414,0.9447,1.0016,1.0247,1.0421,1.072,1.0253,0.9849,0.9853,0.944,0.906,0.8664,0.8378,0.8131,0.7788,0.766,0.7483,0.744,0.7476,0.7549,0.7844,0.7919,0.8044,0.8414,0.8463,0.8578,0.8895,0.8935,0.8822,0.8578,0.8455,0.861,0.839,0.8036,0.7972,0.7562,0.6981,0.688,0.6746,0.6643,0.6858,0.6657,0.6188,0.6206,0.626,0.6337,0.6598,0.6568,0.6315,0.6399,0.646,0.6435,0.5751,0.5465,0.5457,0.4694,0.4293,0.424,0.4138,0.4145,0.4207,0.3931,0.3952,0.4254,0.435,0.4296,0.415,0.0,0.0,0.0,-0.0261,-0.2633,-0.4753,-0.6896,-0.8706,-1.0136,-1.1033,0.0,-1.2459,-1.3457,-1.4312,-1.5018,-1.5261,0.0,0.0,0.0,0.0,0.0,0.0,0.0,0.0,0.0,0.0,0.0,0.1762,0.2267,0.2441,0.4233,0.5728,0.6637,0.7651,0.8423,0.8673,0.9187,0.9637,1.0,1.0205,1.0271,1.022,0.9887,0.9509,0.917,0.9294,0.9293,0.9296,0.9881,1.0422,1.0298,1.052,1.0768,1.0899,1.075,1.0671,1.0623,1.0203,0.9582,0.8781,0.8693,0.853,0.8086,0.816,0.8282,0.8278,0.8442,0.8616,0.8732,0.8773,0.8732,0.8854,0.8903,0.8935,0.8967,0.9016,0.8975,0.8903,0.8895,0.8895,0.7942,0.0,0.7566,0.7296,0.0,0.72,0.7165,0.7005,0.7045,0.6779,0.6354,0.6254,0.6176,0.6114,0.6407,0.6468,0.6315,0.6437,0.646,0.6358,0.577,0.5582,0.5724,0.4967,0.4713,0.4887,0.4826,0.4757,0.4657,0.451,0.4452,0.4442,0.4375,0.4304,0.4199,0.3796,0.3022,0.2013,-0.1129,-0.3409,-0.4825,-0.7461,-0.9306,-1.0172,0.0,0.0,0.0,0.0,0.0,0.0,0.0,0.0,0.0,0.0,0.0,-1.3464,-1.0857,-0.7904,-0.4704,-0.2163,0.0091,0.2054,0.3385,0.421,0.4453,0.5668,0.6678,0.7309,0.81,0.8675,0.8878,0.9509,1.004,1.0283,1.0487,1.0578,1.052,1.0071,0.9785,0.9831,0.9766,0.9774,1.0102,1.0695,1.1129,1.1151,1.1337,1.1463,1.1426,1.1147,1.0881,1.0881,1.0679,1.0328,0.9866,0.9664,0.9469,0.9068,0.897,0.8932,0.8803,0.8887,0.9016,0.9016,0.9016,0.9056,0.9248,0.9279,0.943,0.9795,0.9952,1.0021,1.0137,0.9746,0.9359,0.7644,0.768,0.7393,0.7196,0.7173,0.7539,0.7499,0.7224,0.0,0.0,0.0,0.6372,0.6214,0.5983,0.6237,0.6315,0.6315,0.649,0.6499,0.6313,0.5926,0.5846,0.599,0.5349,0.5238,0.5609,0.5592,0.544,0.5176,0.5168,0.4985,0.473,0.4511,0.437,0.4204,0.3239,0.2481,0.1844,-0.2368,-0.4742,-0.5099,-0.8628,-1.0508,-1.0442,-1.1135,-1.1831,-1.252,-1.3345,-1.4217,-1.5109,-1.5117,-1.5266,-1.5604,-1.5779,-1.4606,-1.1828,-0.9565,-0.677,-0.315,-0.0641,0.1338,0.2833,0.4167,0.5197,0.5823,0.6678,0.7342,0.7829,0.8513,0.899,0.9062,0.9873,1.0438,1.0505,1.0712,1.087,1.0909,1.0358,1.0113,1.0609,1.031,1.0355,1.1203,1.1434,1.1653,1.1998,1.2018,1.2044,1.1902,1.1472,1.1185,1.1174,1.1174,1.1078,1.0992,1.0847,1.0601,1.007,0.9895,0.9716,0.9368,0.9156,0.9147,0.9288,0.9213,0.9437,0.9758,0.9933,1.0167,1.0867,1.0992,1.1105,1.133,1.0667,1.0089,0.7616,0.7388,0.748,0.7264,0.6872,0.7058,0.7235,0.7314,0.6969,0.6665,0.6494,0.6484,0.6399,0.6245,0.6399,0.6399,0.6307,0.6634,0.6665,0.0,0.6347,0.6257,0.6146,0.5711,0.5566,0.5675,0.555,0.5507,0.5431,0.5099,0.5033,0.5146,0.4903,0.4538,0.414,0.2704,0.1998,0.1984,-0.2856,-0.5565,-0.5894,-0.9501,-1.1394,-1.1324,-1.1436,-1.1508,-1.1594,-1.2478,-1.337,-1.4237,-1.4265,-1.4939,-1.6318,-1.4076,-1.2591,-1.2255,-0.764,-0.4166,-0.2934,-0.0203,0.2172,0.3721,0.4402,0.4968,0.576,0.7079,0.8023,0.8391,0.9332,1.0079,1.0118,1.0505,1.0926,1.1191,1.0927,1.0832,1.1078,1.0337,1.0015,1.0654,1.055,1.077,1.1452,1.1862,1.2118,1.2126,1.2259,1.1976,1.1607,1.1684,1.1898,1.1932,1.1932,1.1847,1.1516,1.1605,1.1244,1.084,1.0626,1.0424,1.0051,0.9696,0.962,0.9992,0.9959,1.0113,1.0535,1.1029,1.1116,1.1328,1.1339,1.1398,1.1535,1.1265,1.1062,0.7598,0.753,0.7618,0.751,0.7283,0.7362,0.7305,0.7151,0.6994,0.6945,0.6943,0.655,0.6468,0.656,0.6521,0.646,0.6407,0.6573,0.6551,0.6405,0.6219,0.6217,0.6311,0.6067,0.6053,0.6261,0.6317,0.6121,0.5791,0.5685,0.5538,0.5282,0.4728,0.4197,0.3607,0.253,0.1516,0.049,-0.364,-0.5651,-0.5393,-0.9851,-1.2018,-1.1521,-1.1469,-1.1693,-1.2145,-1.209,-1.2484,-1.3416,-1.387,-1.3827,-1.3112,-1.2205,-1.0507,-0.7856,-0.5015,-0.2487,-0.045,0.1656,0.3209,0.4106,0.4732,0.5299,0.5853,0.6633,0.7289,0.7785,0.8867,0.9479,0.9281,1.0403,1.1073,1.0688,1.0818,1.0911,1.0741,1.0325,1.0403,1.1298,1.1456,1.1802,1.2837,1.3167,1.3285,1.3272,1.3023,1.2484,1.177,1.1932,1.1944,1.1328,1.1205,1.1138,1.1058,1.1002,1.0796,1.046,1.0414,1.0309,1.0108,0.9866,0.9877,1.001,1.005,1.0098,1.0355,1.0495,1.0802,1.1313,1.1382,1.1453,1.1629,1.1687,1.1438,0.745,0.7488,0.7469,0.749,0.7502,0.7559,0.7383,0.7077,0.7047,0.7195,0.73,0.6676,0.6499,0.6712,0.6621,0.659,0.6643,0.6703,0.6673,0.6579,0.6381,0.6435,0.6657,0.6475,0.6486,0.671,0.6803,0.6591,0.6193,0.6217,0.5991,0.5383,0.4569,0.3908,0.3364,0.2096,0.0722,-0.0909,-0.4631,-0.629,-0.5785,-1.0155,-1.2258,-1.1834,-1.1551,-1.1761,-1.2397,-1.1828,-1.1801,-1.2526,-1.2791,-1.2022,-1.0239,-0.9799,-0.7826,-0.3964,-0.253,-0.0784,0.1947,0.3222,0.4019,0.4372,0.5011,0.5589,0.6032,0.6242,0.6663,0.7416,0.8496,0.8962,0.9002,1.0207,1.0961,1.0343,1.085,1.1158,1.0857,1.0755,1.1178,1.2309,1.2455,1.2867,1.3911,1.4164,1.3925,1.3695,1.3462,1.2914,1.2217,1.2127,1.1723,1.1011,1.0713,1.0908,1.0759,1.0826,1.0711,1.0369,1.035,1.0309,1.0189,0.9993,0.9993,1.0037,1.0057,1.0164,1.0177,1.0329,1.0692,1.131,1.1458,1.1491,1.1753,1.1729,1.1509,0.7069,0.6817,0.6854,0.6828,0.6941,0.7176,0.7237,0.7159,0.7187,0.7303,0.7351,0.6781,0.6513,0.656,0.6703,0.6885,0.7065,0.7303,0.7383,0.7393,0.7492,0.7463,0.7251,0.6961,0.6702,0.6457,0.643,0.6453,0.6491,0.6259,0.5979,0.5645,0.4647,0.4051,0.3619,0.1084,-0.0586,-0.1058,-0.5911,-0.8418,-0.8468,-1.0487,-1.1925,-1.2567,-1.1876,-1.1496,-1.169,-1.1575,-1.1601,-1.1497,-1.015,-0.9502,-0.9583,-0.6601,-0.4223,-0.3383,-0.0845,0.1531,0.3207,0.3619,0.4066,0.4831,0.5066,0.5515,0.6261,0.6386,0.6933,0.8081,0.8975,0.9422,0.9818,1.0299,1.0734,1.0865,1.1277,1.1593,1.1864,1.2201,1.2645,1.3195,1.3285,1.3557,1.4141,1.3926,1.3347,1.3053,1.3065,1.2822,1.2204,1.206,1.1939,1.1465,1.1667,1.1983,1.1893,1.1997,1.1567,1.1178,1.1131,1.0894,1.052,1.0189,0.999,1.0355,1.041,1.052,1.0834,1.1247,1.144,1.149,1.1595,1.165,1.1711,1.1746,1.1554,0.7245,0.7129,0.7106,0.713,0.7206,0.7608,0.7417,0.6907,0.7313,0.7229,0.6742,0.6528,0.6702,0.7157,0.6967,0.7072,0.7403,0.7559,0.7579,0.7501,0.7559,0.7367,0.7018,0.6986,0.6749,0.6381,0.6396,0.6499,0.6556,0.6247,0.582,0.5334,0.4555,0.3994,0.3506,0.2006,-0.0023,-0.2647,-0.4909,-0.7207,-0.9511,-1.1338,-1.2418,-1.262,-1.2377,-1.2475,-1.2822,-1.2548,-1.1579,-1.0083,-0.9637,-0.8148,-0.5195,-0.3901,-0.2426,-0.0625,0.1145,0.2669,0.3889,0.4083,0.4431,0.5024,0.5413,0.5929,0.657,0.6969,0.7624,0.856,0.8973,0.9119,0.9346,1.0568,1.1368,1.1156,1.1886,1.2614,1.2566,1.2706,1.3095,1.3941,1.4098,1.4298,1.464,1.4364,1.3708,1.3138,1.3094,1.2955,1.2313,1.2206,1.2207,1.2075,1.2253,1.2118,1.1802,1.1599,1.1486,1.1279,1.1162,1.0992,1.0833,1.0611,1.0495,1.0672,1.0704,1.0742,1.0808,1.1031,1.1242,1.1442,1.1654,1.1668,1.179,1.1939,1.1844,0.7374,0.7195,0.7299,0.7324,0.7337,0.784,0.7602,0.6939,0.7381,0.7241,0.6627,0.6554,0.7065,0.778,0.7313,0.7385,0.7895,0.7842,0.7782,0.7733,0.7605,0.7347,0.7076,0.6966,0.6681,0.6254,0.6244,0.634,0.6423,0.6143,0.5732,0.5281,0.4546,0.391,0.3298,0.1868,-0.072,-0.3672,-0.5122,-0.7339,-0.9998,-1.1408,-1.2155,-1.2312,-1.2299,-1.2613,-1.3232,-1.275,-1.123,-0.8639,-0.8593,-0.6518,-0.2033,-0.1734,-0.0657,0.1577,0.2477,0.332,0.4339,0.4481,0.4829,0.5513,0.5989,0.6523,0.72,0.7762,0.8458,0.9307,0.9498,0.958,0.9643,1.1261,1.2069,1.1667,1.2912,1.3714,1.352,1.3697,1.4254,1.4825,1.4934,1.4827,1.4805,1.4514,1.4073,1.3372,1.3404,1.3423,1.2822,1.2781,1.287,1.2852,1.2852,1.2504,1.1761,1.1681,1.1527,1.1439,1.1423,1.1339,1.1179,1.1088,1.101,1.1118,1.1071,1.1098,1.1212,1.1202,1.127,1.157,1.1779,1.1875,1.198,1.2176,1.2293,0.7333,0.6792,0.7074,0.7234,0.7106,0.7602,0.7622,0.735,0.7451,0.7509,0.7448,0.7012,0.7435,0.8452,0.7776,0.7962,0.8655,0.8197,0.8111,0.8302,0.7804,0.7646,0.7896,0.7234,0.6548,0.5972,0.5972,0.5977,0.6047,0.597,0.5934,0.588,0.4703,0.3982,0.3232,-0.0644,-0.3505,-0.4117,-0.741,-0.9849,-1.0132,-1.0224,-1.0686,-1.132,-1.1345,-1.1455,-1.1629,-1.1601,-1.039,-0.777,-0.6122,-0.4035,-0.1776,0.0061,0.1473,0.2519,0.2706,0.3403,0.4689,0.4781,0.5222,0.6415,0.676,0.7249,0.8269,0.8754,0.9407,1.0354,1.1036,1.141,1.1581,1.2414,1.3078,1.3219,1.4173,1.4806,1.4898,1.5534,1.6134,1.5838,1.56,1.519,1.4242,1.4154,1.4058,1.3672,1.364,1.3746,1.3701,1.3693,1.3707,1.3707,1.3651,1.3435,1.2655,1.245,1.2371,1.2266,1.2135,1.1979,1.1828,1.17,1.1636,1.1629,1.1707,1.1749,1.17,1.1785,1.1938,1.2143,1.2271,1.2372,1.2486,1.2329,1.249,0.8632,0.8474,0.8515,0.8495,0.8504,0.8925,0.8555,0.7738,0.8156,0.7877,0.7212,0.7027,0.7469,0.8258,0.8001,0.824,0.8726,0.8132,0.8073,0.8395,0.7938,0.7677,0.7555,0.7159,0.6743,0.6315,0.6278,0.6511,0.6814,0.6704,0.6517,0.6212,0.5202,0.4528,0.37,0.0674,-0.1803,-0.3413,-0.6436,-0.8566,-0.9579,-0.9592,-0.9735,-1.0125,-1.0874,-1.1566,-1.214,-1.2238,-1.0619,-0.7051,-0.5915,-0.3738,-0.0349,0.1215,0.2354,0.3308,0.3486,0.4091,0.5363,0.5564,0.5967,0.6981,0.7442,0.8116,0.9107,0.9805,1.0505,1.1318,1.2194,1.2947,1.3805,1.4139,1.4337,1.4673,1.5151,1.5582,1.5743,1.589,1.5841,1.5799,1.5626,1.5201,1.4843,1.4553,1.4344,1.4155,1.4169,1.4224,1.4243,1.4243,1.4246,1.4243,1.4232,1.4146,1.3907,1.3506,1.3284,1.3143,1.3008,1.2956,1.2835,1.2693,1.2604,1.2553,1.2567,1.2604,1.2626,1.2715,1.2838,1.2873,1.3009,1.3039,1.3076,1.3103,1.3191,0.8987,0.9119,0.9295,0.9313,0.9297,0.9817,0.9504,0.8606,0.8822,0.8426,0.7675,0.7435,0.7751,0.8287,0.8168,0.8408,0.888,0.8239,0.8106,0.843,0.7985,0.7674,0.7557,0.7358,0.7175,0.6937,0.69,0.7126,0.7418,0.7271,0.7087,0.6898,0.6015,0.5263,0.4351,0.1906,-0.0441,-0.2434,-0.4975,-0.702,-0.8093,-0.8346,-0.8425,-0.8633,-0.9383,-1.0408,-1.1594,-1.1282,-0.9602,-0.6557,-0.5222,-0.2876,0.0798,0.2004,0.2914,0.3886,0.4106,0.488,0.6275,0.6572,0.7019,0.7955,0.861,0.9336,1.0175,1.0931,1.162,1.2329,1.3176,1.4215,1.5015,1.5381,1.5566,1.5835,1.5946,1.6061,1.6298,1.6063,1.5926,1.5839,1.546,1.5179,1.5103,1.4881,1.4734,1.4692,1.469,1.4691,1.4735,1.4728,1.4752,1.4756,1.4763,1.473,1.4584,1.4354,1.4036,1.3871,1.3658,1.3683,1.3694,1.3558,1.3482,1.3467,1.3482,1.3511,1.3573,1.3659,1.3697,1.3703,1.379,1.3835,1.389,1.3955,1.3962,0.8265,0.8543,0.9169,0.9495,0.9515,1.0191,1.0302,0.9952,0.9374,0.9125,0.8835,0.8288,0.8321,0.8784,0.835,0.851,0.9083,0.863,0.8429,0.8517,0.7971,0.7768,0.7802,0.776,0.7628,0.7504,0.7497,0.7517,0.7684,0.7443,0.7359,0.7485,0.6894,0.5954,0.4917,0.2373,0.0322,-0.1313,-0.3832,-0.5417,-0.5577,-0.6264,-0.6624,-0.6648,-0.6749,-0.7653,-0.9491,-0.8404,-0.7098,-0.5395,-0.3414,-0.1078,0.1428,0.2549,0.3421,0.4376,0.4693,0.5755,0.7451,0.7911,0.8468,0.9416,1.019,1.0759,1.1386,1.2084,1.2689,1.3189,1.3959,1.4787,1.5301,1.579,1.6319,1.6833,1.6467,1.6244,1.636,1.6558,1.6526,1.5901,1.5376,1.5056,1.5009,1.5016,1.4982,1.499,1.5011,1.5023,1.5048,1.5044,1.518,1.5224,1.5161,1.5082,1.5124,1.5136,1.4833,1.456,1.4288,1.4185,1.4191,1.4088,1.4011,1.3992,1.3992,1.4043,1.4126,1.4222,1.4251,1.4297,1.4438,1.4475,1.4472,1.4456,1.4493,1.0087,1.0259,1.035,1.0671,1.1068,1.1301,1.1103,1.065,1.0385,0.9818,0.9083,0.8723,0.8784,0.8994,0.8816,0.8942,0.9298,0.9071,0.8974,0.8885,0.8436,0.8005,0.7719,0.7503,0.7167,0.681,0.6885,0.7279,0.7599,0.7004,0.6789,0.7112,0.6642,0.6061,0.5515,0.3336,0.164,0.0558,-0.1961,-0.3588,-0.4072,-0.4346,-0.4475,-0.4481,-0.4496,-0.4922,-0.5596,-0.5954,-0.5699,-0.4778,-0.232,0.027,0.2553,0.3641,0.4611,0.5894,0.6511,0.7576,0.9218,0.9623,1.0006,1.0878,1.1455,1.1982,1.2582,1.3165,1.3586,1.3863,1.4373,1.4938,1.5525,1.5497,1.5864,1.6736,1.6373,1.6026,1.6036,1.5848,1.5575,1.5381,1.5188,1.5058,1.5018,1.5046,1.5026,1.5025,1.5032,1.5048,1.5054,1.5104,1.5129,1.5171,1.5214,1.5273,1.5234,1.5214,1.5062,1.4891,1.4733,1.4609,1.4606,1.4604,1.4532,1.4482,1.4506,1.4533,1.4639,1.4698,1.4705,1.4748,1.4779,1.4818,1.4856,1.4823,1.4769,1.0458,1.056,1.0732,1.104,1.1501,1.1694,1.1631,1.1274,1.0983,1.0371,0.9662,0.9294,0.921,0.9275,0.9273,0.937,0.9492,0.9473,0.9462,0.9312,0.8646,0.8159,0.7788,0.7351,0.7177,0.6996,0.685,0.7209,0.7926,0.7228,0.6998,0.7254,0.6928,0.6543,0.6143,0.4588,0.3306,0.2344,0.0419,-0.0956,-0.1394,-0.1805,-0.2024,-0.2006,-0.2015,-0.2219,-0.2589,-0.2804,-0.3038,-0.2777,-0.0427,0.2264,0.4301,0.5036,0.5851,0.6937,0.7899,0.897,1.0481,1.1045,1.1595,1.2286,1.2705,1.3058,1.3536,1.4004,1.4322,1.4415,1.4675,1.5015,1.5327,1.5214,1.5348,1.5916,1.5773,1.5601,1.5559,1.5293,1.5104,1.5083,1.5082,1.507,1.5059,1.499,1.4985,1.499,1.4945,1.497,1.4985,1.5042,1.5059,1.5078,1.5158,1.519,1.5196,1.5215,1.5218,1.5165,1.5096,1.503,1.4995,1.4983,1.4937,1.4892,1.489,1.487,1.4944,1.4971,1.4996,1.5038,1.498,1.4957,1.4906,1.4875,1.4815,0.9656,0.9645,1.0395,1.0718,1.0807,1.1485,1.1794,1.1763,1.1156,1.0745,1.0494,0.9876,0.9587,0.9617,0.9584,0.9639,0.9756,0.9721,0.9746,0.9472,0.8728,0.8126,0.8104,0.7388,0.7316,0.7772,0.7199,0.7324,0.8039,0.7668,0.7822,0.7673,0.7587,0.7437,0.6587,0.5768,0.4871,0.3963,0.2759,0.2054,0.1881,0.1109,0.0636,0.0594,0.0598,0.0319,-0.0018,0.0763,0.0731,-0.0309,0.226,0.4448,0.5789,0.6487,0.7007,0.774,0.8731,0.9953,1.1201,1.2249,1.3002,1.3478,1.3793,1.4124,1.4184,1.4464,1.4688,1.4662,1.4878,1.4971,1.4904,1.4859,1.4912,1.482,1.5047,1.5095,1.5011,1.4968,1.4941,1.494,1.5009,1.5037,1.4967,1.4874,1.4851,1.4897,1.4814,1.4803,1.4859,1.4885,1.4966,1.4999,1.4986,1.5041,1.5014,1.5045,1.5069,1.5143,1.5135,1.5132,1.5152,1.5154,1.5153,1.5131,1.5085,1.513,1.5109,1.5057,1.4988,1.4915,1.4888,1.492,1.4846,1.4731,1.4691,0.9952,0.99,1.0067,1.0464,1.0953,1.1241,1.1358,1.1373,1.1136,1.066,1.0256,0.9957,0.9804,0.9863,0.9736,0.9739,0.9779,0.966,0.9602,0.9495,0.8544,0.8167,0.8069,0.7305,0.6974,0.7191,0.6883,0.7092,0.7773,0.7111,0.7012,0.7493,0.7259,0.6981,0.6421,0.6201,0.5669,0.4908,0.4203,0.3561,0.3219,0.2945,0.279,0.2796,0.2755,0.2635,0.2554,0.3388,0.377,0.337,0.4438,0.5678,0.6528,0.7261,0.7913,0.8682,1.0112,1.1361,1.2262,1.3232,1.3907,1.4216,1.431,1.4511,1.4607,1.4753,1.4833,1.4782,1.48,1.4768,1.4722,1.4655,1.4607,1.4491,1.4608,1.4742,1.4763,1.4733,1.4679,1.457,1.4548,1.4555,1.4521,1.4438,1.4405,1.4518,1.4526,1.4493,1.4553,1.4614,1.4625,1.4663,1.4682,1.4772,1.4841,1.4868,1.4927,1.5009,1.5037,1.5042,1.5061,1.5067,1.5061,1.5028,1.495,1.4951,1.4922,1.4868,1.4817,1.4744,1.4703,1.4659,1.4485,1.435,1.4365,1.007,1.0037,0.9959,1.0193,1.0604,1.0643,1.0645,1.0641,1.0597,1.0367,0.9962,0.9825,0.9796,0.981,0.9653,0.9594,0.9625,0.9432,0.9344,0.9234,0.8574,0.7986,0.7506,0.6801,0.6749,0.6966,0.6352,0.6479,0.6875,0.6267,0.6222,0.6567,0.653,0.6535,0.6799,0.6136,0.5932,0.5617,0.5117,0.4585,0.4418,0.4256,0.4183,0.4183,0.4196,0.4187,0.4309,0.5063,0.5739,0.6127,0.6445,0.6818,0.7615,0.8127,0.8621,0.9142,1.0695,1.1845,1.2409,1.3403,1.4171,1.4314,1.4387,1.4475,1.4561,1.4606,1.4558,1.4651,1.4512,1.4421,1.4383,1.4258,1.4118,1.402,1.4064,1.4155,1.4294,1.4297,1.4259,1.4149,1.4134,1.4126,1.4078,1.3993,1.4034,1.41,1.4144,1.4144,1.4165,1.4216,1.429,1.4331,1.4366,1.4449,1.4542,1.4592,1.4563,1.4672,1.4682,1.4722,1.4878,1.4901,1.4892,1.484,1.4799,1.4738,1.4691,1.4643,1.4605,1.4528,1.4455,1.4334,1.4156,1.3956,1.398,1.0319,1.0302,1.0177,1.0093,1.0131,1.0012,0.9994,0.9914,0.9891,0.9844,0.9754,0.9626,0.9575,0.958,0.9415,0.9328,0.9278,0.909,0.8962,0.8815,0.8448,0.7896,0.7046,0.6741,0.6952,0.7236,0.6018,0.594,0.6249,0.5756,0.5512,0.5835,0.5804,0.6229,0.6474,0.5803,0.5719,0.5988,0.5305,0.505,0.5145,0.5059,0.4952,0.4932,0.4952,0.5026,0.5317,0.6031,0.69,0.8017,0.767,0.7845,0.8643,0.8819,0.8866,0.91,1.0286,1.1368,1.1797,1.301,1.3965,1.4036,1.4091,1.4119,1.4219,1.4113,1.4077,1.418,1.4049,1.389,1.3832,1.3663,1.3522,1.3458,1.3344,1.3393,1.358,1.3748,1.381,1.3716,1.3792,1.381,1.378,1.3721,1.3724,1.3885,1.3874,1.387,1.3899,1.3924,1.3979,1.4034,1.4074,1.4113,1.4208,1.4289,1.4241,1.4229,1.4205,1.4286,1.4578,1.4644,1.4654,1.4604,1.4471,1.4423,1.4412,1.4384,1.4368,1.4281,1.4177,1.4037,1.3856,1.3611,1.3536,1.1702,1.1698,1.1049,1.0753,1.0614,0.9988,0.9726,0.9794,0.9533,0.9489,0.951,0.9408,0.9367,0.9349,0.9148,0.9057,0.8967,0.8751,0.8514,0.8287,0.8238,0.7998,0.7487,0.7136,0.7332,0.7437,0.6492,0.6186,0.639,0.5855,0.5585,0.5664,0.5542,0.5684,0.5793,0.5121,0.4821,0.5403,0.4811,0.4796,0.5338,0.5384,0.5366,0.5387,0.5397,0.5553,0.5812,0.6188,0.6642,0.7128,0.756,0.7843,0.807,0.8284,0.8384,0.8669,0.9543,1.0592,1.1367,1.2282,1.3229,1.3711,1.3799,1.3839,1.3616,1.3601,1.348,1.3389,1.326,1.3244,1.3244,1.3039,1.2967,1.2929,1.2818,1.2706,1.2783,1.3125,1.341,1.3476,1.3443,1.3443,1.3509,1.341,1.3443,1.3603,1.3634,1.3634,1.3634,1.3634,1.3678,1.3754,1.3768,1.381,1.3913,1.3987,1.3941,1.4002,1.4008,1.3924,1.4204,1.446,1.4496,1.433,1.4077,1.4141,1.4481,1.4208,1.4207,1.4068,1.3902,1.3803,1.3633,1.336,1.3571,1.1727,1.1967,1.1517,1.1059,1.0585,1.0132,0.977,0.9525,0.935,0.9259,0.9258,0.9101,0.9026,0.8988,0.8779,0.8646,0.8587,0.8406,0.8147,0.7911,0.7855,0.7812,0.7548,0.7163,0.7051,0.7241,0.6555,0.6248,0.5995,0.5554,0.5168,0.5442,0.5145,0.5104,0.5273,0.4633,0.4481,0.4639,0.4395,0.4414,0.4944,0.5244,0.5516,0.5683,0.5763,0.5881,0.6112,0.6324,0.6583,0.6917,0.7315,0.7546,0.7576,0.7826,0.7968,0.8114,0.8918,0.9689,1.0421,1.1395,1.229,1.277,1.3057,1.316,1.3074,1.3022,1.3039,1.295,1.2895,1.2748,1.2764,1.2689,1.261,1.2572,1.2447,1.2327,1.2443,1.2722,1.2909,1.2944,1.2909,1.2909,1.2928,1.2982,1.3053,1.3158,1.3193,1.3193,1.3329,1.3346,1.3395,1.3444,1.346,1.3524,1.3619,1.3665,1.365,1.3809,1.4019,1.3891,1.3927,1.4159,1.4397,1.4342,1.4382,1.4629,1.4839,1.4487,1.4049,1.3749,1.3616,1.3586,1.3582,1.3546,1.4015,1.1626,1.2043,1.1884,1.1288,1.051,1.0395,0.9924,0.9236,0.9209,0.9155,0.8979,0.8749,0.8667,0.8607,0.8447,0.8306,0.8256,0.8149,0.7941,0.7753,0.7665,0.762,0.7385,0.6999,0.6631,0.6596,0.6198,0.5872,0.5557,0.493,0.4903,0.5038,0.4616,0.4557,0.4758,0.4568,0.4308,0.4262,0.4315,0.4456,0.4805,0.5131,0.5516,0.5846,0.5888,0.5991,0.6189,0.6388,0.66,0.6811,0.7031,0.7098,0.7193,0.747,0.7782,0.7735,0.8605,0.9296,1.0,1.0819,1.1532,1.1582,1.2145,1.2501,1.2572,1.2537,1.2575,1.2578,1.2517,1.2392,1.2407,1.2332,1.2352,1.2332,1.2143,1.2117,1.2221,1.2307,1.2291,1.2463,1.2546,1.2588,1.2565,1.2585,1.2623,1.2697,1.2735,1.2811,1.2957,1.3066,1.3139,1.3192,1.3227,1.3295,1.3379,1.3428,1.3412,1.3684,1.3955,1.3956,1.3869,1.4298,1.464,1.4812,1.4931,1.5037,1.5037,1.481,1.431,1.3698,1.3617,1.3852,1.3859,1.3785,1.4241,1.3313,1.3246,1.256,1.1823,1.1145,1.0821,1.014,0.9236,0.9288,0.9075,0.8802,0.8513,0.8435,0.8377,0.8332,0.8243,0.8183,0.8134,0.7974,0.7842,0.7737,0.7616,0.7395,0.7085,0.6734,0.6229,0.5929,0.5861,0.5848,0.5459,0.496,0.4668,0.436,0.4286,0.4157,0.3985,0.4078,0.4301,0.447,0.4732,0.5111,0.5415,0.5696,0.5979,0.5907,0.5936,0.6088,0.626,0.6366,0.6448,0.6778,0.6828,0.6845,0.7077,0.7553,0.8064,0.8347,0.9001,1.0176,1.0767,1.147,1.1978,1.2265,1.2266,1.2226,1.2169,1.2133,1.205,1.2009,1.1933,1.1918,1.1876,1.1891,1.1854,1.179,1.1659,1.1623,1.1645,1.1811,1.206,1.2205,1.2266,1.2205,1.2205,1.2307,1.2407,1.2506,1.2565,1.2697,1.2792,1.2869,1.2942,1.3031,1.3085,1.3156,1.319,1.3241,1.3613,1.3898,1.4119,1.4222,1.4677,1.4984,1.5214,1.5075,1.4905,1.4924,1.5031,1.485,1.4425,1.4336,1.4247,1.4189,1.4099,1.3773,1.3244,1.3393,1.2906,1.2252,1.1525,1.1238,1.0574,0.9805,0.978,0.9718,0.9397,0.8994,0.8719,0.8597,0.8216,0.8222,0.8424,0.8455,0.8332,0.8189,0.8062,0.7673,0.7352,0.7088,0.6879,0.658,0.6329,0.6061,0.6058,0.5638,0.5151,0.4666,0.4303,0.3998,0.3833,0.372,0.3902,0.4263,0.4445,0.4717,0.5156,0.548,0.5822,0.6016,0.5998,0.6027,0.6242,0.626,0.6366,0.6465,0.6638,0.6604,0.6604,0.6774,0.726,0.7932,0.8176,0.8723,0.9957,1.0384,1.0887,1.1363,1.1701,1.1833,1.1805,1.1747,1.1666,1.1681,1.1571,1.1564,1.1601,1.1437,1.137,1.1407,1.1347,1.1256,1.1164,1.1155,1.1324,1.1579,1.1534,1.1579,1.1747,1.1811,1.1976,1.2123,1.2246,1.2347,1.2427,1.2546,1.2642,1.2738,1.2829,1.2904,1.3008,1.3125,1.3223,1.3559,1.4095,1.4316,1.4602,1.5077,1.5454,1.5737,1.5458,1.4984,1.5283,1.5544,1.5358,1.5106,1.4774,1.4515,1.4497,1.4375,1.408,1.277,1.3193,1.2985,1.2412,1.17,1.158,1.1051,1.0421,1.0353,1.0306,1.0152,0.9605,0.9232,0.8984,0.8483,0.8255,0.8761,0.8626,0.8335,0.814,0.8039,0.7642,0.7307,0.6977,0.6964,0.7078,0.6783,0.6591,0.6261,0.601,0.5566,0.5118,0.456,0.4137,0.3972,0.3994,0.4061,0.4184,0.4367,0.4596,0.4998,0.5397,0.5834,0.6171,0.6045,0.6117,0.6413,0.636,0.6413,0.6512,0.6582,0.6535,0.643,0.6517,0.6951,0.759,0.7872,0.846,0.9317,0.9993,1.0513,1.0857,1.1109,1.1312,1.1347,1.1324,1.1293,1.1392,1.1339,1.1247,1.1247,1.1108,1.1038,1.1038,1.1015,1.092,1.0849,1.0777,1.0643,1.0763,1.0753,1.093,1.1187,1.1324,1.1482,1.1615,1.1753,1.1924,1.203,1.2291,1.2412,1.2546,1.2623,1.2716,1.287,1.3099,1.3278,1.3589,1.4381,1.4978,1.5212,1.5506,1.5747,1.5872,1.5667,1.5336,1.5727,1.5959,1.576,1.5477,1.5048,1.4818,1.4841,1.475,1.455,1.2901,1.2867,1.2646,1.2129,1.1561,1.1823,1.1339,1.0448,1.0674,1.05,1.0277,0.9919,0.965,0.9249,0.8564,0.8261,0.8211,0.808,0.7924,0.7865,0.7623,0.7687,0.7721,0.7142,0.7323,0.7444,0.7075,0.677,0.6641,0.6612,0.6298,0.5755,0.5447,0.5149,0.4686,0.475,0.475,0.4872,0.5139,0.5396,0.5541,0.5561,0.576,0.5918,0.5907,0.5954,0.6302,0.6284,0.6331,0.6517,0.6582,0.6582,0.6564,0.6582,0.6881,0.7332,0.779,0.8397,0.9501,1.01,1.0409,1.0671,1.0982,1.1048,1.0977,1.0991,1.0991,1.0968,1.0944,1.0958,1.0944,1.0849,1.0849,1.0825,1.0753,1.0656,1.0559,1.0521,1.0373,1.0173,1.0248,1.0472,1.0715,1.0835,1.0991,1.1118,1.1279,1.1468,1.1666,1.1924,1.219,1.2291,1.2412,1.2506,1.2721,1.2967,1.3455,1.369,1.4571,1.5468,1.5701,1.5814,1.5663,1.5701,1.559,1.5618,1.583,1.5967,1.6033,1.5914,1.5599,1.5361,1.5191,1.5073,1.4852,1.2537,1.2607,1.2388,1.2095,1.1823,1.1902,1.1642,1.1247,1.1298,1.1262,1.0967,1.0451,0.9908,0.9331,0.8818,0.8748,0.8697,0.8482,0.8376,0.8152,0.7909,0.7923,0.8074,0.7722,0.7671,0.794,0.7654,0.7364,0.7217,0.6859,0.6445,0.6311,0.615,0.5925,0.562,0.5765,0.5621,0.5516,0.5523,0.5686,0.5808,0.5837,0.5893,0.6134,0.5856,0.5948,0.6146,0.6039,0.6063,0.6224,0.6325,0.626,0.6242,0.6396,0.6765,0.7042,0.7087,0.7933,0.9377,0.9995,1.0342,1.0559,1.0715,1.0605,1.057,1.0681,1.0791,1.0815,1.0656,1.057,1.0559,1.0422,1.0422,1.0398,1.046,1.0348,1.0248,1.0248,1.0135,0.9919,0.979,1.0046,1.0298,1.0496,1.0691,1.0897,1.1048,1.1233,1.1355,1.1512,1.1775,1.2024,1.2149,1.2271,1.2567,1.2843,1.3621,1.4069,1.4828,1.5591,1.603,1.6123,1.5956,1.5947,1.6019,1.604,1.6009,1.6033,1.6107,1.6145,1.6179,1.5875,1.5541,1.5072,1.483,1.219,1.2291,1.2107,1.2009,1.2024,1.1869,1.1811,1.179,1.1695,1.171,1.1599,1.0987,1.0201,0.9564,0.9343,0.9193,0.924,0.9123,0.9008,0.8751,0.8543,0.8485,0.8523,0.8292,0.824,0.88,0.8213,0.7946,0.7714,0.7407,0.7074,0.6814,0.697,0.6858,0.6765,0.6741,0.6603,0.6021,0.6164,0.6184,0.609,0.6113,0.6181,0.6155,0.6001,0.5856,0.6114,0.5915,0.5826,0.6009,0.6117,0.6063,0.5979,0.6359,0.6665,0.6927,0.7063,0.7751,0.8844,0.9525,1.0046,1.0305,1.0373,1.0235,1.0235,1.0422,1.051,1.046,1.0348,1.0248,1.0211,1.0097,1.0097,1.0097,1.0072,0.9995,0.9893,0.9943,0.9827,0.9569,0.9502,0.9672,0.9919,1.0198,1.0422,1.0656,1.0825,1.0991,1.1118,1.1233,1.1466,1.177,1.1841,1.2021,1.2326,1.2781,1.3572,1.4374,1.5126,1.5669,1.6051,1.6255,1.6207,1.6266,1.6316,1.6196,1.6042,1.6111,1.6133,1.5991,1.5887,1.6062,1.5826,1.5297,1.4939,1.2003,1.1848,1.1833,1.1848,1.1848,1.1826,1.1826,1.1747,1.1534,1.1557,1.1659,1.1238,1.0787,1.044,0.9787,0.9497,0.9434,0.8904,0.8806,0.8741,0.8625,0.8904,0.9018,0.8991,0.8835,0.924,0.8835,0.8519,0.8438,0.8298,0.7919,0.765,0.7867,0.7988,0.7839,0.7607,0.7319,0.6883,0.6955,0.6792,0.654,0.641,0.6429,0.6308,0.6013,0.5808,0.6002,0.5911,0.592,0.611,0.6011,0.6117,0.6131,0.6439,0.671,0.7018,0.7405,0.7982,0.8608,0.8945,0.9251,0.9703,0.9944,0.997,0.9995,0.9944,0.997,1.0046,1.0021,0.9995,0.9982,0.9919,0.9919,0.9944,0.9944,0.9893,0.9787,0.9671,0.9539,0.9244,0.9282,0.9488,0.9514,0.9738,1.0122,1.0373,1.0559,1.0729,1.0944,1.1085,1.1281,1.1479,1.1547,1.1748,1.2074,1.2788,1.3907,1.4567,1.5185,1.563,1.5985,1.6136,1.6274,1.6262,1.6234,1.6145,1.6071,1.6047,1.5955,1.5626,1.5557,1.5788,1.5812,1.5445,1.5198,1.1869,1.1826,1.1826,1.1826,1.1826,1.1826,1.1718,1.1557,1.1445,1.137,1.1347,1.1015,1.0801,1.0575,1.0264,0.9789,0.9511,0.9301,0.9161,0.8991,0.8939,0.9191,0.9449,0.9566,0.9436,0.9749,0.9436,0.9059,0.8934,0.8979,0.8858,0.8724,0.8778,0.8816,0.869,0.829,0.7872,0.7795,0.7623,0.7338,0.7247,0.709,0.6959,0.6552,0.6673,0.6403,0.6318,0.6361,0.6403,0.6372,0.6046,0.6176,0.6468,0.6728,0.7013,0.7346,0.7782,0.8102,0.8608,0.8831,0.9128,0.9515,0.979,0.9892,0.9942,0.9905,0.9905,0.9905,0.988,0.988,0.9905,0.9905,0.9905,0.9905,0.9841,0.9764,0.9652,0.9525,0.9417,0.9197,0.9266,0.9442,0.938,0.9289,0.9686,1.0072,1.0261,1.0527,1.0875,1.1143,1.1432,1.1686,1.1822,1.21,1.2454,1.3351,1.4337,1.4764,1.5224,1.5639,1.5983,1.6067,1.6179,1.6194,1.6133,1.6025,1.594,1.5945,1.5796,1.5537,1.5478,1.5593,1.5551,1.5463,1.5326,1.1826,1.1826,1.1826,1.1747,1.1681,1.1681,1.1534,1.1324,1.1219,1.1071,1.0849,1.0729,1.0645,1.0534,1.0373,1.0155,0.9854,0.9736,0.9723,0.9606,0.9491,0.9635,0.9908,1.0013,0.9919,1.0156,1.0,0.9665,0.957,0.9546,0.9508,0.9532,0.9546,0.9533,0.9301,0.8849,0.8526,0.8535,0.8451,0.8013,0.7965,0.7857,0.7852,0.7452,0.7497,0.7502,0.7383,0.7463,0.7354,0.7157,0.6879,0.6774,0.7038,0.7375,0.7682,0.7923,0.8192,0.8409,0.8912,0.9327,0.947,0.9831,1.0061,1.0141,1.0093,1.0006,0.9905,0.988,0.988,0.988,0.988,0.9816,0.9738,0.9712,0.954,0.9446,0.9407,0.9295,0.9266,0.9191,0.941,0.9701,0.9916,0.9897,0.9939,1.0452,1.0947,1.1194,1.1384,1.1661,1.1843,1.2129,1.2341,1.2655,1.3056,1.3774,1.4418,1.4631,1.5101,1.5672,1.5983,1.6055,1.6139,1.6194,1.6102,1.589,1.5826,1.5823,1.5689,1.5508,1.5474,1.5463,1.5388,1.5327,1.5287,1.1805,1.1826,1.179,1.1637,1.1423,1.14,1.131,1.1094,1.0849,1.0645,1.0474,1.0559,1.0559,1.0399,1.0349,1.0234,1.0208,1.0195,1.0195,1.0104,1.0026,1.0208,1.0247,1.0234,1.0169,1.0273,1.0195,1.0105,1.0158,1.0031,1.0108,1.0134,1.0058,1.0097,0.9906,0.9686,0.9475,0.9366,0.9482,0.9143,0.8773,0.8606,0.8606,0.8492,0.8417,0.8397,0.8425,0.8502,0.8372,0.8091,0.7977,0.7945,0.8112,0.8402,0.8659,0.8765,0.9129,0.9329,0.9477,0.9955,1.0089,0.9987,1.0048,1.0205,1.0376,1.0179,0.9841,0.979,0.988,0.988,0.9816,0.9686,0.9607,0.9461,0.9274,0.9359,0.9346,0.9598,0.9668,0.9841,0.9972,1.0135,1.0486,1.066,1.0532,1.0856,1.1523,1.1868,1.2008,1.2195,1.242,1.2724,1.2963,1.3286,1.3668,1.407,1.45,1.4644,1.5036,1.5639,1.5947,1.5973,1.6044,1.6154,1.6093,1.5902,1.5794,1.5698,1.5535,1.5389,1.533,1.5299,1.5238,1.5274,1.5372,1.1703,1.1534,1.1534,1.1287,1.0987,1.1273,1.1287,1.1038,1.067,1.0474,1.051,1.0498,1.0523,1.0485,1.0374,1.0312,1.0312,1.0312,1.0312,1.0312,1.0312,1.0312,1.0325,1.0352,1.0339,1.0312,1.0312,1.0263,1.0072,1.011,1.0097,1.0123,1.0248,1.0554,1.0647,1.059,1.0526,1.0698,1.0546,1.012,0.9716,0.9445,0.9182,0.9001,0.9044,0.9128,0.918,0.9294,0.9266,0.9046,0.8932,0.886,0.8963,0.9201,0.9098,0.9221,0.9499,0.9346,0.9393,0.9624,0.9924,0.9809,0.9706,0.9762,0.954,0.9661,0.9619,0.9709,0.9874,0.9823,0.9621,0.9581,0.9461,0.9193,0.9145,0.9511,0.9708,1.0216,1.0505,1.0765,1.0934,1.0835,1.1009,1.1461,1.1435,1.1522,1.2146,1.2518,1.2687,1.2847,1.3037,1.3408,1.3709,1.3984,1.431,1.4564,1.504,1.5457,1.5524,1.5693,1.5854,1.5891,1.583,1.5799,1.5885,1.5913,1.5817,1.5682,1.5428,1.5262,1.5332,1.5401,1.5467,1.5552,1.5702,1.1894,1.1757,1.1617,1.1277,1.091,1.1071,1.1024,1.0791,1.0474,1.0399,1.0485,1.0374,1.0388,1.0474,1.0399,1.0312,1.0312,1.0312,1.0312,1.0312,1.0312,1.0312,1.0352,1.0495,1.0495,1.0456,1.0508,1.0509,1.0148,1.0046,0.997,0.9967,1.0118,1.0458,1.0712,1.0841,1.075,1.0817,1.0557,1.016,0.9903,0.967,0.9404,0.9435,0.9552,0.9732,0.987,0.9982,1.0092,0.9929,0.9767,0.9677,0.9767,0.9812,0.9719,0.9901,0.977,0.9563,0.9455,0.9291,0.9431,0.9238,0.9213,0.9305,0.9299,0.9564,0.9607,0.9702,0.986,0.9901,0.9801,0.9737,0.9436,0.9175,0.9318,0.9675,1.0015,1.0464,1.1051,1.1323,1.1678,1.1589,1.1654,1.2047,1.237,1.2526,1.2735,1.3053,1.3383,1.3558,1.3713,1.4015,1.4222,1.4358,1.4607,1.4916,1.5469,1.6192,1.6167,1.5969,1.5773,1.5802,1.5635,1.5492,1.561,1.5699,1.5813,1.5698,1.5613,1.5538,1.5492,1.559,1.5688,1.5859,1.6048,1.2395,1.2347,1.2038,1.1604,1.1168,1.0968,1.0706,1.0364,1.0325,1.0339,1.0365,1.0429,1.0494,1.0429,1.0404,1.0508,1.056,1.0534,1.056,1.0534,1.0677,1.0573,1.0664,1.0938,1.1031,1.086,1.0873,1.099,1.0418,1.0469,1.0286,1.0047,1.0232,1.0544,1.0784,1.0738,1.0707,1.0796,1.0431,1.0111,0.9907,0.9412,0.9456,0.9595,0.9853,1.0261,1.0551,1.0916,1.0883,1.0814,1.0743,1.0737,1.0788,1.0867,1.0819,1.066,1.0255,0.9828,0.9422,0.9154,0.8972,0.8916,0.9362,0.9688,0.9758,0.9629,0.9727,0.9848,1.0052,1.019,1.0276,0.9928,0.9576,0.9573,0.9636,0.9896,1.0165,1.065,1.1261,1.1726,1.2152,1.2337,1.2606,1.2944,1.296,1.3165,1.33,1.3543,1.3918,1.4417,1.4538,1.4626,1.4724,1.466,1.4928,1.5243,1.5788,1.6469,1.6395,1.6247,1.5992,1.574,1.5627,1.5513,1.541,1.554,1.5963,1.6047,1.5971,1.5901,1.6007,1.5931,1.6062,1.6241,1.6432,1.2578,1.2402,1.2307,1.2047,1.1748,1.1666,1.1372,1.0913,1.0534,1.0495,1.0939,1.0939,1.0899,1.0965,1.1357,1.1447,1.1486,1.1525,1.1551,1.1486,1.1329,1.1298,1.1361,1.1521,1.1725,1.1808,1.1766,1.1642,1.1497,1.1348,1.1332,1.1437,1.1039,1.1117,1.0885,1.0731,1.0867,1.0822,1.0354,1.0003,0.9788,0.9401,0.9509,0.9595,0.969,1.0069,1.045,1.0619,1.0599,1.0843,1.053,1.0417,1.0396,1.0118,0.9891,0.9905,0.9695,0.9499,0.914,0.8982,0.8793,0.8607,0.8976,0.9095,0.9314,0.9633,0.9882,1.0035,1.0221,1.041,1.0344,1.0037,0.999,1.0095,1.023,1.0511,1.0836,1.1488,1.2078,1.2503,1.2917,1.2958,1.3279,1.331,1.3361,1.359,1.3815,1.4,1.4292,1.4742,1.4998,1.5029,1.5112,1.4967,1.5274,1.5569,1.614,1.6612,1.6557,1.6372,1.6055,1.5792,1.5689,1.5624,1.5604,1.5957,1.6428,1.648,1.6593,1.6631,1.6716,1.6542,1.6464,1.6535,1.6732,1.3065,1.2792,1.266,1.2512,1.2337,1.2099,1.1919,1.171,1.1017,1.0978,1.1461,1.1293,1.1305,1.1553,1.1799,1.1942,1.1929,1.189,1.1903,1.189,1.2072,1.1722,1.1702,1.2062,1.2347,1.2499,1.2443,1.219,1.2138,1.1916,1.1817,1.169,1.1768,1.1569,1.1146,1.0762,1.0692,1.0597,1.03,0.9829,0.9541,0.927,0.9127,0.9287,0.9282,0.9551,0.9891,0.9963,1.0138,1.0324,0.9994,0.9943,0.9922,0.9664,0.9375,0.9387,0.9276,0.9046,0.8702,0.8603,0.8424,0.8471,0.8766,0.9119,0.939,0.9709,0.9944,1.0127,1.0368,1.0545,1.0377,1.0262,1.0469,1.0702,1.0961,1.1219,1.183,1.2503,1.2979,1.3403,1.3548,1.3527,1.3589,1.361,1.361,1.3668,1.3763,1.3967,1.4297,1.471,1.4903,1.4959,1.513,1.5249,1.5542,1.5752,1.6122,1.6507,1.6643,1.6441,1.6068,1.5952,1.5941,1.5915,1.5886,1.6316,1.6836,1.7197,1.7329,1.7325,1.718,1.697,1.6725,1.6599,1.681,1.3702,1.3415,1.3094,1.2983,1.2886,1.2424,1.2477,1.2808,1.1814,1.1618,1.1916,1.1579,1.1697,1.2059,1.2307,1.2372,1.2424,1.2438,1.2451,1.2164,1.2385,1.2256,1.2303,1.2507,1.2883,1.2869,1.2812,1.2821,1.2316,1.2239,1.2163,1.1566,1.1634,1.158,1.1359,1.0764,1.051,1.0244,0.9766,0.9254,0.9036,0.8691,0.8466,0.8942,0.9077,0.9222,0.9509,0.9602,0.9548,0.9623,0.9551,0.9548,0.9344,0.9293,0.9098,0.8963,0.8839,0.8652,0.8423,0.8335,0.8359,0.8539,0.8994,0.9375,0.9688,1.0064,1.0307,1.038,1.065,1.0735,1.0631,1.0709,1.0916,1.1313,1.1675,1.2016,1.2534,1.302,1.33,1.361,1.361,1.361,1.361,1.361,1.361,1.361,1.3668,1.3858,1.4186,1.464,1.4834,1.4881,1.5088,1.5271,1.5429,1.5684,1.5952,1.6258,1.6541,1.6484,1.6126,1.6099,1.6179,1.6304,1.6461,1.6746,1.718,1.7567,1.7782,1.7605,1.7495,1.7342,1.7076,1.6654,1.659,1.3794,1.3697,1.3631,1.3566,1.3552,1.3422,1.3422,1.35,1.2852,1.2533,1.2638,1.2546,1.252,1.269,1.3069,1.3213,1.3252,1.3121,1.333,1.3265,1.3226,1.305,1.3162,1.3272,1.3467,1.3533,1.3533,1.3422,1.3149,1.3097,1.311,1.288,1.2614,1.2219,1.1534,1.0925,1.0596,1.0157,0.9669,0.9361,0.9255,0.9046,0.8942,0.9221,0.9365,0.952,0.9788,0.9973,1.0221,1.0427,0.9798,0.9241,0.858,0.857,0.8497,0.8394,0.8456,0.8373,0.828,0.8288,0.8383,0.8746,0.919,0.9623,1.0035,1.0469,1.0743,1.0774,1.0816,1.084,1.1002,1.1157,1.1416,1.1892,1.2348,1.2751,1.3155,1.3382,1.36,1.361,1.361,1.361,1.361,1.361,1.361,1.361,1.361,1.3763,1.401,1.4373,1.4743,1.4867,1.5025,1.5203,1.5354,1.5536,1.5825,1.6175,1.6489,1.636,1.6166,1.6127,1.6192,1.6771,1.7141,1.7258,1.752,1.8054,1.8152,1.7834,1.7556,1.729,1.6712,1.6243,1.6232,1.3954,1.3821,1.3775,1.3775,1.3775,1.3775,1.3775,1.3722,1.3435,1.3291,1.3213,1.3043,1.3017,1.3271,1.3657,1.3775,1.3775,1.3762,1.367,1.3735,1.3775,1.3722,1.3775,1.3775,1.3756,1.3775,1.3788,1.3728,1.3687,1.3581,1.3441,1.3357,1.3101,1.2608,1.1814,1.1503,1.0934,1.0308,0.9923,0.9797,0.9766,0.9518,0.927,0.9445,0.9582,0.9747,0.9747,0.9901,1.0025,1.0138,0.9695,0.9447,0.8994,0.8932,0.8756,0.8611,0.8528,0.8415,0.8352,0.8425,0.8632,0.9015,0.9553,0.9994,1.0138,1.052,1.0788,1.0829,1.0829,1.0881,1.1219,1.1416,1.1871,1.2368,1.2637,1.2958,1.3269,1.3517,1.361,1.361,1.361,1.361,1.361,1.361,1.361,1.361,1.361,1.3716,1.3962,1.4161,1.4523,1.4846,1.4983,1.5062,1.5196,1.5407,1.562,1.5976,1.638,1.6363,1.6255,1.6126,1.6192,1.6811,1.725,1.7357,1.7719,1.8082,1.8069,1.7706,1.7423,1.7216,1.6527,1.5944,1.5869,1.4053,1.3808,1.3775,1.3775,1.3775,1.3775,1.3775,1.3775,1.3762,1.3762,1.3683,1.3239,1.3383,1.3631,1.3775,1.3775,1.3775,1.3775,1.3775,1.3775,1.3775,1.3775,1.3775,1.3775,1.3775,1.3775,1.3788,1.3674,1.356,1.3527,1.3459,1.331,1.3069,1.2731,1.2516,1.2047,1.1274,1.0849,1.0554,1.0398,1.0233,1.0032,0.9791,0.9695,0.9736,0.9736,0.9736,0.9777,0.9788,0.9829,0.9922,0.9633,0.9509,0.9396,0.9344,0.9222,0.916,0.8973,0.8777,0.887,0.9015,0.9294,0.9881,1.0242,1.0386,1.0681,1.0988,1.1033,1.1043,1.1147,1.1447,1.1861,1.2348,1.271,1.2927,1.3134,1.3393,1.361,1.361,1.361,1.361,1.361,1.361,1.361,1.361,1.361,1.3668,1.3763,1.3915,1.4104,1.4337,1.4616,1.4834,1.4971,1.5096,1.5232,1.5424,1.5724,1.6032,1.625,1.6328,1.6143,1.6282,1.6913,1.7286,1.7276,1.745,1.776,1.7652,1.7434,1.7173,1.6837,1.6281,1.5724,1.5501,1.3841,1.3775,1.3775,1.3775,1.3775,1.3775,1.3775,1.3775,1.3775,1.3775,1.3749,1.3722,1.3722,1.3775,1.3775,1.3775,1.3775,1.3775,1.3775,1.3775,1.3775,1.3775,1.3775,1.3775,1.3775,1.3775,1.3741,1.3741,1.3391,1.3412,1.3514,1.3399,1.3288,1.2861,1.2259,1.1869,1.1556,1.1194,1.1026,1.0903,1.0741,1.0573,1.0433,1.0561,1.1002,1.0888,1.0857,1.1023,1.1137,1.1095,1.0826,1.0324,1.0118,1.0077,1.0077,1.005,0.9977,0.9791,0.9667,0.9582,0.9729,0.9895,1.0376,1.0603,1.0916,1.1425,1.1575,1.1518,1.1539,1.158,1.1882,1.2348,1.2824,1.2989,1.3196,1.3362,1.3569,1.361,1.361,1.361,1.361,1.361,1.361,1.361,1.361,1.361,1.361,1.3716,1.3716,1.3962,1.4208,1.443,1.4697,1.488,1.5062,1.5108,1.5277,1.5501,1.5768,1.6032,1.6188,1.6077,1.6363,1.6806,1.6963,1.6956,1.7183,1.7269,1.7131,1.6921,1.6765,1.6423,1.5913,1.5558,1.5379]}]]